Time,TemperatureF,DewpointF,PressureIn,WindDirection,WindDirectionDegrees,WindSpeedMPH,WindSpeedGustMPH,Humidity,HourlyPrecipIn,Conditions,Clouds,dailyrainin,SoftwareType,DateUTC
2013-09-29 00:00:00,69.6,65.2,29.83,NNE,23,3.0,3.0,86,0.00,,SCT055,0.00,VWS V14.01,2013-09-29 04:00:00,
2013-09-29 00:01:00,69.6,65.2,29.83,NNE,23,3.0,3.0,86,0.00,,SCT055,0.00,VWS V14.01,2013-09-29 04:01:00,
2013-09-29 00:02:00,69.6,65.2,29.83,North,355,4.0,4.0,86,0.00,,,0.00,VWS V14.01,2013-09-29 04:02:00,
2013-09-29 00:03:00,69.6,65.2,29.83,NE,52,5.0,5.0,86,0.00,,,0.00,VWS V14.01,2013-09-29 04:03:00,
2013-09-29 00:04:00,69.6,65.2,29.83,NNW,346,5.0,5.0,86,0.00,,,0.00,VWS V14.01,2013-09-29 04:04:00,
2013-09-29 00:05:00,69.6,65.2,29.83,North,9,4.0,5.0,86,0.00,,,0.00,VWS V14.01,2013-09-29 04:05:00,
2013-09-29 00:06:00,69.6,65.6,29.94,NW,325,4.0,6.0,87,0.00,,SCT055,0.00,VWS V14.01,2013-09-29 04:06:00,
2013-09-29 00:07:00,69.6,65.6,29.94,NW,325,4.0,6.0,87,0.00,,,0.00,VWS V14.01,2013-09-29 04:07:00,
2013-09-29 00:08:00,69.4,65.4,29.94,NNW,347,4.0,4.0,87,0.00,,,0.00,VWS V14.01,2013-09-29 04:08:00,
2013-09-29 00:09:00,69.4,65.4,29.94,NNW,335,5.0,5.0,87,0.00,,,0.00,VWS V14.01,2013-09-29 04:09:00,
2013-09-29 00:10:00,69.4,65.4,29.94,NE,47,2.0,5.0,87,0.00,,,0.00,VWS V14.01,2013-09-29 04:10:00,
2013-09-29 00:11:00,69.4,65.4,29.89,North,11,4.0,4.0,87,0.00,,SCT055,0.00,VWS V14.01,2013-09-29 04:11:00,
2013-09-29 00:12:00,69.4,65.4,29.89,North,11,4.0,4.0,87,0.00,,,0.00,VWS V14.01,2013-09-29 04:12:00,
2013-09-29 00:13:00,69.4,65.4,29.89,NE,36,3.0,5.0,87,0.00,,,0.00,VWS V14.01,2013-09-29 04:13:00,
2013-09-29 00:14:00,69.4,65.4,29.89,NNW,346,3.0,6.0,87,0.00,,,0.00,VWS V14.01,2013-09-29 04:14:00,
2013-09-29 00:15:00,69.3,65.3,29.89,NNW,338,2.0,3.0,87,0.00,,,0.00,VWS V14.01,2013-09-29 04:15:00,
2013-09-29 00:16:00,69.3,65.3,29.89,North,5,3.0,3.0,87,0.00,,SCT055,0.00,VWS V14.01,2013-09-29 04:16:00,
2013-09-29 00:17:00,69.3,65.3,29.89,North,5,2.0,4.0,87,0.00,,,0.00,VWS V14.01,2013-09-29 04:17:00,
2013-09-29 00:18:00,69.1,65.4,29.89,North,355,2.0,4.0,88,0.00,,,0.00,VWS V14.01,2013-09-29 04:18:00,
2013-09-29 00:19:00,69.1,65.4,29.89,NNE,30,1.0,3.0,88,0.00,,,0.00,VWS V14.01,2013-09-29 04:19:00,
2013-09-29 00:20:00,69.1,65.7,29.89,NNE,24,2.0,5.0,89,0.00,,,0.00,VWS V14.01,2013-09-29 04:20:00,
2013-09-29 00:21:00,69.1,65.7,29.89,North,360,3.0,5.0,89,0.00,,SCT055,0.00,VWS V14.01,2013-09-29 04:21:00,
2013-09-29 00:22:00,69.1,65.7,29.89,NNW,347,5.0,5.0,89,0.00,,,0.00,VWS V14.01,2013-09-29 04:22:00,
2013-09-29 00:23:00,69.1,65.7,29.89,NNE,29,5.0,5.0,89,0.00,,,0.00,VWS V14.01,2013-09-29 04:23:00,
2013-09-29 00:24:00,68.9,65.5,29.89,NE,34,2.0,6.0,89,0.00,,,0.00,VWS V14.01,2013-09-29 04:24:00,
2013-09-29 00:25:00,68.9,65.5,29.89,NNW,348,4.0,4.0,89,0.00,,,0.00,VWS V14.01,2013-09-29 04:25:00,
2013-09-29 00:26:00,68.9,65.5,29.89,North,349,4.0,4.0,89,0.00,,SCT055,0.00,VWS V14.01,2013-09-29 04:26:00,
2013-09-29 00:27:00,68.9,65.5,29.89,North,350,3.0,4.0,89,0.00,,,0.00,VWS V14.01,2013-09-29 04:27:00,
2013-09-29 00:28:00,68.9,65.5,29.89,NNE,18,4.0,4.0,89,0.00,,,0.00,VWS V14.01,2013-09-29 04:28:00,
2013-09-29 00:29:00,68.8,65.4,29.89,North,355,2.0,5.0,89,0.00,,,0.00,VWS V14.01,2013-09-29 04:29:00,
2013-09-29 00:30:00,68.8,65.8,29.89,NNW,348,2.0,3.0,90,0.00,,,0.00,VWS V14.01,2013-09-29 04:30:00,
2013-09-29 00:31:00,68.8,65.4,29.78,North,351,2.0,3.0,89,0.00,,SCT055,0.00,VWS V14.01,2013-09-29 04:31:00,
2013-09-29 00:32:00,68.8,65.4,29.78,North,351,2.0,3.0,89,0.00,,,0.00,VWS V14.01,2013-09-29 04:32:00,
2013-09-29 00:33:00,68.6,65.2,29.78,NNW,338,2.0,4.0,89,0.00,,,0.00,VWS V14.01,2013-09-29 04:33:00,
2013-09-29 00:34:00,68.6,65.2,29.78,NNW,339,3.0,3.0,89,0.00,,,0.00,VWS V14.01,2013-09-29 04:34:00,
2013-09-29 00:35:00,68.6,65.2,29.78,NNW,339,2.0,3.0,89,0.00,,,0.00,VWS V14.01,2013-09-29 04:35:00,
2013-09-29 00:36:00,68.4,65.0,29.78,North,355,4.0,4.0,89,0.00,,FEW055,0.00,VWS V14.01,2013-09-29 04:36:00,
2013-09-29 00:37:00,68.4,65.0,29.78,North,355,4.0,4.0,89,0.00,,,0.00,VWS V14.01,2013-09-29 04:37:00,
2013-09-29 00:38:00,68.4,65.0,29.78,NNE,17,2.0,5.0,89,0.00,,,0.00,VWS V14.01,2013-09-29 04:38:00,
2013-09-29 00:39:00,68.4,65.0,29.78,NNE,17,3.0,4.0,89,0.00,,,0.00,VWS V14.01,2013-09-29 04:39:00,
2013-09-29 00:40:00,68.4,65.0,29.78,NW,322,5.0,5.0,89,0.00,,,0.00,VWS V14.01,2013-09-29 04:40:00,
2013-09-29 00:41:00,68.4,65.0,29.62,NNW,338,3.0,5.0,89,0.00,,FEW055,0.00,VWS V14.01,2013-09-29 04:41:00,
2013-09-29 00:42:00,68.4,65.0,29.62,NNW,338,3.0,5.0,89,0.00,,,0.00,VWS V14.01,2013-09-29 04:42:00,
2013-09-29 00:43:00,68.3,64.9,29.62,North,5,3.0,5.0,89,0.00,,,0.00,VWS V14.01,2013-09-29 04:43:00,
2013-09-29 00:44:00,68.3,64.9,29.62,NW,323,2.0,3.0,89,0.00,,,0.00,VWS V14.01,2013-09-29 04:44:00,
2013-09-29 00:45:00,68.3,64.9,29.62,NNW,345,3.0,3.0,89,0.00,,,0.00,VWS V14.01,2013-09-29 04:45:00,
2013-09-29 00:46:00,68.3,64.9,30.01,North,5,3.0,5.0,89,0.00,,FEW055,0.00,VWS V14.01,2013-09-29 04:46:00,
2013-09-29 00:47:00,68.3,64.9,30.01,North,5,3.0,5.0,89,0.00,,,0.00,VWS V14.01,2013-09-29 04:47:00,
2013-09-29 00:48:00,68.3,64.9,30.01,North,9,2.0,3.0,89,0.00,,,0.00,VWS V14.01,2013-09-29 04:48:00,
2013-09-29 00:49:00,68.1,64.7,30.01,North,9,2.0,2.0,89,0.00,,,0.00,VWS V14.01,2013-09-29 04:49:00,
2013-09-29 00:50:00,68.1,64.7,30.01,North,5,1.0,4.0,89,0.00,,,0.00,VWS V14.01,2013-09-29 04:50:00,
2013-09-29 00:51:00,68.1,64.7,30.04,NNE,17,3.0,3.0,89,0.00,,FEW055,0.00,VWS V14.01,2013-09-29 04:51:00,
2013-09-29 00:52:00,68.1,64.7,30.02,NNE,27,3.0,4.0,89,0.00,,,0.00,VWS V14.01,2013-09-29 04:52:00,
2013-09-29 00:53:00,68.1,64.7,30.04,NNW,344,6.0,6.0,89,0.00,,,0.00,VWS V14.01,2013-09-29 04:53:00,
2013-09-29 00:54:00,68.1,64.7,30.04,North,11,3.0,6.0,89,0.00,,,0.00,VWS V14.01,2013-09-29 04:54:00,
2013-09-29 00:55:00,68.1,64.7,30.04,NNW,340,1.0,5.0,89,0.00,,,0.00,VWS V14.01,2013-09-29 04:55:00,
2013-09-29 00:56:00,67.9,64.5,30.05,North,5,2.0,3.0,89,0.00,,FEW055,0.00,VWS V14.01,2013-09-29 04:56:00,
2013-09-29 00:57:00,67.9,64.5,30.05,North,5,3.0,4.0,89,0.00,,,0.00,VWS V14.01,2013-09-29 04:57:00,
2013-09-29 00:58:00,67.9,64.5,30.05,NNE,13,5.0,5.0,89,0.00,,,0.00,VWS V14.01,2013-09-29 04:58:00,
2013-09-29 00:59:00,67.9,64.5,30.05,North,5,2.0,5.0,89,0.00,,,0.00,VWS V14.01,2013-09-29 04:59:00,
2013-09-29 01:00:00,67.9,64.5,30.05,NNE,32,1.0,6.0,89,0.00,,,0.00,VWS V14.01,2013-09-29 05:00:00,
2013-09-29 01:01:00,67.9,64.5,30.05,NNE,24,3.0,3.0,89,0.00,,FEW055,0.00,VWS V14.01,2013-09-29 05:01:00,
2013-09-29 01:02:00,67.9,64.5,30.05,NNE,24,3.0,3.0,89,0.00,,,0.00,VWS V14.01,2013-09-29 05:02:00,
2013-09-29 01:03:00,67.9,64.5,30.05,North,355,3.0,5.0,89,0.00,,,0.00,VWS V14.01,2013-09-29 05:03:00,
2013-09-29 01:04:00,67.8,64.4,29.94,North,350,4.0,6.0,89,0.00,,,0.00,VWS V14.01,2013-09-29 05:04:00,
2013-09-29 01:05:00,67.8,64.8,29.94,North,11,3.0,6.0,90,0.00,,,0.00,VWS V14.01,2013-09-29 05:05:00,
2013-09-29 01:06:00,67.8,64.8,29.94,NW,319,4.0,6.0,90,0.00,,FEW055,0.00,VWS V14.01,2013-09-29 05:06:00,
2013-09-29 01:07:00,67.8,64.8,29.94,NW,319,4.0,6.0,90,0.00,,,0.00,VWS V14.01,2013-09-29 05:07:00,
2013-09-29 01:08:00,67.8,64.8,29.94,NNE,32,2.0,6.0,90,0.00,,,0.00,VWS V14.01,2013-09-29 05:08:00,
2013-09-29 01:09:00,67.8,64.8,29.94,NNE,15,6.0,6.0,90,0.00,,,0.00,VWS V14.01,2013-09-29 05:09:00,
2013-09-29 01:10:00,67.8,64.8,29.94,NNE,15,4.0,6.0,90,0.00,,,0.00,VWS V14.01,2013-09-29 05:10:00,
2013-09-29 01:11:00,67.8,64.8,29.94,NE,34,2.0,3.0,90,0.00,,FEW055,0.00,VWS V14.01,2013-09-29 05:11:00,
2013-09-29 01:12:00,67.8,64.8,29.94,NE,34,2.0,3.0,90,0.00,,,0.00,VWS V14.01,2013-09-29 05:12:00,
2013-09-29 01:13:00,67.8,64.8,29.94,NW,316,5.0,5.0,90,0.00,,,0.00,VWS V14.01,2013-09-29 05:13:00,
2013-09-29 01:14:00,67.6,64.6,29.88,NNE,16,3.0,5.0,90,0.00,,,0.00,VWS V14.01,2013-09-29 05:14:00,
2013-09-29 01:15:00,67.6,64.6,29.88,NNW,343,3.0,5.0,90,0.00,,,0.00,VWS V14.01,2013-09-29 05:15:00,
2013-09-29 01:16:00,67.6,64.6,29.88,NNW,345,4.0,5.0,90,0.00,,FEW055,0.00,VWS V14.01,2013-09-29 05:16:00,
2013-09-29 01:17:00,67.6,64.6,29.88,NNW,345,4.0,5.0,90,0.00,,,0.00,VWS V14.01,2013-09-29 05:17:00,
2013-09-29 01:18:00,67.6,64.6,29.88,NNW,333,4.0,4.0,90,0.00,,,0.00,VWS V14.01,2013-09-29 05:18:00,
2013-09-29 01:19:00,67.6,64.6,29.88,NNE,23,5.0,5.0,90,0.00,,,0.00,VWS V14.01,2013-09-29 05:19:00,
2013-09-29 01:20:00,67.6,64.6,29.88,NE,40,3.0,6.0,90,0.00,,,0.00,VWS V14.01,2013-09-29 05:20:00,
2013-09-29 01:21:00,67.6,64.6,29.88,NNW,338,4.0,5.0,90,0.00,,FEW055,0.00,VWS V14.01,2013-09-29 05:21:00,
2013-09-29 01:22:00,67.6,64.6,29.88,NNW,338,4.0,5.0,90,0.00,,,0.00,VWS V14.01,2013-09-29 05:22:00,
2013-09-29 01:23:00,67.6,64.6,29.88,NE,34,2.0,4.0,90,0.00,,,0.00,VWS V14.01,2013-09-29 05:23:00,
2013-09-29 01:24:00,67.4,64.4,29.88,NE,48,2.0,2.0,90,0.00,,,0.00,VWS V14.01,2013-09-29 05:24:00,
2013-09-29 01:25:00,67.4,64.4,29.88,North,5,5.0,5.0,90,0.00,,,0.00,VWS V14.01,2013-09-29 05:25:00,
2013-09-29 01:26:00,67.4,64.4,29.88,NE,38,3.0,5.0,90,0.00,,FEW055,0.00,VWS V14.01,2013-09-29 05:26:00,
2013-09-29 01:27:00,67.4,64.4,29.88,NE,38,3.0,5.0,90,0.00,,,0.00,VWS V14.01,2013-09-29 05:27:00,
2013-09-29 01:28:00,67.4,64.4,29.88,NNE,26,1.0,3.0,90,0.00,,,0.00,VWS V14.01,2013-09-29 05:28:00,
2013-09-29 01:29:00,67.4,64.4,29.73,North,9,4.0,4.0,90,0.00,,,0.00,VWS V14.01,2013-09-29 05:29:00,
2013-09-29 01:30:00,67.4,64.4,29.73,North,360,2.0,6.0,90,0.00,,,0.00,VWS V14.01,2013-09-29 05:30:00,
2013-09-29 01:31:00,67.4,64.4,29.73,NNE,17,3.0,3.0,90,0.00,,FEW055,0.00,VWS V14.01,2013-09-29 05:31:00,
2013-09-29 01:32:00,67.4,64.4,29.73,NNE,17,3.0,3.0,90,0.00,,,0.00,VWS V14.01,2013-09-29 05:32:00,
2013-09-29 01:33:00,67.4,64.4,29.73,North,355,1.0,3.0,90,0.00,,,0.00,VWS V14.01,2013-09-29 05:33:00,
2013-09-29 01:34:00,67.4,64.4,29.89,North,5,5.0,5.0,90,0.00,,,0.00,VWS V14.01,2013-09-29 05:34:00,
2013-09-29 01:35:00,67.4,64.4,29.89,NNE,28,4.0,5.0,90,0.00,,,0.00,VWS V14.01,2013-09-29 05:35:00,
2013-09-29 01:36:00,67.4,64.4,30.01,NNE,22,1.0,3.0,90,0.00,,BKN065,0.00,VWS V14.01,2013-09-29 05:36:00,
2013-09-29 01:37:00,67.4,64.4,30.01,NNE,22,1.0,3.0,90,0.00,,,0.00,VWS V14.01,2013-09-29 05:37:00,
2013-09-29 01:38:00,67.4,64.4,30.01,North,350,5.0,5.0,90,0.00,,,0.00,VWS V14.01,2013-09-29 05:38:00,
2013-09-29 01:39:00,67.4,64.4,30.06,North,360,1.0,5.0,90,0.00,,,0.00,VWS V14.01,2013-09-29 05:39:00,
2013-09-29 01:40:00,67.4,64.4,30.06,North,5,2.0,2.0,90,0.00,,,0.00,VWS V14.01,2013-09-29 05:40:00,
2013-09-29 01:41:00,67.4,64.4,30.06,NNW,346,4.0,5.0,90,0.00,,BKN065,0.00,VWS V14.01,2013-09-29 05:41:00,
2013-09-29 01:42:00,67.4,64.4,30.06,NNW,346,4.0,5.0,90,0.00,,,0.00,VWS V14.01,2013-09-29 05:42:00,
2013-09-29 01:43:00,67.4,64.4,30.06,NE,48,1.0,7.0,90,0.00,,,0.00,VWS V14.01,2013-09-29 05:43:00,
2013-09-29 01:44:00,67.4,64.4,29.98,NNE,17,3.0,4.0,90,0.00,,,0.00,VWS V14.01,2013-09-29 05:44:00,
2013-09-29 01:45:00,67.4,64.4,29.98,North,355,3.0,6.0,90,0.00,,,0.00,VWS V14.01,2013-09-29 05:45:00,
2013-09-29 01:46:00,67.4,64.4,29.98,North,9,3.0,3.0,90,0.00,,BKN065,0.00,VWS V14.01,2013-09-29 05:46:00,
2013-09-29 01:47:00,67.4,64.4,29.98,North,9,3.0,3.0,90,0.00,,,0.00,VWS V14.01,2013-09-29 05:47:00,
2013-09-29 01:48:00,67.4,64.4,29.98,North,11,4.0,5.0,90,0.00,,,0.00,VWS V14.01,2013-09-29 05:48:00,
2013-09-29 01:49:00,67.4,64.4,29.98,NE,49,3.0,5.0,90,0.00,,,0.00,VWS V14.01,2013-09-29 05:49:00,
2013-09-29 01:50:00,67.4,64.1,29.98,NNE,20,3.0,4.0,89,0.00,,,0.00,VWS V14.01,2013-09-29 05:50:00,
2013-09-29 01:51:00,67.4,64.1,29.98,NE,49,3.0,6.0,89,0.00,,BKN065,0.00,VWS V14.01,2013-09-29 05:51:00,
2013-09-29 01:52:00,67.4,64.1,29.98,NE,49,3.0,6.0,89,0.00,,,0.00,VWS V14.01,2013-09-29 05:52:00,
2013-09-29 01:53:00,67.4,64.1,29.71,NNW,331,7.0,9.0,89,0.00,,,0.00,VWS V14.01,2013-09-29 05:53:00,
2013-09-29 01:54:00,67.4,64.1,29.71,North,351,3.0,7.0,89,0.00,,,0.00,VWS V14.01,2013-09-29 05:54:00,
2013-09-29 01:55:00,67.4,64.1,29.71,NE,53,3.0,5.0,89,0.00,,,0.00,VWS V14.01,2013-09-29 05:55:00,
2013-09-29 01:56:00,67.6,63.9,29.71,North,11,4.0,5.0,88,0.00,,BKN065,0.00,VWS V14.01,2013-09-29 05:56:00,
2013-09-29 01:57:00,67.6,63.9,29.71,North,11,4.0,5.0,88,0.00,,,0.00,VWS V14.01,2013-09-29 05:57:00,
2013-09-29 01:58:00,67.6,63.9,29.71,NNE,12,4.0,7.0,88,0.00,,,0.00,VWS V14.01,2013-09-29 05:58:00,
2013-09-29 01:59:00,67.6,63.9,29.71,NE,50,4.0,6.0,88,0.00,,,0.00,VWS V14.01,2013-09-29 05:59:00,
2013-09-29 02:00:00,67.6,63.9,29.71,NE,34,1.0,4.0,88,0.00,,,0.00,VWS V14.01,2013-09-29 06:00:00,
2013-09-29 02:01:00,67.6,63.9,29.71,NE,34,4.0,6.0,88,0.00,,BKN065,0.00,VWS V14.01,2013-09-29 06:01:00,
2013-09-29 02:02:00,67.6,63.9,29.71,NE,34,4.0,6.0,88,0.00,,,0.00,VWS V14.01,2013-09-29 06:02:00,
2013-09-29 02:03:00,67.6,63.9,29.71,North,355,2.0,4.0,88,0.00,,,0.00,VWS V14.01,2013-09-29 06:03:00,
2013-09-29 02:04:00,67.8,63.8,29.71,NE,36,3.0,4.0,87,0.00,,,0.00,VWS V14.01,2013-09-29 06:04:00,
2013-09-29 02:05:00,67.8,63.8,29.71,NW,321,5.0,5.0,87,0.00,,,0.00,VWS V14.01,2013-09-29 06:05:00,
2013-09-29 02:06:00,67.8,63.8,29.71,NE,40,4.0,5.0,87,0.00,,BKN065,0.00,VWS V14.01,2013-09-29 06:06:00,
2013-09-29 02:07:00,67.8,63.8,29.71,NE,40,4.0,5.0,87,0.00,,,0.00,VWS V14.01,2013-09-29 06:07:00,
2013-09-29 02:08:00,67.8,63.8,29.71,NNW,338,4.0,5.0,87,0.00,,,0.00,VWS V14.01,2013-09-29 06:08:00,
2013-09-29 02:09:00,67.8,63.8,29.71,NNE,32,3.0,5.0,87,0.00,,,0.00,VWS V14.01,2013-09-29 06:09:00,
2013-09-29 02:10:00,67.8,63.8,29.71,NW,321,5.0,7.0,87,0.00,,,0.00,VWS V14.01,2013-09-29 06:10:00,
2013-09-29 02:11:00,67.9,63.9,29.71,NE,54,3.0,4.0,87,0.00,,BKN065,0.00,VWS V14.01,2013-09-29 06:11:00,
2013-09-29 02:12:00,67.9,63.9,29.71,NE,54,3.0,4.0,87,0.00,,,0.00,VWS V14.01,2013-09-29 06:12:00,
2013-09-29 02:13:00,67.9,63.9,29.71,North,5,4.0,6.0,87,0.00,,,0.00,VWS V14.01,2013-09-29 06:13:00,
2013-09-29 02:14:00,67.9,63.9,29.71,NE,51,6.0,6.0,87,0.00,,,0.00,VWS V14.01,2013-09-29 06:14:00,
2013-09-29 02:15:00,67.9,63.9,29.71,NNE,15,3.0,7.0,87,0.00,,,0.00,VWS V14.01,2013-09-29 06:15:00,
2013-09-29 02:16:00,68.1,64.1,29.71,North,360,3.0,5.0,87,0.00,,BKN065,0.00,VWS V14.01,2013-09-29 06:16:00,
2013-09-29 02:17:00,68.1,64.1,29.71,North,360,3.0,5.0,87,0.00,,,0.00,VWS V14.01,2013-09-29 06:17:00,
2013-09-29 02:18:00,68.1,64.1,29.71,North,355,3.0,3.0,87,0.00,,,0.00,VWS V14.01,2013-09-29 06:18:00,
2013-09-29 02:19:00,68.1,64.1,29.71,NNE,31,4.0,5.0,87,0.00,,,0.00,VWS V14.01,2013-09-29 06:19:00,
2013-09-29 02:20:00,68.1,64.1,29.71,NNE,18,8.0,8.0,87,0.00,,,0.00,VWS V14.01,2013-09-29 06:20:00,
2013-09-29 02:21:00,68.1,64.1,29.73,North,5,6.0,6.0,87,0.00,,BKN065,0.00,VWS V14.01,2013-09-29 06:21:00,
2013-09-29 02:22:00,68.1,64.1,29.71,North,5,2.0,4.0,87,0.00,,,0.00,VWS V14.01,2013-09-29 06:22:00,
2013-09-29 02:23:00,68.1,64.1,29.73,NE,38,4.0,6.0,87,0.00,,,0.00,VWS V14.01,2013-09-29 06:23:00,
2013-09-29 02:24:00,68.1,64.1,29.73,NNW,346,3.0,4.0,87,0.00,,,0.00,VWS V14.01,2013-09-29 06:24:00,
2013-09-29 02:25:00,68.1,64.1,29.73,North,360,1.0,5.0,87,0.00,,,0.00,VWS V14.01,2013-09-29 06:25:00,
2013-09-29 02:26:00,68.1,64.1,29.94,NNW,344,9.0,9.0,87,0.00,,BKN065,0.00,VWS V14.01,2013-09-29 06:26:00,
2013-09-29 02:27:00,68.1,64.1,29.73,NE,42,3.0,7.0,87,0.00,,,0.00,VWS V14.01,2013-09-29 06:27:00,
2013-09-29 02:28:00,68.1,63.8,29.94,NE,44,4.0,9.0,86,0.00,,,0.00,VWS V14.01,2013-09-29 06:28:00,
2013-09-29 02:29:00,68.1,64.1,29.94,NNE,22,4.0,4.0,87,0.00,,,0.00,VWS V14.01,2013-09-29 06:29:00,
2013-09-29 02:30:00,68.1,64.1,29.94,North,5,1.0,5.0,87,0.00,,,0.00,VWS V14.01,2013-09-29 06:30:00,
2013-09-29 02:31:00,68.1,64.1,29.98,NNE,13,4.0,5.0,87,0.00,,BKN065,0.00,VWS V14.01,2013-09-29 06:31:00,
2013-09-29 02:32:00,68.1,64.1,29.98,NNW,345,5.0,6.0,87,0.00,,,0.00,VWS V14.01,2013-09-29 06:32:00,
2013-09-29 02:33:00,68.1,64.1,29.91,NNW,346,5.0,5.0,87,0.00,,,0.00,VWS V14.01,2013-09-29 06:33:00,
2013-09-29 02:34:00,68.1,64.1,29.92,NNW,327,10.0,10.0,87,0.00,,,0.00,VWS V14.01,2013-09-29 06:34:00,
2013-09-29 02:35:00,67.9,63.9,29.91,NNW,346,4.0,10.0,87,0.00,,,0.00,VWS V14.01,2013-09-29 06:35:00,
2013-09-29 02:36:00,67.9,63.9,29.96,North,360,4.0,4.0,87,0.00,,BKN070,0.00,VWS V14.01,2013-09-29 06:36:00,
2013-09-29 02:37:00,67.9,63.9,29.91,North,360,4.0,4.0,87,0.00,,,0.00,VWS V14.01,2013-09-29 06:37:00,
2013-09-29 02:38:00,67.9,63.9,29.96,North,355,5.0,7.0,87,0.00,,,0.00,VWS V14.01,2013-09-29 06:38:00,
2013-09-29 02:39:00,67.9,63.9,29.96,NNW,340,4.0,5.0,87,0.00,,,0.00,VWS V14.01,2013-09-29 06:39:00,
2013-09-29 02:40:00,67.9,63.9,29.94,NNE,20,3.0,7.0,87,0.00,,,0.00,VWS V14.01,2013-09-29 06:40:00,
2013-09-29 02:41:00,67.8,63.8,29.94,NNW,334,3.0,3.0,87,0.00,,BKN070,0.00,VWS V14.01,2013-09-29 06:41:00,
2013-09-29 02:42:00,67.8,63.8,29.94,NNW,334,2.0,4.0,87,0.00,,,0.00,VWS V14.01,2013-09-29 06:42:00,
2013-09-29 02:43:00,67.8,63.8,29.94,NNW,338,2.0,4.0,87,0.00,,,0.00,VWS V14.01,2013-09-29 06:43:00,
2013-09-29 02:44:00,67.8,63.8,29.97,NNW,342,4.0,7.0,87,0.00,,,0.00,VWS V14.01,2013-09-29 06:44:00,
2013-09-29 02:45:00,67.8,63.8,29.98,NNW,337,3.0,4.0,87,0.00,,,0.00,VWS V14.01,2013-09-29 06:45:00,
2013-09-29 02:46:00,67.6,63.6,29.96,NW,310,11.0,11.0,87,0.00,,BKN070,0.00,VWS V14.01,2013-09-29 06:46:00,
2013-09-29 02:47:00,67.6,63.6,29.96,NNW,346,6.0,6.0,87,0.00,,,0.00,VWS V14.01,2013-09-29 06:47:00,
2013-09-29 02:48:00,67.6,63.6,29.96,North,355,5.0,11.0,87,0.00,,,0.00,VWS V14.01,2013-09-29 06:48:00,
2013-09-29 02:49:00,67.4,63.4,29.97,North,5,5.0,8.0,87,0.00,,,0.00,VWS V14.01,2013-09-29 06:49:00,
2013-09-29 02:50:00,67.4,63.4,29.97,North,350,5.0,8.0,87,0.00,,,0.00,VWS V14.01,2013-09-29 06:50:00,
2013-09-29 02:51:00,67.3,63.3,30.00,NE,37,4.0,4.0,87,0.00,,BKN070,0.00,VWS V14.01,2013-09-29 06:51:00,
2013-09-29 02:52:00,67.4,63.4,30.00,NNE,27,3.0,7.0,87,0.00,,,0.00,VWS V14.01,2013-09-29 06:52:00,
2013-09-29 02:53:00,67.3,63.3,30.00,NNE,32,2.0,7.0,87,0.00,,,0.00,VWS V14.01,2013-09-29 06:53:00,
2013-09-29 02:54:00,67.3,63.3,30.00,NNW,344,4.0,9.0,87,0.00,,,0.00,VWS V14.01,2013-09-29 06:54:00,
2013-09-29 02:55:00,67.3,63.3,30.00,North,355,3.0,6.0,87,0.00,,,0.00,VWS V14.01,2013-09-29 06:55:00,
2013-09-29 02:56:00,67.3,63.6,30.00,NE,43,3.0,6.0,88,0.00,,BKN070,0.00,VWS V14.01,2013-09-29 06:56:00,
2013-09-29 02:57:00,67.3,63.6,30.01,NE,44,6.0,7.0,88,0.00,,,0.00,VWS V14.01,2013-09-29 06:57:00,
2013-09-29 02:58:00,67.1,63.4,30.00,NNW,338,4.0,11.0,88,0.00,,,0.00,VWS V14.01,2013-09-29 06:58:00,
2013-09-29 02:59:00,67.1,63.4,30.00,NNW,344,6.0,6.0,88,0.00,,,0.00,VWS V14.01,2013-09-29 06:59:00,
2013-09-29 03:00:00,67.1,63.4,30.00,North,5,6.0,9.0,88,0.00,,,0.00,VWS V14.01,2013-09-29 07:00:00,
2013-09-29 03:01:00,67.1,63.4,30.00,NE,47,4.0,4.0,88,0.00,,BKN070,0.00,VWS V14.01,2013-09-29 07:01:00,
2013-09-29 03:02:00,67.1,63.4,30.00,NNE,31,3.0,6.0,88,0.00,,,0.00,VWS V14.01,2013-09-29 07:02:00,
2013-09-29 03:03:00,67.1,63.4,30.00,NW,324,9.0,9.0,88,0.00,,,0.00,VWS V14.01,2013-09-29 07:03:00,
2013-09-29 03:04:00,67.1,63.4,30.00,NNW,336,2.0,9.0,88,0.00,,,0.00,VWS V14.01,2013-09-29 07:04:00,
2013-09-29 03:05:00,67.1,63.4,30.00,NNE,12,5.0,5.0,88,0.00,,,0.00,VWS V14.01,2013-09-29 07:05:00,
2013-09-29 03:06:00,67.1,63.4,30.00,North,360,6.0,6.0,88,0.00,,BKN070,0.00,VWS V14.01,2013-09-29 07:06:00,
2013-09-29 03:07:00,67.1,63.4,30.00,NNW,340,6.0,7.0,88,0.00,,,0.00,VWS V14.01,2013-09-29 07:07:00,
2013-09-29 03:08:00,67.1,63.4,30.00,North,355,6.0,6.0,88,0.00,,,0.00,VWS V14.01,2013-09-29 07:08:00,
2013-09-29 03:09:00,67.1,63.4,30.00,North,10,4.0,11.0,88,0.00,,,0.00,VWS V14.01,2013-09-29 07:09:00,
2013-09-29 03:10:00,67.1,63.4,30.00,NNW,347,5.0,7.0,88,0.00,,,0.00,VWS V14.01,2013-09-29 07:10:00,
2013-09-29 03:11:00,66.9,63.6,29.64,NNW,342,5.0,7.0,89,0.00,,BKN070,0.00,VWS V14.01,2013-09-29 07:11:00,
2013-09-29 03:12:00,66.9,63.2,30.00,NNW,339,7.0,7.0,88,0.00,,,0.00,VWS V14.01,2013-09-29 07:12:00,
2013-09-29 03:13:00,66.9,63.6,29.64,NE,51,5.0,7.0,89,0.00,,,0.00,VWS V14.01,2013-09-29 07:13:00,
2013-09-29 03:14:00,66.9,63.6,29.64,North,5,4.0,8.0,89,0.00,,,0.00,VWS V14.01,2013-09-29 07:14:00,
2013-09-29 03:15:00,66.9,63.6,29.64,ENE,75,5.0,5.0,89,0.00,,,0.00,VWS V14.01,2013-09-29 07:15:00,
2013-09-29 03:16:00,66.9,63.6,29.64,NNE,12,6.0,9.0,89,0.00,,BKN070,0.00,VWS V14.01,2013-09-29 07:16:00,
2013-09-29 03:17:00,66.9,63.6,29.64,NNE,13,9.0,10.0,89,0.00,,,0.00,VWS V14.01,2013-09-29 07:17:00,
2013-09-29 03:18:00,66.9,63.6,29.64,North,355,5.0,9.0,89,0.00,,,0.00,VWS V14.01,2013-09-29 07:18:00,
2013-09-29 03:19:00,66.8,63.5,29.64,NNW,331,5.0,6.0,89,0.00,,,0.00,VWS V14.01,2013-09-29 07:19:00,
2013-09-29 03:20:00,66.8,63.5,29.64,NE,42,5.0,6.0,89,0.00,,,0.00,VWS V14.01,2013-09-29 07:20:00,
2013-09-29 03:21:00,66.8,63.5,29.58,North,9,7.0,7.0,89,0.00,,BKN070,0.00,VWS V14.01,2013-09-29 07:21:00,
2013-09-29 03:22:00,66.8,63.5,29.59,North,355,6.0,7.0,89,0.00,,,0.00,VWS V14.01,2013-09-29 07:22:00,
2013-09-29 03:23:00,66.8,63.5,29.58,NNE,26,4.0,7.0,89,0.00,,,0.00,VWS V14.01,2013-09-29 07:23:00,
2013-09-29 03:24:00,66.6,63.3,29.58,North,5,3.0,8.0,89,0.00,,,0.00,VWS V14.01,2013-09-29 07:24:00,
2013-09-29 03:25:00,66.6,63.3,29.58,NNE,13,6.0,9.0,89,0.00,,,0.00,VWS V14.01,2013-09-29 07:25:00,
2013-09-29 03:26:00,66.6,63.3,29.57,NNE,17,3.0,5.0,89,0.00,,BKN070,0.00,VWS V14.01,2013-09-29 07:26:00,
2013-09-29 03:27:00,66.6,63.3,29.60,NNW,346,5.0,11.0,89,0.00,,,0.00,VWS V14.01,2013-09-29 07:27:00,
2013-09-29 03:28:00,66.6,63.6,29.57,NNE,31,3.0,9.0,90,0.00,,,0.00,VWS V14.01,2013-09-29 07:28:00,
2013-09-29 03:29:00,66.6,63.6,29.57,NW,317,6.0,6.0,90,0.00,,,0.00,VWS V14.01,2013-09-29 07:29:00,
2013-09-29 03:30:00,66.4,63.4,29.57,NW,307,4.0,7.0,90,0.00,,,0.00,VWS V14.01,2013-09-29 07:30:00,
2013-09-29 03:31:00,66.4,63.4,29.57,North,355,3.0,3.0,90,0.00,,BKN070,0.00,VWS V14.01,2013-09-29 07:31:00,
2013-09-29 03:32:00,66.4,63.4,29.57,North,355,3.0,7.0,90,0.00,,,0.00,VWS V14.01,2013-09-29 07:32:00,
2013-09-29 03:33:00,66.4,63.4,29.57,NNE,29,5.0,5.0,90,0.00,,,0.00,VWS V14.01,2013-09-29 07:33:00,
2013-09-29 03:34:00,66.4,63.4,29.57,NNE,14,3.0,5.0,90,0.00,,,0.00,VWS V14.01,2013-09-29 07:34:00,
2013-09-29 03:35:00,66.4,63.4,29.57,NNW,327,5.0,6.0,90,0.00,,,0.00,VWS V14.01,2013-09-29 07:35:00,
2013-09-29 03:36:00,66.3,63.3,29.63,NNW,328,7.0,7.0,90,0.00,,SCT070,0.00,VWS V14.01,2013-09-29 07:36:00,
2013-09-29 03:37:00,66.3,63.3,29.57,NE,36,7.0,8.0,90,0.00,,,0.00,VWS V14.01,2013-09-29 07:37:00,
2013-09-29 03:38:00,66.3,63.3,29.63,North,9,4.0,7.0,90,0.00,,,0.00,VWS V14.01,2013-09-29 07:38:00,
2013-09-29 03:39:00,66.3,63.3,29.63,North,350,4.0,6.0,90,0.00,,,0.00,VWS V14.01,2013-09-29 07:39:00,
2013-09-29 03:40:00,66.3,63.3,29.63,North,355,9.0,9.0,90,0.00,,,0.00,VWS V14.01,2013-09-29 07:40:00,
2013-09-29 03:41:00,66.3,63.6,29.55,NNE,24,3.0,6.0,91,0.00,,SCT070,0.00,VWS V14.01,2013-09-29 07:41:00,
2013-09-29 03:42:00,66.3,63.6,29.55,NNE,26,6.0,10.0,91,0.00,,,0.00,VWS V14.01,2013-09-29 07:42:00,
2013-09-29 03:43:00,66.3,63.6,29.55,NNW,340,2.0,7.0,91,0.00,,,0.00,VWS V14.01,2013-09-29 07:43:00,
2013-09-29 03:44:00,66.3,63.6,29.55,NNE,22,3.0,7.0,91,0.00,,,0.00,VWS V14.01,2013-09-29 07:44:00,
2013-09-29 03:45:00,66.3,63.6,29.64,NNW,340,6.0,6.0,91,0.00,,,0.00,VWS V14.01,2013-09-29 07:45:00,
2013-09-29 03:46:00,66.1,63.4,29.64,North,355,6.0,6.0,91,0.00,,SCT070,0.00,VWS V14.01,2013-09-29 07:46:00,
2013-09-29 03:47:00,66.3,63.6,29.64,NNE,19,4.0,7.0,91,0.00,,,0.00,VWS V14.01,2013-09-29 07:47:00,
2013-09-29 03:48:00,66.1,63.4,29.64,NE,38,3.0,6.0,91,0.00,,,0.00,VWS V14.01,2013-09-29 07:48:00,
2013-09-29 03:49:00,66.1,63.4,29.58,North,355,5.0,10.0,91,0.00,,,0.00,VWS V14.01,2013-09-29 07:49:00,
2013-09-29 03:50:00,66.1,63.4,29.58,NNE,27,5.0,5.0,91,0.00,,,0.00,VWS V14.01,2013-09-29 07:50:00,
2013-09-29 03:51:00,66.1,63.7,29.58,NNW,338,10.0,10.0,92,0.00,,SCT070,0.00,VWS V14.01,2013-09-29 07:51:00,
2013-09-29 03:52:00,66.1,63.7,29.58,NE,47,6.0,10.0,92,0.00,,,0.00,VWS V14.01,2013-09-29 07:52:00,
2013-09-29 03:53:00,66.1,63.7,29.58,NNW,329,5.0,10.0,92,0.00,,,0.00,VWS V14.01,2013-09-29 07:53:00,
2013-09-29 03:54:00,66.1,63.7,29.58,NNW,342,7.0,7.0,92,0.00,,,0.00,VWS V14.01,2013-09-29 07:54:00,
2013-09-29 03:55:00,66.1,63.7,29.58,North,5,3.0,7.0,92,0.00,,,0.00,VWS V14.01,2013-09-29 07:55:00,
2013-09-29 03:56:00,66.1,63.7,29.70,North,355,4.0,5.0,92,0.00,,SCT070,0.00,VWS V14.01,2013-09-29 07:56:00,
2013-09-29 03:57:00,66.1,63.7,29.70,North,355,4.0,5.0,92,0.00,,,0.00,VWS V14.01,2013-09-29 07:57:00,
2013-09-29 03:58:00,66.1,63.7,29.70,NNW,345,7.0,7.0,92,0.00,,,0.00,VWS V14.01,2013-09-29 07:58:00,
2013-09-29 03:59:00,66.1,63.7,29.70,NNW,335,6.0,7.0,92,0.00,,,0.00,VWS V14.01,2013-09-29 07:59:00,
2013-09-29 04:00:00,66.1,63.7,29.70,NE,54,9.0,9.0,92,0.00,,,0.00,VWS V14.01,2013-09-29 08:00:00,
2013-09-29 04:01:00,66.1,63.7,29.70,NNW,338,5.0,5.0,92,0.00,,SCT070,0.00,VWS V14.01,2013-09-29 08:01:00,
2013-09-29 04:02:00,66.1,63.7,29.70,NNE,23,3.0,10.0,92,0.00,,,0.00,VWS V14.01,2013-09-29 08:02:00,
2013-09-29 04:03:00,66.1,63.7,29.70,NNW,338,9.0,9.0,92,0.00,,,0.00,VWS V14.01,2013-09-29 08:03:00,
2013-09-29 04:04:00,66.1,64.0,29.70,NNE,31,2.0,9.0,93,0.00,,,0.00,VWS V14.01,2013-09-29 08:04:00,
2013-09-29 04:05:00,66.1,64.0,29.70,NE,40,4.0,4.0,93,0.00,,,0.00,VWS V14.01,2013-09-29 08:05:00,
2013-09-29 04:06:00,66.1,64.0,29.57,NNE,13,5.0,5.0,93,0.00,,SCT070,0.00,VWS V14.01,2013-09-29 08:06:00,
2013-09-29 04:07:00,66.1,64.0,29.58,NE,38,3.0,7.0,93,0.00,,,0.00,VWS V14.01,2013-09-29 08:07:00,
2013-09-29 04:08:00,66.1,64.0,29.57,NNW,333,6.0,6.0,93,0.00,,,0.00,VWS V14.01,2013-09-29 08:08:00,
2013-09-29 04:09:00,66.1,64.0,29.56,ENE,62,3.0,7.0,93,0.00,,,0.00,VWS V14.01,2013-09-29 08:09:00,
2013-09-29 04:10:00,66.1,64.0,29.56,NE,43,4.0,5.0,93,0.00,,,0.00,VWS V14.01,2013-09-29 08:10:00,
2013-09-29 04:11:00,66.1,64.0,29.56,NNW,338,6.0,6.0,93,0.00,,SCT070,0.00,VWS V14.01,2013-09-29 08:11:00,
2013-09-29 04:12:00,66.1,64.0,29.56,NNW,340,5.0,8.0,93,0.00,,,0.00,VWS V14.01,2013-09-29 08:12:00,
2013-09-29 04:13:00,66.1,64.3,29.56,NE,52,3.0,6.0,94,0.00,,,0.00,VWS V14.01,2013-09-29 08:13:00,
2013-09-29 04:14:00,66.1,64.3,29.56,North,10,6.0,6.0,94,0.00,,CLR,0.00,VWS V14.01,2013-09-29 08:14:00,
2013-09-29 04:15:00,66.1,64.3,29.67,NNE,18,3.0,6.0,94,0.00,,,0.00,VWS V14.01,2013-09-29 08:15:00,
2013-09-29 04:16:00,66.0,64.2,29.60,ENE,67,4.0,4.0,94,0.00,,SCT070,0.00,VWS V14.01,2013-09-29 08:16:00,
2013-09-29 04:17:00,66.0,64.2,29.60,North,9,3.0,9.0,94,0.00,,,0.00,VWS V14.01,2013-09-29 08:17:00,
2013-09-29 04:18:00,66.0,64.2,29.60,NE,41,4.0,6.0,94,0.00,,,0.00,VWS V14.01,2013-09-29 08:18:00,
2013-09-29 04:19:00,66.0,64.2,29.60,NE,49,5.0,7.0,94,0.00,,,0.00,VWS V14.01,2013-09-29 08:19:00,
2013-09-29 04:20:00,66.0,64.2,29.60,NNW,346,5.0,9.0,94,0.00,,,0.00,VWS V14.01,2013-09-29 08:20:00,
2013-09-29 04:21:00,66.0,64.5,29.56,NE,54,4.0,4.0,95,0.00,,SCT070,0.00,VWS V14.01,2013-09-29 08:21:00,
2013-09-29 04:22:00,66.0,64.5,29.56,NNW,346,4.0,12.0,95,0.00,,,0.00,VWS V14.01,2013-09-29 08:22:00,
2013-09-29 04:23:00,66.0,64.5,29.56,NNE,23,4.0,8.0,95,0.00,,,0.00,VWS V14.01,2013-09-29 08:23:00,
2013-09-29 04:24:00,66.0,64.5,29.56,NNW,343,5.0,6.0,95,0.00,,,0.00,VWS V14.01,2013-09-29 08:24:00,
2013-09-29 04:25:00,65.8,64.3,29.56,North,355,6.0,6.0,95,0.00,,,0.00,VWS V14.01,2013-09-29 08:25:00,
2013-09-29 04:26:00,65.8,64.0,29.56,North,5,5.0,6.0,94,0.00,,SCT070,0.00,VWS V14.01,2013-09-29 08:26:00,
2013-09-29 04:27:00,65.8,64.0,29.56,NE,51,6.0,10.0,94,0.00,,,0.00,VWS V14.01,2013-09-29 08:27:00,
2013-09-29 04:28:00,65.8,64.0,29.56,North,355,3.0,6.0,94,0.00,,,0.00,VWS V14.01,2013-09-29 08:28:00,
2013-09-29 04:29:00,65.8,64.3,29.56,NNE,19,5.0,7.0,95,0.00,,,0.00,VWS V14.01,2013-09-29 08:29:00,
2013-09-29 04:30:00,65.8,64.3,29.56,NNW,340,6.0,10.0,95,0.00,,,0.00,VWS V14.01,2013-09-29 08:30:00,
2013-09-29 04:31:00,65.8,64.3,29.59,NNE,13,7.0,7.0,95,0.00,,SCT070,0.00,VWS V14.01,2013-09-29 08:31:00,
2013-09-29 04:32:00,65.8,64.3,29.59,NNE,13,7.0,7.0,95,0.00,,,0.00,VWS V14.01,2013-09-29 08:32:00,
2013-09-29 04:33:00,65.8,64.3,29.59,North,5,7.0,9.0,95,0.00,,,0.00,VWS V14.01,2013-09-29 08:33:00,
2013-09-29 04:34:00,65.8,64.3,29.59,NNW,330,5.0,10.0,95,0.00,,,0.00,VWS V14.01,2013-09-29 08:34:00,
2013-09-29 04:35:00,65.8,64.3,29.60,NNE,29,6.0,9.0,95,0.00,,,0.00,VWS V14.01,2013-09-29 08:35:00,
2013-09-29 04:36:00,65.8,64.3,29.60,NNW,328,6.0,6.0,95,0.00,,FEW070,0.00,VWS V14.01,2013-09-29 08:36:00,
2013-09-29 04:37:00,65.8,64.3,29.60,North,355,4.0,11.0,95,0.00,,,0.00,VWS V14.01,2013-09-29 08:37:00,
2013-09-29 04:38:00,66.0,64.5,29.60,North,355,6.0,9.0,95,0.00,,,0.00,VWS V14.01,2013-09-29 08:38:00,
2013-09-29 04:39:00,66.0,64.5,29.60,NNE,32,4.0,10.0,95,0.00,,,0.00,VWS V14.01,2013-09-29 08:39:00,
2013-09-29 04:40:00,66.0,64.5,29.60,NNE,15,7.0,7.0,95,0.00,,,0.00,VWS V14.01,2013-09-29 08:40:00,
2013-09-29 04:41:00,66.0,64.5,29.60,NNE,22,5.0,5.0,95,0.00,,FEW070,0.00,VWS V14.01,2013-09-29 08:41:00,
2013-09-29 04:42:00,66.0,64.5,29.60,NE,36,4.0,6.0,95,0.00,,,0.00,VWS V14.01,2013-09-29 08:42:00,
2013-09-29 04:43:00,66.0,64.5,29.60,North,355,6.0,6.0,95,0.00,,,0.00,VWS V14.01,2013-09-29 08:43:00,
2013-09-29 04:44:00,66.0,64.5,29.61,NE,34,9.0,9.0,95,0.00,,CLR,0.00,VWS V14.01,2013-09-29 08:44:00,
2013-09-29 04:45:00,66.0,64.5,29.61,NNE,15,3.0,9.0,95,0.00,,,0.00,VWS V14.01,2013-09-29 08:45:00,
2013-09-29 04:46:00,66.0,64.8,29.64,NW,315,4.0,4.0,96,0.00,,FEW070,0.00,VWS V14.01,2013-09-29 08:46:00,
2013-09-29 04:47:00,66.0,64.8,29.64,NNW,330,4.0,7.0,96,0.00,,,0.00,VWS V14.01,2013-09-29 08:47:00,
2013-09-29 04:48:00,66.0,64.8,29.64,NNE,14,5.0,5.0,96,0.00,,,0.00,VWS V14.01,2013-09-29 08:48:00,
2013-09-29 04:49:00,66.0,64.8,29.64,NNW,330,6.0,11.0,96,0.00,,,0.00,VWS V14.01,2013-09-29 08:49:00,
2013-09-29 04:50:00,66.0,64.8,29.64,NE,42,4.0,9.0,96,0.00,,,0.00,VWS V14.01,2013-09-29 08:50:00,
2013-09-29 04:51:00,66.0,64.8,29.64,NE,49,4.0,5.0,96,0.00,,FEW070,0.00,VWS V14.01,2013-09-29 08:51:00,
2013-09-29 04:52:00,66.0,64.8,29.64,NNE,32,5.0,5.0,96,0.00,,,0.00,VWS V14.01,2013-09-29 08:52:00,
2013-09-29 04:53:00,66.0,64.8,29.64,NNE,15,3.0,5.0,96,0.00,,,0.00,VWS V14.01,2013-09-29 08:53:00,
2013-09-29 04:54:00,66.0,64.8,29.64,North,5,3.0,7.0,96,0.00,,,0.00,VWS V14.01,2013-09-29 08:54:00,
2013-09-29 04:55:00,66.1,64.9,29.64,NNW,344,5.0,5.0,96,0.00,,,0.00,VWS V14.01,2013-09-29 08:55:00,
2013-09-29 04:56:00,66.1,64.9,29.64,North,355,4.0,4.0,96,0.00,,FEW070,0.00,VWS V14.01,2013-09-29 08:56:00,
2013-09-29 04:57:00,66.1,64.9,29.64,NNW,341,3.0,5.0,96,0.00,,,0.00,VWS V14.01,2013-09-29 08:57:00,
2013-09-29 04:58:00,66.1,64.9,29.64,NNE,15,4.0,9.0,96,0.00,,,0.00,VWS V14.01,2013-09-29 08:58:00,
2013-09-29 04:59:00,66.1,64.9,29.64,NNW,335,6.0,7.0,96,0.00,,,0.00,VWS V14.01,2013-09-29 08:59:00,
2013-09-29 05:00:00,66.0,64.8,29.64,NNW,348,7.0,7.0,96,0.00,,,0.00,VWS V14.01,2013-09-29 09:00:00,
2013-09-29 05:01:00,66.0,64.8,29.72,NNE,16,5.0,5.0,96,0.00,,FEW070,0.00,VWS V14.01,2013-09-29 09:01:00,
2013-09-29 05:02:00,66.0,64.8,29.72,North,355,5.0,6.0,96,0.00,,,0.00,VWS V14.01,2013-09-29 09:02:00,
2013-09-29 05:03:00,66.0,64.8,29.72,North,355,4.0,6.0,96,0.00,,,0.00,VWS V14.01,2013-09-29 09:03:00,
2013-09-29 05:04:00,66.0,64.8,29.66,NE,46,6.0,6.0,96,0.00,,,0.00,VWS V14.01,2013-09-29 09:04:00,
2013-09-29 05:05:00,66.0,64.8,29.65,NE,42,2.0,6.0,96,0.00,,,0.00,VWS V14.01,2013-09-29 09:05:00,
2013-09-29 05:06:00,66.0,65.1,29.65,NNE,31,4.0,7.0,97,0.00,,FEW070,0.00,VWS V14.01,2013-09-29 09:06:00,
2013-09-29 05:07:00,66.0,65.1,29.65,NNE,31,4.0,7.0,97,0.00,,,0.00,VWS V14.01,2013-09-29 09:07:00,
2013-09-29 05:08:00,66.0,65.1,29.65,NNW,346,7.0,7.0,97,0.00,,,0.00,VWS V14.01,2013-09-29 09:08:00,
2013-09-29 05:09:00,66.0,65.1,29.65,NNE,21,7.0,9.0,97,0.00,,,0.00,VWS V14.01,2013-09-29 09:09:00,
2013-09-29 05:10:00,65.8,64.9,29.65,NNW,344,7.0,7.0,97,0.00,,,0.00,VWS V14.01,2013-09-29 09:10:00,
2013-09-29 05:11:00,65.8,64.9,29.65,NNE,19,7.0,7.0,97,0.00,,FEW070,0.00,VWS V14.01,2013-09-29 09:11:00,
2013-09-29 05:12:00,65.8,64.9,29.65,NE,35,6.0,7.0,97,0.00,,,0.00,VWS V14.01,2013-09-29 09:12:00,
2013-09-29 05:13:00,65.8,64.9,29.65,ESE,107,6.0,7.0,97,0.00,,,0.00,VWS V14.01,2013-09-29 09:13:00,
2013-09-29 05:14:00,65.8,64.9,29.65,NW,313,4.0,6.0,97,0.00,,,0.00,VWS V14.01,2013-09-29 09:14:00,
2013-09-29 05:15:00,65.8,64.9,29.65,NE,40,2.0,6.0,97,0.00,,,0.00,VWS V14.01,2013-09-29 09:15:00,
2013-09-29 05:16:00,65.8,64.9,30.03,NE,52,5.0,5.0,97,0.00,,FEW070,0.00,VWS V14.01,2013-09-29 09:16:00,
2013-09-29 05:17:00,65.8,64.9,30.03,North,360,5.0,5.0,97,0.00,,,0.00,VWS V14.01,2013-09-29 09:17:00,
2013-09-29 05:18:00,65.8,64.9,30.03,NNE,21,5.0,5.0,97,0.00,,,0.00,VWS V14.01,2013-09-29 09:18:00,
2013-09-29 05:19:00,65.8,64.9,30.03,North,350,3.0,5.0,97,0.00,,,0.00,VWS V14.01,2013-09-29 09:19:00,
2013-09-29 05:20:00,66.0,65.1,30.03,NNE,13,4.0,5.0,97,0.00,,,0.00,VWS V14.01,2013-09-29 09:20:00,
2013-09-29 05:21:00,66.0,65.1,30.03,NNE,23,4.0,6.0,97,0.00,,FEW070,0.00,VWS V14.01,2013-09-29 09:21:00,
2013-09-29 05:22:00,66.0,65.1,30.03,WNW,299,6.0,6.0,97,0.00,,,0.00,VWS V14.01,2013-09-29 09:22:00,
2013-09-29 05:23:00,66.0,65.1,30.03,North,355,4.0,6.0,97,0.00,,,0.00,VWS V14.01,2013-09-29 09:23:00,
2013-09-29 05:24:00,66.0,65.1,30.03,NW,320,4.0,11.0,97,0.00,,,0.00,VWS V14.01,2013-09-29 09:24:00,
2013-09-29 05:25:00,66.0,65.1,30.03,NNE,31,6.0,7.0,97,0.00,,,0.00,VWS V14.01,2013-09-29 09:25:00,
2013-09-29 05:26:00,66.0,65.1,30.03,North,10,5.0,6.0,97,0.00,,FEW070,0.00,VWS V14.01,2013-09-29 09:26:00,
2013-09-29 05:27:00,66.0,65.1,30.03,East,98,6.0,7.0,97,0.00,,,0.00,VWS V14.01,2013-09-29 09:27:00,
2013-09-29 05:28:00,66.0,65.1,30.03,NNW,340,6.0,6.0,97,0.00,,,0.00,VWS V14.01,2013-09-29 09:28:00,
2013-09-29 05:29:00,66.0,65.1,30.03,NNW,336,6.0,6.0,97,0.00,,,0.00,VWS V14.01,2013-09-29 09:29:00,
2013-09-29 05:30:00,66.0,65.1,30.03,North,9,2.0,9.0,97,0.00,,,0.00,VWS V14.01,2013-09-29 09:30:00,
2013-09-29 05:31:00,66.0,65.1,30.03,North,355,5.0,7.0,97,0.00,,FEW070,0.00,VWS V14.01,2013-09-29 09:31:00,
2013-09-29 05:32:00,66.0,65.1,30.03,NE,35,4.0,7.0,97,0.00,,,0.00,VWS V14.01,2013-09-29 09:32:00,
2013-09-29 05:33:00,66.0,65.1,30.03,NE,51,5.0,7.0,97,0.00,,,0.00,VWS V14.01,2013-09-29 09:33:00,
2013-09-29 05:34:00,66.0,65.1,30.02,NNW,347,3.0,7.0,97,0.00,,,0.00,VWS V14.01,2013-09-29 09:34:00,
2013-09-29 05:35:00,65.8,64.9,30.02,North,360,3.0,4.0,97,0.00,,,0.00,VWS V14.01,2013-09-29 09:35:00,
2013-09-29 05:36:00,65.8,64.9,30.03,North,350,5.0,5.0,97,0.00,,CLR,0.00,VWS V14.01,2013-09-29 09:36:00,
2013-09-29 05:37:00,65.8,64.9,30.02,NNE,15,4.0,6.0,97,0.00,,,0.00,VWS V14.01,2013-09-29 09:37:00,
2013-09-29 05:38:00,65.8,65.2,30.03,North,360,7.0,7.0,98,0.00,,,0.00,VWS V14.01,2013-09-29 09:38:00,
2013-09-29 05:39:00,65.8,65.2,30.03,NNW,336,3.0,7.0,98,0.00,,,0.00,VWS V14.01,2013-09-29 09:39:00,
2013-09-29 05:40:00,65.8,65.2,30.03,North,9,4.0,9.0,98,0.00,,,0.00,VWS V14.01,2013-09-29 09:40:00,
2013-09-29 05:41:00,65.8,65.2,30.03,NE,55,7.0,7.0,98,0.00,,CLR,0.00,VWS V14.01,2013-09-29 09:41:00,
2013-09-29 05:42:00,65.8,65.2,30.03,NNW,346,4.0,7.0,98,0.00,,,0.00,VWS V14.01,2013-09-29 09:42:00,
2013-09-29 05:43:00,65.8,65.2,30.03,NNE,27,4.0,8.0,98,0.00,,,0.00,VWS V14.01,2013-09-29 09:43:00,
2013-09-29 05:44:00,65.8,65.2,30.04,NE,34,4.0,9.0,98,0.00,,,0.00,VWS V14.01,2013-09-29 09:44:00,
2013-09-29 05:45:00,65.8,65.2,30.03,NNW,331,4.0,5.0,98,0.00,,,0.00,VWS V14.01,2013-09-29 09:45:00,
2013-09-29 05:46:00,65.8,65.2,30.04,NNE,17,6.0,6.0,98,0.00,,CLR,0.00,VWS V14.01,2013-09-29 09:46:00,
2013-09-29 05:47:00,65.8,65.2,30.04,North,355,3.0,12.0,98,0.00,,,0.00,VWS V14.01,2013-09-29 09:47:00,
2013-09-29 05:48:00,65.8,65.2,30.04,North,355,4.0,7.0,98,0.00,,,0.00,VWS V14.01,2013-09-29 09:48:00,
2013-09-29 05:49:00,65.8,65.2,30.04,NNE,21,6.0,6.0,98,0.00,,,0.00,VWS V14.01,2013-09-29 09:49:00,
2013-09-29 05:50:00,65.8,65.2,30.04,NNW,348,10.0,10.0,98,0.00,,,0.00,VWS V14.01,2013-09-29 09:50:00,
2013-09-29 05:51:00,65.8,65.2,30.04,NNE,12,5.0,10.0,98,0.00,,CLR,0.00,VWS V14.01,2013-09-29 09:51:00,
2013-09-29 05:52:00,65.8,65.2,30.04,NW,323,10.0,10.0,98,0.00,,,0.00,VWS V14.01,2013-09-29 09:52:00,
2013-09-29 05:53:00,65.8,65.2,30.04,NW,326,11.0,12.0,98,0.00,,,0.00,VWS V14.01,2013-09-29 09:53:00,
2013-09-29 05:54:00,65.8,65.2,30.04,NNW,347,7.0,11.0,98,0.00,,,0.00,VWS V14.01,2013-09-29 09:54:00,
2013-09-29 05:55:00,65.8,65.2,30.04,North,355,4.0,7.0,98,0.00,,,0.00,VWS V14.01,2013-09-29 09:55:00,
2013-09-29 05:56:00,65.6,65.0,30.04,NW,322,9.0,9.0,98,0.00,,CLR,0.00,VWS V14.01,2013-09-29 09:56:00,
2013-09-29 05:57:00,65.6,65.0,30.04,NE,42,4.0,9.0,98,0.00,,,0.00,VWS V14.01,2013-09-29 09:57:00,
2013-09-29 05:58:00,65.6,65.0,30.04,NNE,28,7.0,9.0,98,0.00,,,0.00,VWS V14.01,2013-09-29 09:58:00,
2013-09-29 05:59:00,65.6,65.0,30.04,NNE,32,6.0,7.0,98,0.00,,,0.00,VWS V14.01,2013-09-29 09:59:00,
2013-09-29 06:00:00,65.6,65.0,30.04,North,355,4.0,10.0,98,0.00,,,0.00,VWS V14.01,2013-09-29 10:00:00,
2013-09-29 06:01:00,65.5,65.2,30.04,NW,317,8.0,8.0,99,0.00,,CLR,0.00,VWS V14.01,2013-09-29 10:01:00,
2013-09-29 06:02:00,65.5,64.9,30.04,NE,41,5.0,8.0,98,0.00,,,0.00,VWS V14.01,2013-09-29 10:02:00,
2013-09-29 06:03:00,65.5,65.2,30.04,NNW,344,7.0,9.0,99,0.00,,,0.00,VWS V14.01,2013-09-29 10:03:00,
2013-09-29 06:04:00,65.5,65.2,30.04,North,9,6.0,11.0,99,0.00,,,0.00,VWS V14.01,2013-09-29 10:04:00,
2013-09-29 06:05:00,65.5,64.9,30.04,NE,38,4.0,6.0,98,0.00,,,0.00,VWS V14.01,2013-09-29 10:05:00,
2013-09-29 06:06:00,65.5,65.2,30.04,NE,39,4.0,7.0,99,0.00,,CLR,0.00,VWS V14.01,2013-09-29 10:06:00,
2013-09-29 06:07:00,65.5,65.2,30.04,NNW,340,7.0,7.0,99,0.00,,,0.00,VWS V14.01,2013-09-29 10:07:00,
2013-09-29 06:08:00,65.3,65.0,30.04,NW,315,5.0,7.0,99,0.00,,,0.00,VWS V14.01,2013-09-29 10:08:00,
2013-09-29 06:09:00,65.3,65.0,30.04,North,355,4.0,6.0,99,0.00,,,0.00,VWS V14.01,2013-09-29 10:09:00,
2013-09-29 06:10:00,65.3,65.0,30.04,North,5,4.0,6.0,99,0.00,,,0.00,VWS V14.01,2013-09-29 10:10:00,
2013-09-29 06:11:00,65.3,65.0,30.04,NNE,22,5.0,5.0,99,0.00,,CLR,0.00,VWS V14.01,2013-09-29 10:11:00,
2013-09-29 06:12:00,65.3,65.0,30.04,North,360,3.0,5.0,99,0.00,,,0.00,VWS V14.01,2013-09-29 10:12:00,
2013-09-29 06:13:00,65.3,65.0,30.04,North,355,5.0,5.0,99,0.00,,,0.00,VWS V14.01,2013-09-29 10:13:00,
2013-09-29 06:14:00,65.3,65.0,30.04,NNW,342,5.0,10.0,99,0.00,,,0.00,VWS V14.01,2013-09-29 10:14:00,
2013-09-29 06:15:00,65.3,65.0,30.04,NNE,32,4.0,6.0,99,0.00,,,0.00,VWS V14.01,2013-09-29 10:15:00,
2013-09-29 06:16:00,65.2,64.9,29.91,NE,40,6.0,6.0,99,0.00,,CLR,0.00,VWS V14.01,2013-09-29 10:16:00,
2013-09-29 06:17:00,65.2,64.9,30.04,NNE,31,4.0,11.0,99,0.00,,,0.00,VWS V14.01,2013-09-29 10:17:00,
2013-09-29 06:18:00,65.2,64.9,29.91,NNW,348,9.0,9.0,99,0.00,,,0.00,VWS V14.01,2013-09-29 10:18:00,
2013-09-29 06:19:00,65.2,64.9,29.91,North,5,3.0,10.0,99,0.00,,,0.00,VWS V14.01,2013-09-29 10:19:00,
2013-09-29 06:20:00,65.2,64.9,29.91,NNW,347,7.0,7.0,99,0.00,,,0.00,VWS V14.01,2013-09-29 10:20:00,
2013-09-29 06:21:00,65.2,64.9,29.78,NE,44,3.0,6.0,99,0.00,,CLR,0.00,VWS V14.01,2013-09-29 10:21:00,
2013-09-29 06:22:00,65.2,64.9,29.91,NNE,25,6.0,10.0,99,0.00,,,0.00,VWS V14.01,2013-09-29 10:22:00,
2013-09-29 06:23:00,65.2,64.9,29.78,NNW,328,6.0,9.0,99,0.00,,,0.00,VWS V14.01,2013-09-29 10:23:00,
2013-09-29 06:24:00,65.2,65.2,29.78,North,10,4.0,7.0,100,0.00,,,0.00,VWS V14.01,2013-09-29 10:24:00,
2013-09-29 06:25:00,65.0,65.0,29.83,NNW,348,5.0,7.0,100,0.00,,,0.00,VWS V14.01,2013-09-29 10:25:00,
2013-09-29 06:26:00,65.0,65.0,29.83,NNE,13,7.0,7.0,100,0.00,,CLR,0.00,VWS V14.01,2013-09-29 10:26:00,
2013-09-29 06:27:00,65.0,65.0,29.83,NNW,333,6.0,7.0,100,0.00,,,0.00,VWS V14.01,2013-09-29 10:27:00,
2013-09-29 06:28:00,65.0,65.0,29.83,North,360,9.0,9.0,100,0.00,,,0.00,VWS V14.01,2013-09-29 10:28:00,
2013-09-29 06:29:00,65.0,65.0,29.74,NE,38,4.0,9.0,100,0.00,,,0.00,VWS V14.01,2013-09-29 10:29:00,
2013-09-29 06:30:00,65.0,65.0,29.74,NNE,16,7.0,7.0,100,0.00,,,0.00,VWS V14.01,2013-09-29 10:30:00,
2013-09-29 06:31:00,64.8,64.8,30.00,NNW,338,7.0,7.0,100,0.00,,CLR,0.00,VWS V14.01,2013-09-29 10:31:00,
2013-09-29 06:32:00,65.0,65.0,30.00,NNW,335,5.0,6.0,100,0.00,,,0.00,VWS V14.01,2013-09-29 10:32:00,
2013-09-29 06:33:00,64.8,64.8,30.00,NNE,13,5.0,7.0,100,0.00,,,0.00,VWS V14.01,2013-09-29 10:33:00,
2013-09-29 06:34:00,64.8,64.8,29.92,NNW,346,5.0,5.0,100,0.00,,,0.00,VWS V14.01,2013-09-29 10:34:00,
2013-09-29 06:35:00,64.8,64.8,29.92,North,355,5.0,5.0,100,0.00,,,0.00,VWS V14.01,2013-09-29 10:35:00,
2013-09-29 06:36:00,64.8,64.8,30.00,North,9,5.0,11.0,100,0.00,,CLR,0.00,VWS V14.01,2013-09-29 10:36:00,
2013-09-29 06:37:00,64.8,64.8,30.00,North,360,5.0,9.0,100,0.00,,,0.00,VWS V14.01,2013-09-29 10:37:00,
2013-09-29 06:38:00,64.8,64.8,30.00,NW,317,4.0,11.0,100,0.00,,,0.00,VWS V14.01,2013-09-29 10:38:00,
2013-09-29 06:39:00,64.8,64.8,30.00,North,355,6.0,7.0,100,0.00,,,0.00,VWS V14.01,2013-09-29 10:39:00,
2013-09-29 06:40:00,64.8,64.8,30.00,NNE,31,2.0,6.0,100,0.00,,,0.00,VWS V14.01,2013-09-29 10:40:00,
2013-09-29 06:41:00,64.8,64.8,30.00,North,10,6.0,6.0,100,0.00,,CLR,0.00,VWS V14.01,2013-09-29 10:41:00,
2013-09-29 06:42:00,64.8,64.8,30.00,NNW,346,4.0,9.0,100,0.00,,,0.00,VWS V14.01,2013-09-29 10:42:00,
2013-09-29 06:43:00,64.7,64.7,30.00,NNW,344,5.0,6.0,100,0.00,,,0.00,VWS V14.01,2013-09-29 10:43:00,
2013-09-29 06:44:00,64.7,64.7,30.00,North,5,3.0,5.0,100,0.00,,,0.00,VWS V14.01,2013-09-29 10:44:00,
2013-09-29 06:45:00,64.7,64.7,30.00,NNW,338,10.0,10.0,100,0.00,,,0.00,VWS V14.01,2013-09-29 10:45:00,
2013-09-29 06:46:00,64.7,64.7,30.05,NNE,15,2.0,4.0,100,0.00,,CLR,0.00,VWS V14.01,2013-09-29 10:46:00,
2013-09-29 06:47:00,64.7,64.7,30.05,NNW,330,4.0,6.0,100,0.00,,,0.00,VWS V14.01,2013-09-29 10:47:00,
2013-09-29 06:48:00,64.7,64.7,30.05,NNW,333,5.0,7.0,100,0.00,,,0.00,VWS V14.01,2013-09-29 10:48:00,
2013-09-29 06:49:00,64.7,64.7,30.05,NNE,13,4.0,9.0,100,0.00,,,0.00,VWS V14.01,2013-09-29 10:49:00,
2013-09-29 06:50:00,64.7,64.7,30.05,North,5,5.0,5.0,100,0.00,,,0.00,VWS V14.01,2013-09-29 10:50:00,
2013-09-29 06:51:00,64.7,64.7,30.05,NNW,338,6.0,6.0,100,0.00,,CLR,0.00,VWS V14.01,2013-09-29 10:51:00,
2013-09-29 06:52:00,64.7,64.7,30.05,North,351,3.0,5.0,100,0.00,,,0.00,VWS V14.01,2013-09-29 10:52:00,
2013-09-29 06:53:00,64.7,64.7,30.05,NNE,20,3.0,6.0,100,0.00,,,0.00,VWS V14.01,2013-09-29 10:53:00,
2013-09-29 06:54:00,64.7,64.7,30.05,North,5,5.0,5.0,100,0.00,,,0.00,VWS V14.01,2013-09-29 10:54:00,
2013-09-29 06:55:00,64.7,64.7,30.05,NNW,343,2.0,5.0,100,0.00,,,0.00,VWS V14.01,2013-09-29 10:55:00,
2013-09-29 06:56:00,64.7,64.7,30.05,NNW,338,6.0,6.0,100,0.00,,CLR,0.00,VWS V14.01,2013-09-29 10:56:00,
2013-09-29 06:57:00,64.7,64.7,30.05,North,5,3.0,5.0,100,0.00,,,0.00,VWS V14.01,2013-09-29 10:57:00,
2013-09-29 06:58:00,64.7,64.7,30.05,NNW,340,6.0,6.0,100,0.00,,,0.00,VWS V14.01,2013-09-29 10:58:00,
2013-09-29 06:59:00,64.7,64.7,30.05,NNW,341,4.0,6.0,100,0.00,,,0.00,VWS V14.01,2013-09-29 10:59:00,
2013-09-29 07:00:00,64.7,64.7,30.05,North,355,2.0,5.0,100,0.00,,,0.00,VWS V14.01,2013-09-29 11:00:00,
2013-09-29 07:01:00,64.7,64.7,30.05,NNW,348,3.0,3.0,100,0.00,,CLR,0.00,VWS V14.01,2013-09-29 11:01:00,
2013-09-29 07:02:00,64.7,64.7,30.05,NNW,348,2.0,2.0,100,0.00,,,0.00,VWS V14.01,2013-09-29 11:02:00,
2013-09-29 07:03:00,64.7,64.7,30.05,NNW,334,10.0,10.0,100,0.00,,,0.00,VWS V14.01,2013-09-29 11:03:00,
2013-09-29 07:04:00,64.5,64.5,30.05,NW,322,8.0,10.0,100,0.00,,,0.00,VWS V14.01,2013-09-29 11:04:00,
2013-09-29 07:05:00,64.5,64.5,30.05,North,355,2.0,8.0,100,0.00,,,0.00,VWS V14.01,2013-09-29 11:05:00,
2013-09-29 07:06:00,64.5,64.5,30.05,North,5,3.0,4.0,100,0.00,,CLR,0.00,VWS V14.01,2013-09-29 11:06:00,
2013-09-29 07:07:00,64.5,64.5,30.05,NNW,339,4.0,5.0,100,0.00,,,0.00,VWS V14.01,2013-09-29 11:07:00,
2013-09-29 07:08:00,64.5,64.5,30.05,NNW,341,2.0,6.0,100,0.00,,,0.00,VWS V14.01,2013-09-29 11:08:00,
2013-09-29 07:09:00,64.5,64.5,30.05,NNW,340,5.0,5.0,100,0.00,,,0.00,VWS V14.01,2013-09-29 11:09:00,
2013-09-29 07:10:00,64.5,64.5,30.05,NNW,343,4.0,9.0,100,0.00,,,0.00,VWS V14.01,2013-09-29 11:10:00,
2013-09-29 07:11:00,64.5,64.5,30.05,NNW,342,3.0,4.0,100,0.00,,CLR,0.00,VWS V14.01,2013-09-29 11:11:00,
2013-09-29 07:12:00,64.5,64.5,30.05,NNW,342,4.0,9.0,100,0.00,,,0.00,VWS V14.01,2013-09-29 11:12:00,
2013-09-29 07:13:00,64.5,64.5,30.05,NNW,340,4.0,4.0,100,0.00,,,0.00,VWS V14.01,2013-09-29 11:13:00,
2013-09-29 07:14:00,64.5,64.5,30.05,NW,317,4.0,5.0,100,0.00,,,0.00,VWS V14.01,2013-09-29 11:14:00,
2013-09-29 07:15:00,64.3,64.3,30.05,NNW,339,6.0,6.0,100,0.00,,,0.00,VWS V14.01,2013-09-29 11:15:00,
2013-09-29 07:16:00,64.3,64.3,30.05,NNW,348,7.0,7.0,100,0.00,,CLR,0.00,VWS V14.01,2013-09-29 11:16:00,
2013-09-29 07:17:00,64.3,64.3,30.05,NW,316,5.0,5.0,100,0.00,,,0.00,VWS V14.01,2013-09-29 11:17:00,
2013-09-29 07:18:00,64.3,64.3,30.05,NNW,338,2.0,7.0,100,0.00,,,0.00,VWS V14.01,2013-09-29 11:18:00,
2013-09-29 07:19:00,64.3,64.3,29.96,NW,319,5.0,6.0,100,0.00,,,0.00,VWS V14.01,2013-09-29 11:19:00,
2013-09-29 07:20:00,64.3,64.3,29.96,NW,326,4.0,10.0,100,0.00,,,0.00,VWS V14.01,2013-09-29 11:20:00,
2013-09-29 07:21:00,64.3,64.3,29.96,North,355,3.0,6.0,100,0.00,,CLR,0.00,VWS V14.01,2013-09-29 11:21:00,
2013-09-29 07:22:00,64.3,64.3,29.96,NNW,329,2.0,4.0,100,0.00,,,0.00,VWS V14.01,2013-09-29 11:22:00,
2013-09-29 07:23:00,64.3,64.3,29.96,NW,325,8.0,8.0,100,0.00,,,0.00,VWS V14.01,2013-09-29 11:23:00,
2013-09-29 07:24:00,64.3,64.3,29.96,NW,322,6.0,9.0,100,0.00,,,0.00,VWS V14.01,2013-09-29 11:24:00,
2013-09-29 07:25:00,64.2,64.2,29.96,NNW,333,4.0,7.0,100,0.00,,,0.00,VWS V14.01,2013-09-29 11:25:00,
2013-09-29 07:26:00,64.2,64.2,30.00,NNW,332,3.0,7.0,100,0.00,,CLR,0.00,VWS V14.01,2013-09-29 11:26:00,
2013-09-29 07:27:00,64.2,64.2,30.00,NNW,348,7.0,7.0,100,0.00,,,0.00,VWS V14.01,2013-09-29 11:27:00,
2013-09-29 07:28:00,64.2,64.2,30.00,NNW,338,2.0,7.0,100,0.00,,,0.00,VWS V14.01,2013-09-29 11:28:00,
2013-09-29 07:29:00,64.2,64.2,30.01,NW,316,7.0,7.0,100,0.00,,,0.00,VWS V14.01,2013-09-29 11:29:00,
2013-09-29 07:30:00,64.2,64.2,30.01,NNW,333,6.0,7.0,100,0.00,,,0.00,VWS V14.01,2013-09-29 11:30:00,
2013-09-29 07:31:00,64.0,64.0,30.01,North,5,2.0,3.0,100,0.00,,CLR,0.00,VWS V14.01,2013-09-29 11:31:00,
2013-09-29 07:32:00,64.2,64.2,30.01,North,355,3.0,11.0,100,0.00,,,0.00,VWS V14.01,2013-09-29 11:32:00,
2013-09-29 07:33:00,64.0,64.0,30.01,North,11,3.0,5.0,100,0.00,,,0.00,VWS V14.01,2013-09-29 11:33:00,
2013-09-29 07:34:00,64.0,64.0,29.79,NW,325,2.0,5.0,100,0.00,,,0.00,VWS V14.01,2013-09-29 11:34:00,
2013-09-29 07:35:00,64.0,64.0,29.79,NW,320,5.0,7.0,100,0.00,,,0.00,VWS V14.01,2013-09-29 11:35:00,
2013-09-29 07:36:00,64.0,64.0,29.79,NNW,345,5.0,5.0,100,0.00,,CLR,0.00,VWS V14.01,2013-09-29 11:36:00,
2013-09-29 07:37:00,64.0,64.0,29.79,NNW,331,5.0,5.0,100,0.00,,,0.00,VWS V14.01,2013-09-29 11:37:00,
2013-09-29 07:38:00,64.0,64.0,29.79,North,355,6.0,6.0,100,0.00,,,0.00,VWS V14.01,2013-09-29 11:38:00,
2013-09-29 07:39:00,64.0,64.0,29.79,North,349,5.0,9.0,100,0.00,,,0.00,VWS V14.01,2013-09-29 11:39:00,
2013-09-29 07:40:00,64.0,64.0,29.79,NNW,344,6.0,6.0,100,0.00,,,0.00,VWS V14.01,2013-09-29 11:40:00,
2013-09-29 07:41:00,64.0,64.0,29.79,North,5,5.0,9.0,100,0.00,,CLR,0.00,VWS V14.01,2013-09-29 11:41:00,
2013-09-29 07:42:00,64.0,64.0,29.79,North,11,3.0,6.0,100,0.00,,,0.00,VWS V14.01,2013-09-29 11:42:00,
2013-09-29 07:43:00,64.0,64.0,29.79,NNW,331,2.0,9.0,100,0.00,,,0.00,VWS V14.01,2013-09-29 11:43:00,
2013-09-29 07:44:00,64.0,64.0,29.79,NNW,348,4.0,6.0,100,0.00,,,0.00,VWS V14.01,2013-09-29 11:44:00,
2013-09-29 07:45:00,64.0,64.0,29.79,NW,325,6.0,7.0,100,0.00,,,0.00,VWS V14.01,2013-09-29 11:45:00,
2013-09-29 07:46:00,64.0,64.0,29.80,NNW,327,6.0,6.0,100,0.00,,CLR,0.00,VWS V14.01,2013-09-29 11:46:00,
2013-09-29 07:47:00,64.0,64.0,29.79,NNE,16,1.0,5.0,100,0.00,,,0.00,VWS V14.01,2013-09-29 11:47:00,
2013-09-29 07:48:00,64.2,64.2,29.80,NNW,336,5.0,6.0,100,0.00,,,0.00,VWS V14.01,2013-09-29 11:48:00,
2013-09-29 07:49:00,64.0,64.0,29.80,North,355,3.0,9.0,100,0.00,,,0.00,VWS V14.01,2013-09-29 11:49:00,
2013-09-29 07:50:00,64.0,64.0,29.80,West,279,3.0,5.0,100,0.00,,,0.00,VWS V14.01,2013-09-29 11:50:00,
2013-09-29 07:51:00,64.0,64.0,29.83,NW,310,4.0,6.0,100,0.00,,CLR,0.00,VWS V14.01,2013-09-29 11:51:00,
2013-09-29 07:52:00,64.0,64.0,29.83,NW,319,6.0,9.0,100,0.00,,,0.00,VWS V14.01,2013-09-29 11:52:00,
2013-09-29 07:53:00,64.0,64.0,29.83,NNW,331,5.0,6.0,100,0.00,,,0.00,VWS V14.01,2013-09-29 11:53:00,
2013-09-29 07:54:00,64.0,64.0,29.83,NNW,341,6.0,7.0,100,0.00,,,0.00,VWS V14.01,2013-09-29 11:54:00,
2013-09-29 07:55:00,64.0,64.0,29.97,NW,304,5.0,6.0,100,0.00,,,0.00,VWS V14.01,2013-09-29 11:55:00,
2013-09-29 07:56:00,64.2,64.2,29.97,NNE,31,5.0,9.0,100,0.00,,CLR,0.00,VWS V14.01,2013-09-29 11:56:00,
2013-09-29 07:57:00,64.2,64.2,29.97,NW,305,7.0,9.0,100,0.00,,,0.00,VWS V14.01,2013-09-29 11:57:00,
2013-09-29 07:58:00,64.0,64.0,29.97,NNW,342,9.0,9.0,100,0.00,,,0.00,VWS V14.01,2013-09-29 11:58:00,
2013-09-29 07:59:00,64.2,64.2,29.97,NW,320,10.0,10.0,100,0.00,,,0.00,VWS V14.01,2013-09-29 11:59:00,
2013-09-29 08:00:00,64.2,64.2,29.97,North,9,5.0,10.0,100,0.00,,,0.00,VWS V14.01,2013-09-29 12:00:00,
2013-09-29 08:01:00,64.2,64.2,29.97,NNW,330,5.0,6.0,100,0.00,,CLR,0.00,VWS V14.01,2013-09-29 12:01:00,
2013-09-29 08:02:00,64.2,64.2,29.97,NNW,336,5.0,7.0,100,0.00,,,0.00,VWS V14.01,2013-09-29 12:02:00,
2013-09-29 08:03:00,64.2,64.2,29.97,North,355,5.0,6.0,100,0.00,,,0.00,VWS V14.01,2013-09-29 12:03:00,
2013-09-29 08:04:00,64.2,64.2,29.97,NE,36,4.0,5.0,100,0.00,,,0.00,VWS V14.01,2013-09-29 12:04:00,
2013-09-29 08:05:00,64.2,64.2,29.97,North,355,4.0,5.0,100,0.00,,,0.00,VWS V14.01,2013-09-29 12:05:00,
2013-09-29 08:06:00,64.3,64.3,29.85,NNW,342,9.0,9.0,100,0.00,,CLR,0.00,VWS V14.01,2013-09-29 12:06:00,
2013-09-29 08:07:00,64.2,64.2,29.85,North,360,3.0,6.0,100,0.00,,,0.00,VWS V14.01,2013-09-29 12:07:00,
2013-09-29 08:08:00,64.3,64.3,29.85,NNW,332,6.0,9.0,100,0.00,,,0.00,VWS V14.01,2013-09-29 12:08:00,
2013-09-29 08:09:00,64.3,64.3,30.02,NNW,327,9.0,9.0,100,0.00,,,0.00,VWS V14.01,2013-09-29 12:09:00,
2013-09-29 08:10:00,64.3,64.3,30.02,North,9,3.0,9.0,100,0.00,,,0.00,VWS V14.01,2013-09-29 12:10:00,
2013-09-29 08:11:00,64.3,64.3,30.02,NW,319,5.0,5.0,100,0.00,,CLR,0.00,VWS V14.01,2013-09-29 12:11:00,
2013-09-29 08:12:00,64.3,64.3,30.02,NNW,345,3.0,5.0,100,0.00,,,0.00,VWS V14.01,2013-09-29 12:12:00,
2013-09-29 08:13:00,64.3,64.3,30.02,NW,319,5.0,5.0,100,0.00,,,0.00,VWS V14.01,2013-09-29 12:13:00,
2013-09-29 08:14:00,64.3,64.3,30.02,NNE,31,6.0,6.0,100,0.00,,,0.00,VWS V14.01,2013-09-29 12:14:00,
2013-09-29 08:15:00,64.3,64.3,30.02,North,360,6.0,6.0,100,0.00,,,0.00,VWS V14.01,2013-09-29 12:15:00,
2013-09-29 08:16:00,64.5,64.5,29.84,NE,35,3.0,5.0,100,0.00,,CLR,0.00,VWS V14.01,2013-09-29 12:16:00,
2013-09-29 08:17:00,64.3,64.3,29.84,NNE,15,4.0,7.0,100,0.00,,,0.00,VWS V14.01,2013-09-29 12:17:00,
2013-09-29 08:18:00,64.5,64.5,29.84,North,355,2.0,9.0,100,0.00,,,0.00,VWS V14.01,2013-09-29 12:18:00,
2013-09-29 08:19:00,64.5,64.5,29.84,NNW,332,3.0,4.0,100,0.00,,,0.00,VWS V14.01,2013-09-29 12:19:00,
2013-09-29 08:20:00,64.5,64.5,29.84,NNW,348,3.0,3.0,100,0.00,,,0.00,VWS V14.01,2013-09-29 12:20:00,
2013-09-29 08:21:00,64.5,64.5,29.84,NNW,335,4.0,10.0,100,0.00,,CLR,0.00,VWS V14.01,2013-09-29 12:21:00,
2013-09-29 08:22:00,64.5,64.5,29.84,NW,312,10.0,10.0,100,0.00,,,0.00,VWS V14.01,2013-09-29 12:22:00,
2013-09-29 08:23:00,64.5,64.5,29.84,North,355,2.0,10.0,100,0.00,,,0.00,VWS V14.01,2013-09-29 12:23:00,
2013-09-29 08:24:00,64.5,64.5,29.84,North,355,9.0,12.0,100,0.00,,,0.00,VWS V14.01,2013-09-29 12:24:00,
2013-09-29 08:25:00,64.5,64.5,29.84,NE,43,2.0,9.0,100,0.00,,,0.00,VWS V14.01,2013-09-29 12:25:00,
2013-09-29 08:26:00,64.5,64.5,29.93,North,5,4.0,5.0,100,0.00,,CLR,0.00,VWS V14.01,2013-09-29 12:26:00,
2013-09-29 08:27:00,64.5,64.5,29.93,North,5,5.0,7.0,100,0.00,,,0.00,VWS V14.01,2013-09-29 12:27:00,
2013-09-29 08:28:00,64.5,64.5,29.93,NNW,348,3.0,9.0,100,0.00,,,0.00,VWS V14.01,2013-09-29 12:28:00,
2013-09-29 08:29:00,64.7,64.7,30.06,NE,34,4.0,4.0,100,0.00,,,0.00,VWS V14.01,2013-09-29 12:29:00,
2013-09-29 08:30:00,64.7,64.7,30.06,ENE,59,7.0,7.0,100,0.00,,,0.00,VWS V14.01,2013-09-29 12:30:00,
2013-09-29 08:31:00,64.7,64.7,30.06,NNW,331,5.0,7.0,100,0.00,,CLR,0.00,VWS V14.01,2013-09-29 12:31:00,
2013-09-29 08:32:00,64.7,64.7,30.06,WNW,300,7.0,7.0,100,0.00,,,0.00,VWS V14.01,2013-09-29 12:32:00,
2013-09-29 08:33:00,64.7,64.7,30.06,NNE,13,5.0,7.0,100,0.00,,,0.00,VWS V14.01,2013-09-29 12:33:00,
2013-09-29 08:34:00,64.7,64.7,30.03,NNE,17,5.0,9.0,100,0.00,,,0.00,VWS V14.01,2013-09-29 12:34:00,
2013-09-29 08:35:00,64.8,64.8,30.03,NW,325,5.0,5.0,100,0.00,,,0.00,VWS V14.01,2013-09-29 12:35:00,
2013-09-29 08:36:00,64.8,64.8,30.06,NNW,331,6.0,6.0,100,0.00,,CLR,0.00,VWS V14.01,2013-09-29 12:36:00,
2013-09-29 08:37:00,64.8,64.8,30.06,NNW,343,4.0,6.0,100,0.00,,,0.00,VWS V14.01,2013-09-29 12:37:00,
2013-09-29 08:38:00,64.8,64.8,30.06,North,5,4.0,6.0,100,0.00,,,0.00,VWS V14.01,2013-09-29 12:38:00,
2013-09-29 08:39:00,64.8,64.8,30.06,North,5,3.0,5.0,100,0.00,,,0.00,VWS V14.01,2013-09-29 12:39:00,
2013-09-29 08:40:00,65.0,65.0,30.06,ENE,74,5.0,5.0,100,0.00,,,0.00,VWS V14.01,2013-09-29 12:40:00,
2013-09-29 08:41:00,65.0,65.0,30.06,NNW,343,3.0,9.0,100,0.00,,CLR,0.00,VWS V14.01,2013-09-29 12:41:00,
2013-09-29 08:42:00,65.0,65.0,30.06,NNW,332,9.0,9.0,100,0.00,,,0.00,VWS V14.01,2013-09-29 12:42:00,
2013-09-29 08:43:00,65.0,65.0,30.06,NNE,30,4.0,9.0,100,0.00,,,0.00,VWS V14.01,2013-09-29 12:43:00,
2013-09-29 08:44:00,65.2,65.2,30.06,North,5,3.0,7.0,100,0.00,,,0.00,VWS V14.01,2013-09-29 12:44:00,
2013-09-29 08:45:00,65.2,65.2,29.65,North,5,3.0,7.0,100,0.00,,,0.00,VWS V14.01,2013-09-29 12:45:00,
2013-09-29 08:46:00,65.2,65.2,29.65,WNW,292,6.0,8.0,100,0.00,,CLR,0.00,VWS V14.01,2013-09-29 12:46:00,
2013-09-29 08:47:00,65.2,65.2,29.65,North,355,5.0,10.0,100,0.00,,,0.00,VWS V14.01,2013-09-29 12:47:00,
2013-09-29 08:48:00,65.2,65.2,29.65,NW,318,7.0,8.0,100,0.00,,,0.00,VWS V14.01,2013-09-29 12:48:00,
2013-09-29 08:49:00,65.2,65.2,29.65,NNW,343,9.0,9.0,100,0.00,,,0.00,VWS V14.01,2013-09-29 12:49:00,
2013-09-29 08:50:00,65.2,65.2,29.65,NNW,339,9.0,9.0,100,0.00,,,0.00,VWS V14.01,2013-09-29 12:50:00,
2013-09-29 08:51:00,65.2,65.2,29.65,North,360,4.0,6.0,100,0.00,,CLR,0.00,VWS V14.01,2013-09-29 12:51:00,
2013-09-29 08:52:00,65.2,65.2,29.65,NNW,329,6.0,10.0,100,0.00,,,0.00,VWS V14.01,2013-09-29 12:52:00,
2013-09-29 08:53:00,65.2,65.2,29.65,North,355,5.0,6.0,100,0.00,,,0.00,VWS V14.01,2013-09-29 12:53:00,
2013-09-29 08:54:00,65.2,65.2,29.65,NNE,33,5.0,6.0,100,0.00,,,0.00,VWS V14.01,2013-09-29 12:54:00,
2013-09-29 08:55:00,65.3,65.3,29.65,NE,37,5.0,6.0,100,0.00,,,0.00,VWS V14.01,2013-09-29 12:55:00,
2013-09-29 08:56:00,65.3,65.3,29.65,NE,42,7.0,8.0,100,0.00,,CLR,0.00,VWS V14.01,2013-09-29 12:56:00,
2013-09-29 08:57:00,65.3,65.3,29.65,NNW,331,7.0,7.0,100,0.00,,,0.00,VWS V14.01,2013-09-29 12:57:00,
2013-09-29 08:58:00,65.5,65.5,29.65,North,11,3.0,8.0,100,0.00,,,0.00,VWS V14.01,2013-09-29 12:58:00,
2013-09-29 08:59:00,65.5,65.5,29.65,NE,40,5.0,5.0,100,0.00,,,0.00,VWS V14.01,2013-09-29 12:59:00,
2013-09-29 09:00:00,65.6,65.6,29.65,North,360,6.0,6.0,100,0.00,,,0.00,VWS V14.01,2013-09-29 13:00:00,
2013-09-29 09:01:00,65.6,65.6,29.65,NNW,342,3.0,3.0,100,0.00,,CLR,0.00,VWS V14.01,2013-09-29 13:01:00,
2013-09-29 09:02:00,65.6,65.6,29.65,North,5,3.0,9.0,100,0.00,,,0.00,VWS V14.01,2013-09-29 13:02:00,
2013-09-29 09:03:00,65.8,65.8,29.65,North,355,3.0,3.0,100,0.00,,,0.00,VWS V14.01,2013-09-29 13:03:00,
2013-09-29 09:04:00,65.8,65.8,29.64,NNW,342,3.0,6.0,100,0.00,,,0.00,VWS V14.01,2013-09-29 13:04:00,
2013-09-29 09:05:00,65.8,65.8,29.62,NNE,27,3.0,6.0,100,0.00,,,0.00,VWS V14.01,2013-09-29 13:05:00,
2013-09-29 09:06:00,66.0,66.0,29.62,NNW,343,9.0,9.0,100,0.00,,CLR,0.00,VWS V14.01,2013-09-29 13:06:00,
2013-09-29 09:07:00,66.0,66.0,29.62,NNW,332,5.0,6.0,100,0.00,,,0.00,VWS V14.01,2013-09-29 13:07:00,
2013-09-29 09:08:00,66.0,66.0,29.62,NNW,329,8.0,9.0,100,0.00,,,0.00,VWS V14.01,2013-09-29 13:08:00,
2013-09-29 09:09:00,66.0,66.0,29.62,NE,40,9.0,9.0,100,0.00,,,0.00,VWS V14.01,2013-09-29 13:09:00,
2013-09-29 09:10:00,66.1,66.1,29.62,NNW,333,6.0,9.0,100,0.00,,,0.00,VWS V14.01,2013-09-29 13:10:00,
2013-09-29 09:11:00,66.1,66.1,29.62,NNE,17,5.0,5.0,100,0.00,,CLR,0.00,VWS V14.01,2013-09-29 13:11:00,
2013-09-29 09:12:00,66.1,65.8,29.62,NNW,336,5.0,7.0,99,0.00,,,0.00,VWS V14.01,2013-09-29 13:12:00,
2013-09-29 09:13:00,66.1,66.1,29.62,ENE,67,5.0,8.0,100,0.00,,,0.00,VWS V14.01,2013-09-29 13:13:00,
2013-09-29 09:14:00,66.1,66.1,29.51,NNE,30,3.0,10.0,100,0.00,,,0.00,VWS V14.01,2013-09-29 13:14:00,
2013-09-29 09:15:00,66.3,66.0,29.51,North,355,6.0,7.0,99,0.00,,,0.00,VWS V14.01,2013-09-29 13:15:00,
2013-09-29 09:16:00,66.4,66.1,29.46,North,355,5.0,5.0,99,0.00,,CLR,0.00,VWS V14.01,2013-09-29 13:16:00,
2013-09-29 09:17:00,66.3,66.3,29.51,North,9,5.0,6.0,100,0.00,,CLR,0.00,VWS V14.01,2013-09-29 13:17:00,
2013-09-29 09:18:00,66.4,66.1,29.46,NNW,329,6.0,6.0,99,0.00,,,0.00,VWS V14.01,2013-09-29 13:18:00,
2013-09-29 09:19:00,66.4,66.1,29.46,NNW,338,5.0,6.0,99,0.00,,,0.00,VWS V14.01,2013-09-29 13:19:00,
2013-09-29 09:20:00,66.4,66.1,29.46,North,10,3.0,6.0,99,0.00,,,0.00,VWS V14.01,2013-09-29 13:20:00,
2013-09-29 09:21:00,66.6,66.3,29.46,ENE,61,1.0,2.0,99,0.00,,CLR,0.00,VWS V14.01,2013-09-29 13:21:00,
2013-09-29 09:22:00,66.6,66.3,29.46,North,355,2.0,6.0,99,0.00,,,0.00,VWS V14.01,2013-09-29 13:22:00,
2013-09-29 09:23:00,66.8,66.5,29.46,NNW,336,3.0,3.0,99,0.00,,,0.00,VWS V14.01,2013-09-29 13:23:00,
2013-09-29 09:24:00,66.8,66.5,29.62,North,5,1.0,4.0,99,0.00,,,0.00,VWS V14.01,2013-09-29 13:24:00,
2013-09-29 09:25:00,66.9,66.6,29.62,NW,306,5.0,6.0,99,0.00,,,0.00,VWS V14.01,2013-09-29 13:25:00,
2013-09-29 09:26:00,66.9,66.3,29.62,NE,48,8.0,8.0,98,0.00,,CLR,0.00,VWS V14.01,2013-09-29 13:26:00,
2013-09-29 09:27:00,66.9,66.3,29.62,North,351,7.0,7.0,98,0.00,,,0.00,VWS V14.01,2013-09-29 13:27:00,
2013-09-29 09:28:00,67.1,66.5,29.62,NE,55,1.0,8.0,98,0.00,,,0.00,VWS V14.01,2013-09-29 13:28:00,
2013-09-29 09:29:00,67.1,66.8,29.62,NNW,348,6.0,6.0,99,0.00,,,0.00,VWS V14.01,2013-09-29 13:29:00,
2013-09-29 09:30:00,67.1,66.5,29.62,ENE,69,1.0,6.0,98,0.00,,,0.00,VWS V14.01,2013-09-29 13:30:00,
2013-09-29 09:31:00,67.4,67.1,29.62,North,5,3.0,5.0,99,0.00,,CLR,0.00,VWS V14.01,2013-09-29 13:31:00,
2013-09-29 09:32:00,67.4,67.1,29.62,NE,51,5.0,6.0,99,0.00,,,0.00,VWS V14.01,2013-09-29 13:32:00,
2013-09-29 09:33:00,67.4,66.8,29.62,NNW,330,9.0,9.0,98,0.00,,,0.00,VWS V14.01,2013-09-29 13:33:00,
2013-09-29 09:34:00,67.6,67.0,29.62,NNE,13,1.0,9.0,98,0.00,,,0.00,VWS V14.01,2013-09-29 13:34:00,
2013-09-29 09:35:00,67.6,66.7,29.62,WNW,295,6.0,8.0,97,0.00,,,0.00,VWS V14.01,2013-09-29 13:35:00,
2013-09-29 09:36:00,67.8,66.9,29.39,NNW,342,4.0,4.0,97,0.00,,CLR,0.00,VWS V14.01,2013-09-29 13:36:00,
2013-09-29 09:37:00,67.8,66.9,29.39,NNW,336,4.0,7.0,97,0.00,,,0.00,VWS V14.01,2013-09-29 13:37:00,
2013-09-29 09:38:00,67.8,66.6,29.39,North,11,6.0,6.0,96,0.00,,,0.00,VWS V14.01,2013-09-29 13:38:00,
2013-09-29 09:39:00,67.8,66.6,29.39,NW,312,5.0,6.0,96,0.00,,,0.00,VWS V14.01,2013-09-29 13:39:00,
2013-09-29 09:40:00,67.9,66.7,29.39,NNW,342,5.0,9.0,96,0.00,,,0.00,VWS V14.01,2013-09-29 13:40:00,
2013-09-29 09:41:00,67.9,66.7,29.39,NE,40,3.0,6.0,96,0.00,,CLR,0.00,VWS V14.01,2013-09-29 13:41:00,
2013-09-29 09:42:00,67.9,66.7,29.39,NNE,28,6.0,7.0,96,0.00,,,0.00,VWS V14.01,2013-09-29 13:42:00,
2013-09-29 09:43:00,68.1,66.9,29.39,NE,56,2.0,11.0,96,0.00,,,0.00,VWS V14.01,2013-09-29 13:43:00,
2013-09-29 09:44:00,68.1,66.6,29.39,NE,55,7.0,9.0,95,0.00,,,0.00,VWS V14.01,2013-09-29 13:44:00,
2013-09-29 09:45:00,68.1,66.6,29.39,NNW,335,4.0,10.0,95,0.00,,,0.00,VWS V14.01,2013-09-29 13:45:00,
2013-09-29 09:46:00,68.3,66.8,29.59,NNW,328,6.0,6.0,95,0.00,,CLR,0.00,VWS V14.01,2013-09-29 13:46:00,
2013-09-29 09:47:00,68.3,66.8,29.59,NE,42,2.0,6.0,95,0.00,,,0.00,VWS V14.01,2013-09-29 13:47:00,
2013-09-29 09:48:00,68.3,66.8,29.59,North,5,1.0,6.0,95,0.00,,,0.00,VWS V14.01,2013-09-29 13:48:00,
2013-09-29 09:49:00,68.4,66.9,29.59,NW,318,6.0,6.0,95,0.00,,,0.00,VWS V14.01,2013-09-29 13:49:00,
2013-09-29 09:50:00,68.4,66.9,29.59,ENE,69,5.0,6.0,95,0.00,,,0.00,VWS V14.01,2013-09-29 13:50:00,
2013-09-29 09:51:00,68.6,66.8,29.59,ENE,61,2.0,6.0,94,0.00,,CLR,0.00,VWS V14.01,2013-09-29 13:51:00,
2013-09-29 09:52:00,68.6,67.1,29.59,NE,51,6.0,7.0,95,0.00,,,0.00,VWS V14.01,2013-09-29 13:52:00,
2013-09-29 09:53:00,68.6,66.8,29.59,NNE,15,5.0,6.0,94,0.00,,,0.00,VWS V14.01,2013-09-29 13:53:00,
2013-09-29 09:54:00,68.8,67.0,29.59,NNW,348,7.0,8.0,94,0.00,,,0.00,VWS V14.01,2013-09-29 13:54:00,
2013-09-29 09:55:00,68.8,66.7,29.59,North,11,3.0,9.0,93,0.00,,,0.00,VWS V14.01,2013-09-29 13:55:00,
2013-09-29 09:56:00,68.9,66.8,29.37,NW,317,9.0,11.0,93,0.00,,CLR,0.00,VWS V14.01,2013-09-29 13:56:00,
2013-09-29 09:57:00,68.9,66.8,29.37,NE,40,7.0,7.0,93,0.00,,,0.00,VWS V14.01,2013-09-29 13:57:00,
2013-09-29 09:58:00,68.9,66.8,29.37,North,5,5.0,11.0,93,0.00,,,0.00,VWS V14.01,2013-09-29 13:58:00,
2013-09-29 09:59:00,68.9,66.5,29.37,NE,48,5.0,6.0,92,0.00,,,0.00,VWS V14.01,2013-09-29 13:59:00,
2013-09-29 10:00:00,68.9,66.5,29.37,NE,43,3.0,10.0,92,0.00,,,0.00,VWS V14.01,2013-09-29 14:00:00,
2013-09-29 10:01:00,69.1,66.4,29.36,NNW,344,7.0,9.0,91,0.00,,CLR,0.00,VWS V14.01,2013-09-29 14:01:00,
2013-09-29 10:02:00,69.1,66.7,29.36,NNE,13,9.0,9.0,92,0.00,,,0.00,VWS V14.01,2013-09-29 14:02:00,
2013-09-29 10:03:00,69.1,66.4,29.36,NW,317,6.0,10.0,91,0.00,,,0.00,VWS V14.01,2013-09-29 14:03:00,
2013-09-29 10:04:00,69.3,66.6,29.36,North,355,4.0,6.0,91,0.00,,,0.00,VWS V14.01,2013-09-29 14:04:00,
2013-09-29 10:05:00,69.3,66.9,29.36,NE,40,7.0,7.0,92,0.00,,,0.00,VWS V14.01,2013-09-29 14:05:00,
2013-09-29 10:06:00,69.4,66.7,29.36,NE,51,3.0,5.0,91,0.00,,CLR,0.00,VWS V14.01,2013-09-29 14:06:00,
2013-09-29 10:07:00,69.4,66.7,29.36,NE,51,5.0,7.0,91,0.00,,,0.00,VWS V14.01,2013-09-29 14:07:00,
2013-09-29 10:08:00,69.4,66.7,29.36,NE,36,10.0,10.0,91,0.00,,,0.00,VWS V14.01,2013-09-29 14:08:00,
2013-09-29 10:09:00,69.6,66.9,29.36,ENE,57,2.0,10.0,91,0.00,,,0.00,VWS V14.01,2013-09-29 14:09:00,
2013-09-29 10:10:00,69.6,66.9,29.36,NNW,334,6.0,7.0,91,0.00,,,0.00,VWS V14.01,2013-09-29 14:10:00,
2013-09-29 10:11:00,69.6,66.2,29.36,NW,319,5.0,5.0,89,0.00,,CLR,0.00,VWS V14.01,2013-09-29 14:11:00,
2013-09-29 10:12:00,69.8,66.4,29.36,NE,34,4.0,10.0,89,0.00,,,0.00,VWS V14.01,2013-09-29 14:12:00,
2013-09-29 10:13:00,69.6,66.2,29.36,North,355,9.0,9.0,89,0.00,,,0.00,VWS V14.01,2013-09-29 14:13:00,
2013-09-29 10:14:00,69.8,66.4,29.36,NE,42,3.0,9.0,89,0.00,,,0.00,VWS V14.01,2013-09-29 14:14:00,
2013-09-29 10:15:00,69.8,66.4,29.36,NW,324,3.0,5.0,89,0.00,,,0.00,VWS V14.01,2013-09-29 14:15:00,
2013-09-29 10:16:00,69.8,66.1,28.72,NE,34,3.0,4.0,88,0.00,,CLR,0.00,VWS V14.01,2013-09-29 14:16:00,
2013-09-29 10:17:00,69.8,66.1,28.72,NNW,328,4.0,8.0,88,0.00,,,0.00,VWS V14.01,2013-09-29 14:17:00,
2013-09-29 10:18:00,69.8,66.1,28.72,North,355,2.0,5.0,88,0.00,,,0.00,VWS V14.01,2013-09-29 14:18:00,
2013-09-29 10:19:00,69.9,66.2,28.72,North,360,5.0,5.0,88,0.00,,,0.00,VWS V14.01,2013-09-29 14:19:00,
2013-09-29 10:20:00,69.9,66.2,28.72,NW,326,6.0,6.0,88,0.00,,,0.00,VWS V14.01,2013-09-29 14:20:00,
2013-09-29 10:21:00,69.9,65.9,28.72,NE,38,11.0,11.0,87,0.00,,CLR,0.00,VWS V14.01,2013-09-29 14:21:00,
2013-09-29 10:22:00,69.9,65.9,28.72,NNE,28,6.0,11.0,87,0.00,,,0.00,VWS V14.01,2013-09-29 14:22:00,
2013-09-29 10:23:00,69.9,65.5,28.72,North,360,5.0,11.0,86,0.00,,,0.00,VWS V14.01,2013-09-29 14:23:00,
2013-09-29 10:24:00,69.9,65.2,28.72,ENE,69,6.0,7.0,85,0.00,,,0.00,VWS V14.01,2013-09-29 14:24:00,
2013-09-29 10:25:00,70.1,65.4,28.72,NE,39,4.0,7.0,85,0.00,,,0.00,VWS V14.01,2013-09-29 14:25:00,
2013-09-29 10:26:00,70.4,66.0,28.72,North,5,11.0,11.0,86,0.00,,CLR,0.00,VWS V14.01,2013-09-29 14:26:00,
2013-09-29 10:27:00,70.3,65.9,28.72,North,350,5.0,6.0,86,0.00,,,0.00,VWS V14.01,2013-09-29 14:27:00,
2013-09-29 10:28:00,70.4,65.7,28.72,NNE,26,7.0,11.0,85,0.00,,,0.00,VWS V14.01,2013-09-29 14:28:00,
2013-09-29 10:29:00,70.4,65.7,28.72,NNE,32,4.0,10.0,85,0.00,,,0.00,VWS V14.01,2013-09-29 14:29:00,
2013-09-29 10:30:00,70.4,65.7,28.72,North,5,4.0,7.0,85,0.00,,,0.00,VWS V14.01,2013-09-29 14:30:00,
2013-09-29 10:31:00,70.8,66.1,28.72,NNW,328,3.0,11.0,85,0.00,,CLR,0.00,VWS V14.01,2013-09-29 14:31:00,
2013-09-29 10:32:00,70.6,65.9,28.72,North,5,11.0,11.0,85,0.00,,,0.00,VWS V14.01,2013-09-29 14:32:00,
2013-09-29 10:33:00,70.8,66.1,28.72,NW,311,4.0,11.0,85,0.00,,,0.00,VWS V14.01,2013-09-29 14:33:00,
2013-09-29 10:34:00,70.8,66.1,28.72,NE,46,4.0,5.0,85,0.00,,,0.00,VWS V14.01,2013-09-29 14:34:00,
2013-09-29 10:35:00,70.9,66.2,28.72,NNW,342,5.0,5.0,85,0.00,,,0.00,VWS V14.01,2013-09-29 14:35:00,
2013-09-29 10:36:00,71.1,66.0,28.72,NNW,348,7.0,9.0,84,0.00,,CLR,0.00,VWS V14.01,2013-09-29 14:36:00,
2013-09-29 10:37:00,71.1,66.4,28.72,NNE,13,8.0,8.0,85,0.00,,,0.00,VWS V14.01,2013-09-29 14:37:00,
2013-09-29 10:38:00,71.1,66.0,28.72,NNW,339,6.0,11.0,84,0.00,,,0.00,VWS V14.01,2013-09-29 14:38:00,
2013-09-29 10:39:00,71.1,66.0,28.72,NNW,338,6.0,6.0,84,0.00,,,0.00,VWS V14.01,2013-09-29 14:39:00,
2013-09-29 10:40:00,70.9,65.8,28.72,NNW,344,5.0,10.0,84,0.00,,,0.00,VWS V14.01,2013-09-29 14:40:00,
2013-09-29 10:41:00,71.1,66.0,28.72,NNE,33,3.0,6.0,84,0.00,,CLR,0.00,VWS V14.01,2013-09-29 14:41:00,
2013-09-29 10:42:00,71.1,66.0,28.72,NNW,338,6.0,9.0,84,0.00,,,0.00,VWS V14.01,2013-09-29 14:42:00,
2013-09-29 10:43:00,71.1,66.0,28.72,North,360,6.0,6.0,84,0.00,,,0.00,VWS V14.01,2013-09-29 14:43:00,
2013-09-29 10:44:00,71.1,66.0,28.72,NE,41,6.0,11.0,84,0.00,,,0.00,VWS V14.01,2013-09-29 14:44:00,
2013-09-29 10:45:00,71.1,65.7,28.72,NNE,24,6.0,11.0,83,0.00,,,0.00,VWS V14.01,2013-09-29 14:45:00,
2013-09-29 10:46:00,71.5,66.1,28.72,NNE,22,4.0,4.0,83,0.00,,CLR,0.00,VWS V14.01,2013-09-29 14:46:00,
2013-09-29 10:47:00,71.3,65.9,28.72,NNE,30,2.0,6.0,83,0.00,,,0.00,VWS V14.01,2013-09-29 14:47:00,
2013-09-29 10:48:00,71.5,66.1,28.72,NE,55,4.0,5.0,83,0.00,,,0.00,VWS V14.01,2013-09-29 14:48:00,
2013-09-29 10:49:00,71.6,66.2,28.72,NNE,23,8.0,8.0,83,0.00,,,0.00,VWS V14.01,2013-09-29 14:49:00,
2013-09-29 10:50:00,71.6,65.8,28.72,North,360,7.0,9.0,82,0.00,,,0.00,VWS V14.01,2013-09-29 14:50:00,
2013-09-29 10:51:00,71.5,65.7,28.72,NE,40,3.0,3.0,82,0.00,,CLR,0.00,VWS V14.01,2013-09-29 14:51:00,
2013-09-29 10:52:00,71.5,65.4,28.72,NNE,18,3.0,6.0,81,0.00,,,0.00,VWS V14.01,2013-09-29 14:52:00,
2013-09-29 10:53:00,71.6,65.8,28.72,NE,38,9.0,9.0,82,0.00,,,0.00,VWS V14.01,2013-09-29 14:53:00,
2013-09-29 10:54:00,71.6,65.8,28.92,NW,309,3.0,9.0,82,0.00,,,0.00,VWS V14.01,2013-09-29 14:54:00,
2013-09-29 10:55:00,71.6,65.8,28.92,NNE,18,8.0,10.0,82,0.00,,,0.00,VWS V14.01,2013-09-29 14:55:00,
2013-09-29 10:56:00,71.6,65.5,28.92,NE,35,3.0,6.0,81,0.00,,CLR,0.00,VWS V14.01,2013-09-29 14:56:00,
2013-09-29 10:57:00,71.6,65.5,28.92,ENE,58,6.0,6.0,81,0.00,,,0.00,VWS V14.01,2013-09-29 14:57:00,
2013-09-29 10:58:00,71.8,65.7,28.92,WNW,297,9.0,9.0,81,0.00,,,0.00,VWS V14.01,2013-09-29 14:58:00,
2013-09-29 10:59:00,71.6,65.5,28.95,NNE,15,4.0,9.0,81,0.00,,,0.00,VWS V14.01,2013-09-29 14:59:00,
2013-09-29 11:00:00,71.8,65.7,28.95,NE,39,4.0,7.0,81,0.00,,,0.00,VWS V14.01,2013-09-29 15:00:00,
2013-09-29 11:01:00,71.8,65.3,28.95,NE,34,2.0,3.0,80,0.00,,CLR,0.00,VWS V14.01,2013-09-29 15:01:00,
2013-09-29 11:02:00,71.8,65.3,28.95,NNE,21,3.0,10.0,80,0.00,,,0.00,VWS V14.01,2013-09-29 15:02:00,
2013-09-29 11:03:00,72.0,65.9,28.95,NE,50,4.0,4.0,81,0.00,,,0.00,VWS V14.01,2013-09-29 15:03:00,
2013-09-29 11:04:00,72.1,65.6,28.95,ENE,69,4.0,9.0,80,0.00,,,0.00,VWS V14.01,2013-09-29 15:04:00,
2013-09-29 11:05:00,72.1,65.6,28.95,NNE,29,3.0,5.0,80,0.00,,,0.00,VWS V14.01,2013-09-29 15:05:00,
2013-09-29 11:06:00,72.3,65.8,28.95,NE,49,5.0,11.0,80,0.00,,CLR,0.00,VWS V14.01,2013-09-29 15:06:00,
2013-09-29 11:07:00,72.3,65.8,28.95,ENE,61,5.0,6.0,80,0.00,,,0.00,VWS V14.01,2013-09-29 15:07:00,
2013-09-29 11:08:00,72.3,65.4,28.95,NE,56,13.0,13.0,79,0.00,,,0.00,VWS V14.01,2013-09-29 15:08:00,
2013-09-29 11:09:00,72.3,65.1,28.95,NE,47,4.0,13.0,78,0.00,,,0.00,VWS V14.01,2013-09-29 15:09:00,
2013-09-29 11:10:00,72.5,65.6,28.95,ENE,64,6.0,7.0,79,0.00,,,0.00,VWS V14.01,2013-09-29 15:10:00,
2013-09-29 11:11:00,72.5,65.6,28.95,NE,49,5.0,13.0,79,0.00,,CLR,0.00,VWS V14.01,2013-09-29 15:11:00,
2013-09-29 11:12:00,72.5,65.6,28.95,ENE,61,10.0,10.0,79,0.00,,,0.00,VWS V14.01,2013-09-29 15:12:00,
2013-09-29 11:13:00,72.5,65.6,28.95,NE,44,5.0,13.0,79,0.00,,,0.00,VWS V14.01,2013-09-29 15:13:00,
2013-09-29 11:14:00,72.5,65.6,28.95,NE,40,8.0,8.0,79,0.00,,,0.00,VWS V14.01,2013-09-29 15:14:00,
2013-09-29 11:15:00,72.7,65.8,28.95,NE,36,11.0,11.0,79,0.00,,,0.00,VWS V14.01,2013-09-29 15:15:00,
2013-09-29 11:16:00,72.3,65.1,28.95,NE,35,9.0,12.0,78,0.00,,CLR,0.00,VWS V14.01,2013-09-29 15:16:00,
2013-09-29 11:17:00,72.5,65.3,28.95,NE,47,12.0,12.0,78,0.00,,,0.00,VWS V14.01,2013-09-29 15:17:00,
2013-09-29 11:18:00,72.3,65.1,28.95,NE,51,11.0,12.0,78,0.00,,,0.00,VWS V14.01,2013-09-29 15:18:00,
2013-09-29 11:19:00,72.3,65.1,28.95,ENE,65,13.0,13.0,78,0.00,,,0.00,VWS V14.01,2013-09-29 15:19:00,
2013-09-29 11:20:00,72.3,65.1,28.95,NE,39,4.0,13.0,78,0.00,,,0.00,VWS V14.01,2013-09-29 15:20:00,
2013-09-29 11:21:00,72.5,66.0,28.95,North,5,3.0,6.0,80,0.00,,CLR,0.00,VWS V14.01,2013-09-29 15:21:00,
2013-09-29 11:22:00,72.5,66.0,28.95,NNW,336,6.0,6.0,80,0.00,,,0.00,VWS V14.01,2013-09-29 15:22:00,
2013-09-29 11:23:00,72.7,66.2,28.95,North,360,6.0,6.0,80,0.00,,,0.00,VWS V14.01,2013-09-29 15:23:00,
2013-09-29 11:24:00,72.5,65.6,28.95,North,355,5.0,10.0,79,0.00,,,0.00,VWS V14.01,2013-09-29 15:24:00,
2013-09-29 11:25:00,72.5,65.6,28.95,NE,34,4.0,10.0,79,0.00,,,0.00,VWS V14.01,2013-09-29 15:25:00,
2013-09-29 11:26:00,72.5,66.7,28.95,NE,44,12.0,12.0,82,0.00,,CLR,0.00,VWS V14.01,2013-09-29 15:26:00,
2013-09-29 11:27:00,72.5,66.7,28.95,NNE,32,10.0,10.0,82,0.00,,,0.00,VWS V14.01,2013-09-29 15:27:00,
2013-09-29 11:28:00,72.3,65.4,28.95,ENE,66,4.0,12.0,79,0.00,,,0.00,VWS V14.01,2013-09-29 15:28:00,
2013-09-29 11:29:00,72.5,66.0,28.95,ENE,63,4.0,5.0,80,0.00,,,0.00,VWS V14.01,2013-09-29 15:29:00,
2013-09-29 11:30:00,72.5,66.0,28.95,ENE,65,12.0,12.0,80,0.00,,,0.00,VWS V14.01,2013-09-29 15:30:00,
2013-09-29 11:31:00,72.7,65.8,28.95,ENE,65,8.0,13.0,79,0.00,,CLR,0.00,VWS V14.01,2013-09-29 15:31:00,
2013-09-29 11:32:00,72.5,65.6,28.95,ENE,57,13.0,13.0,79,0.00,,,0.00,VWS V14.01,2013-09-29 15:32:00,
2013-09-29 11:33:00,72.7,65.8,28.95,North,5,1.0,13.0,79,0.00,,,0.00,VWS V14.01,2013-09-29 15:33:00,
2013-09-29 11:34:00,72.8,66.3,28.95,ENE,58,11.0,11.0,80,0.00,,,0.00,VWS V14.01,2013-09-29 15:34:00,
2013-09-29 11:35:00,72.7,65.4,28.95,ENE,62,4.0,12.0,78,0.00,,,0.00,VWS V14.01,2013-09-29 15:35:00,
2013-09-29 11:36:00,72.8,65.9,28.95,NE,36,2.0,5.0,79,0.00,,CLR,0.00,VWS V14.01,2013-09-29 15:36:00,
2013-09-29 11:37:00,72.7,65.8,28.95,NE,36,5.0,10.0,79,0.00,,,0.00,VWS V14.01,2013-09-29 15:37:00,
2013-09-29 11:38:00,72.8,65.9,28.95,NNE,31,4.0,5.0,79,0.00,,,0.00,VWS V14.01,2013-09-29 15:38:00,
2013-09-29 11:39:00,73.0,65.4,28.95,NE,53,3.0,10.0,77,0.00,,,0.00,VWS V14.01,2013-09-29 15:39:00,
2013-09-29 11:40:00,73.0,66.1,29.47,NE,44,5.0,5.0,79,0.00,,,0.00,VWS V14.01,2013-09-29 15:40:00,
2013-09-29 11:41:00,73.0,65.7,29.33,NE,49,10.0,10.0,78,0.00,,CLR,0.00,VWS V14.01,2013-09-29 15:41:00,
2013-09-29 11:42:00,73.0,66.1,29.47,NE,43,9.0,9.0,79,0.00,,,0.00,VWS V14.01,2013-09-29 15:42:00,
2013-09-29 11:43:00,72.8,65.6,29.33,NE,50,11.0,11.0,78,0.00,,,0.00,VWS V14.01,2013-09-29 15:43:00,
2013-09-29 11:44:00,72.8,65.6,29.35,NE,51,12.0,12.0,78,0.00,,,0.00,VWS V14.01,2013-09-29 15:44:00,
2013-09-29 11:45:00,72.8,65.6,29.35,ENE,59,7.0,12.0,78,0.00,,,0.00,VWS V14.01,2013-09-29 15:45:00,
2013-09-29 11:46:00,72.5,65.3,29.35,NE,36,4.0,6.0,78,0.00,,CLR,0.00,VWS V14.01,2013-09-29 15:46:00,
2013-09-29 11:47:00,72.5,65.3,29.35,NE,49,6.0,12.0,78,0.00,,,0.00,VWS V14.01,2013-09-29 15:47:00,
2013-09-29 11:48:00,72.5,65.6,29.35,ENE,57,5.0,7.0,79,0.00,,,0.00,VWS V14.01,2013-09-29 15:48:00,
2013-09-29 11:49:00,72.7,66.2,29.35,NE,52,4.0,7.0,80,0.00,,,0.00,VWS V14.01,2013-09-29 15:49:00,
2013-09-29 11:50:00,72.7,65.8,29.35,NNE,22,8.0,8.0,79,0.00,,,0.00,VWS V14.01,2013-09-29 15:50:00,
2013-09-29 11:51:00,72.8,65.9,29.35,NE,51,5.0,5.0,79,0.00,,CLR,0.00,VWS V14.01,2013-09-29 15:51:00,
2013-09-29 11:52:00,72.8,65.9,29.35,NNE,31,5.0,6.0,79,0.00,,,0.00,VWS V14.01,2013-09-29 15:52:00,
2013-09-29 11:53:00,72.8,65.6,29.35,ENE,57,4.0,6.0,78,0.00,,,0.00,VWS V14.01,2013-09-29 15:53:00,
2013-09-29 11:54:00,73.0,65.7,29.35,ENE,60,6.0,10.0,78,0.00,,,0.00,VWS V14.01,2013-09-29 15:54:00,
2013-09-29 11:55:00,73.0,65.7,29.35,NE,55,10.0,12.0,78,0.00,,,0.00,VWS V14.01,2013-09-29 15:55:00,
2013-09-29 11:56:00,72.8,65.2,29.35,NE,50,3.0,7.0,77,0.00,,CLR,0.00,VWS V14.01,2013-09-29 15:56:00,
2013-09-29 11:57:00,72.8,65.2,29.35,ENE,57,7.0,12.0,77,0.00,,,0.00,VWS V14.01,2013-09-29 15:57:00,
2013-09-29 11:58:00,73.0,65.7,29.35,NE,49,13.0,13.0,78,0.00,,,0.00,VWS V14.01,2013-09-29 15:58:00,
2013-09-29 11:59:00,72.8,65.2,29.35,ENE,59,2.0,13.0,77,0.00,,,0.00,VWS V14.01,2013-09-29 15:59:00,
2013-09-29 12:00:00,73.0,65.7,29.35,East,83,5.0,9.0,78,0.00,,,0.00,VWS V14.01,2013-09-29 16:00:00,
2013-09-29 12:01:00,73.0,65.7,29.35,ENE,58,6.0,6.0,78,0.00,,CLR,0.00,VWS V14.01,2013-09-29 16:01:00,
2013-09-29 12:02:00,73.0,65.7,29.35,ENE,59,6.0,7.0,78,0.00,,,0.00,VWS V14.01,2013-09-29 16:02:00,
2013-09-29 12:03:00,73.0,65.7,29.43,ENE,74,2.0,6.0,78,0.00,,,0.00,VWS V14.01,2013-09-29 16:03:00,
2013-09-29 12:04:00,73.0,66.1,29.43,NE,56,5.0,5.0,79,0.00,,,0.00,VWS V14.01,2013-09-29 16:04:00,
2013-09-29 12:05:00,73.2,65.9,29.43,ENE,65,6.0,7.0,78,0.00,,,0.00,VWS V14.01,2013-09-29 16:05:00,
2013-09-29 12:06:00,73.2,65.2,29.43,ENE,60,7.0,12.0,76,0.00,,CLR,0.00,VWS V14.01,2013-09-29 16:06:00,
2013-09-29 12:07:00,73.2,65.2,29.43,NE,54,12.0,12.0,76,0.00,,,0.00,VWS V14.01,2013-09-29 16:07:00,
2013-09-29 12:08:00,73.0,65.4,29.43,NE,56,10.0,12.0,77,0.00,,,0.00,VWS V14.01,2013-09-29 16:08:00,
2013-09-29 12:09:00,73.0,65.4,29.43,NE,46,5.0,10.0,77,0.00,,,0.00,VWS V14.01,2013-09-29 16:09:00,
2013-09-29 12:10:00,73.0,65.4,29.43,NE,40,11.0,11.0,77,0.00,,,0.00,VWS V14.01,2013-09-29 16:10:00,
2013-09-29 12:11:00,73.2,65.9,29.30,NE,44,2.0,6.0,78,0.00,,CLR,0.00,VWS V14.01,2013-09-29 16:11:00,
2013-09-29 12:12:00,73.0,65.7,29.43,NE,44,6.0,6.0,78,0.00,,,0.00,VWS V14.01,2013-09-29 16:12:00,
2013-09-29 12:13:00,73.2,65.9,29.30,NE,47,4.0,6.0,78,0.00,,,0.00,VWS V14.01,2013-09-29 16:13:00,
2013-09-29 12:14:00,73.2,65.9,29.30,NE,42,10.0,10.0,78,0.00,,,0.00,VWS V14.01,2013-09-29 16:14:00,
2013-09-29 12:15:00,73.2,65.6,29.45,ENE,69,10.0,10.0,77,0.00,,,0.00,VWS V14.01,2013-09-29 16:15:00,
2013-09-29 12:16:00,73.2,65.6,29.45,NE,46,12.0,12.0,77,0.00,,CLR,0.00,VWS V14.01,2013-09-29 16:16:00,
2013-09-29 12:17:00,73.2,65.6,29.45,NE,36,8.0,12.0,77,0.00,,,0.00,VWS V14.01,2013-09-29 16:17:00,
2013-09-29 12:18:00,73.2,65.9,29.45,North,5,5.0,12.0,78,0.00,,,0.00,VWS V14.01,2013-09-29 16:18:00,
2013-09-29 12:19:00,73.2,65.6,29.45,ENE,70,10.0,10.0,77,0.00,,,0.00,VWS V14.01,2013-09-29 16:19:00,
2013-09-29 12:20:00,73.3,66.0,29.36,ENE,57,11.0,11.0,78,0.00,,,0.00,VWS V14.01,2013-09-29 16:20:00,
2013-09-29 12:21:00,73.3,65.7,29.20,ENE,61,11.0,12.0,77,0.00,,CLR,0.00,VWS V14.01,2013-09-29 16:21:00,
2013-09-29 12:22:00,73.3,65.7,29.20,ENE,65,12.0,12.0,77,0.00,,,0.00,VWS V14.01,2013-09-29 16:22:00,
2013-09-29 12:23:00,73.3,65.7,29.20,ENE,74,5.0,12.0,77,0.00,,,0.00,VWS V14.01,2013-09-29 16:23:00,
2013-09-29 12:24:00,73.3,65.7,29.20,ENE,63,14.0,14.0,77,0.00,,,0.00,VWS V14.01,2013-09-29 16:24:00,
2013-09-29 12:25:00,73.5,65.9,29.20,ENE,67,12.0,14.0,77,0.00,,,0.00,VWS V14.01,2013-09-29 16:25:00,
2013-09-29 12:26:00,73.5,65.1,29.20,ENE,60,10.0,10.0,75,0.00,,CLR,0.00,VWS V14.01,2013-09-29 16:26:00,
2013-09-29 12:27:00,73.5,65.5,29.20,ENE,68,7.0,14.0,76,0.00,,,0.00,VWS V14.01,2013-09-29 16:27:00,
2013-09-29 12:28:00,73.5,65.5,29.20,East,82,6.0,10.0,76,0.00,,,0.00,VWS V14.01,2013-09-29 16:28:00,
2013-09-29 12:29:00,73.5,65.5,29.20,NE,49,11.0,11.0,76,0.00,,,0.00,VWS V14.01,2013-09-29 16:29:00,
2013-09-29 12:30:00,73.5,65.5,29.20,ENE,68,5.0,11.0,76,0.00,,,0.00,VWS V14.01,2013-09-29 16:30:00,
2013-09-29 12:31:00,73.5,65.1,29.20,ENE,59,14.0,14.0,75,0.00,,CLR,0.00,VWS V14.01,2013-09-29 16:31:00,
2013-09-29 12:32:00,73.5,65.1,29.20,ENE,67,12.0,15.0,75,0.00,,,0.00,VWS V14.01,2013-09-29 16:32:00,
2013-09-29 12:33:00,73.5,65.1,29.20,ENE,64,4.0,14.0,75,0.00,,,0.00,VWS V14.01,2013-09-29 16:33:00,
2013-09-29 12:34:00,73.5,65.5,29.20,ENE,71,11.0,11.0,76,0.00,,,0.00,VWS V14.01,2013-09-29 16:34:00,
2013-09-29 12:35:00,73.5,65.5,29.20,NNE,32,9.0,11.0,76,0.00,,,0.00,VWS V14.01,2013-09-29 16:35:00,
2013-09-29 12:36:00,73.5,65.1,29.20,East,86,5.0,9.0,75,0.00,,CLR,0.00,VWS V14.01,2013-09-29 16:36:00,
2013-09-29 12:37:00,73.7,65.3,29.20,East,81,9.0,11.0,75,0.00,,,0.00,VWS V14.01,2013-09-29 16:37:00,
2013-09-29 12:38:00,73.5,65.1,29.20,NE,54,9.0,11.0,75,0.00,,,0.00,VWS V14.01,2013-09-29 16:38:00,
2013-09-29 12:39:00,73.5,65.5,29.20,NE,53,4.0,9.0,76,0.00,,,0.00,VWS V14.01,2013-09-29 16:39:00,
2013-09-29 12:40:00,73.7,65.3,29.20,NE,46,4.0,10.0,75,0.00,,,0.00,VWS V14.01,2013-09-29 16:40:00,
2013-09-29 12:41:00,73.7,65.7,29.38,ENE,68,5.0,11.0,76,0.00,,CLR,0.00,VWS V14.01,2013-09-29 16:41:00,
2013-09-29 12:42:00,73.7,65.7,29.20,NE,55,11.0,11.0,76,0.00,,,0.00,VWS V14.01,2013-09-29 16:42:00,
2013-09-29 12:43:00,73.9,65.9,29.38,NE,50,10.0,11.0,76,0.00,,,0.00,VWS V14.01,2013-09-29 16:43:00,
2013-09-29 12:44:00,73.7,65.3,29.38,ENE,65,11.0,12.0,75,0.00,,,0.00,VWS V14.01,2013-09-29 16:44:00,
2013-09-29 12:45:00,73.5,64.7,29.38,NE,51,9.0,11.0,74,0.00,,,0.00,VWS V14.01,2013-09-29 16:45:00,
2013-09-29 12:46:00,73.7,65.3,29.56,NE,45,10.0,10.0,75,0.00,,CLR,0.00,VWS V14.01,2013-09-29 16:46:00,
2013-09-29 12:47:00,73.7,65.3,29.56,ENE,60,6.0,11.0,75,0.00,,,0.00,VWS V14.01,2013-09-29 16:47:00,
2013-09-29 12:48:00,73.7,64.9,29.56,East,81,9.0,10.0,74,0.00,,,0.00,VWS V14.01,2013-09-29 16:48:00,
2013-09-29 12:49:00,73.7,64.9,29.56,ENE,58,13.0,13.0,74,0.00,,,0.00,VWS V14.01,2013-09-29 16:49:00,
2013-09-29 12:50:00,73.7,64.9,29.50,ENE,72,3.0,13.0,74,0.00,,,0.00,VWS V14.01,2013-09-29 16:50:00,
2013-09-29 12:51:00,73.7,64.9,29.39,NNE,22,7.0,12.0,74,0.00,,CLR,0.00,VWS V14.01,2013-09-29 16:51:00,
2013-09-29 12:52:00,73.7,64.9,29.50,NE,49,12.0,12.0,74,0.00,,,0.00,VWS V14.01,2013-09-29 16:52:00,
2013-09-29 12:53:00,73.7,64.9,29.39,NE,53,12.0,13.0,74,0.00,,,0.00,VWS V14.01,2013-09-29 16:53:00,
2013-09-29 12:54:00,73.7,64.5,29.39,ENE,61,5.0,12.0,73,0.00,,,0.00,VWS V14.01,2013-09-29 16:54:00,
2013-09-29 12:55:00,73.7,64.9,29.39,NE,39,3.0,5.0,74,0.00,,,0.00,VWS V14.01,2013-09-29 16:55:00,
2013-09-29 12:56:00,73.7,64.9,29.53,NE,55,10.0,10.0,74,0.00,,CLR,0.00,VWS V14.01,2013-09-29 16:56:00,
2013-09-29 12:57:00,73.9,65.1,29.40,NE,40,9.0,12.0,74,0.00,,,0.00,VWS V14.01,2013-09-29 16:57:00,
2013-09-29 12:58:00,73.9,65.1,29.53,ESE,121,5.0,10.0,74,0.00,,,0.00,VWS V14.01,2013-09-29 16:58:00,
2013-09-29 12:59:00,74.0,65.2,29.53,ENE,63,2.0,5.0,74,0.00,,,0.00,VWS V14.01,2013-09-29 16:59:00,
2013-09-29 13:00:00,74.2,65.8,29.53,ENE,62,6.0,6.0,75,0.00,,,0.00,VWS V14.01,2013-09-29 17:00:00,
2013-09-29 13:01:00,74.2,65.0,29.53,NE,42,5.0,5.0,73,0.00,,CLR,0.00,VWS V14.01,2013-09-29 17:01:00,
2013-09-29 13:02:00,74.2,65.0,29.53,ENE,67,4.0,6.0,73,0.00,,,0.00,VWS V14.01,2013-09-29 17:02:00,
2013-09-29 13:03:00,74.2,65.4,29.53,ENE,57,11.0,11.0,74,0.00,,,0.00,VWS V14.01,2013-09-29 17:03:00,
2013-09-29 13:04:00,74.4,65.2,29.53,NE,55,7.0,11.0,73,0.00,,,0.00,VWS V14.01,2013-09-29 17:04:00,
2013-09-29 13:05:00,74.6,65.8,29.53,ENE,64,5.0,10.0,74,0.00,,,0.00,VWS V14.01,2013-09-29 17:05:00,
2013-09-29 13:06:00,74.6,65.0,29.02,ENE,76,5.0,9.0,72,0.00,,CLR,0.00,VWS V14.01,2013-09-29 17:06:00,
2013-09-29 13:07:00,74.6,65.4,29.53,ENE,72,9.0,11.0,73,0.00,,,0.00,VWS V14.01,2013-09-29 17:07:00,
2013-09-29 13:08:00,74.6,65.0,29.02,ENE,65,6.0,9.0,72,0.00,,,0.00,VWS V14.01,2013-09-29 17:08:00,
2013-09-29 13:09:00,74.7,65.5,29.01,NE,55,11.0,11.0,73,0.00,,,0.00,VWS V14.01,2013-09-29 17:09:00,
2013-09-29 13:10:00,74.9,65.3,29.01,ENE,63,10.0,11.0,72,0.00,,,0.00,VWS V14.01,2013-09-29 17:10:00,
2013-09-29 13:11:00,74.9,65.7,29.01,East,84,4.0,5.0,73,0.00,,CLR,0.00,VWS V14.01,2013-09-29 17:11:00,
2013-09-29 13:12:00,74.7,65.1,29.01,NE,53,5.0,10.0,72,0.00,,,0.00,VWS V14.01,2013-09-29 17:12:00,
2013-09-29 13:13:00,74.9,65.7,29.01,NE,43,6.0,9.0,73,0.00,,,0.00,VWS V14.01,2013-09-29 17:13:00,
2013-09-29 13:14:00,74.9,64.9,29.01,NE,56,8.0,12.0,71,0.00,,,0.00,VWS V14.01,2013-09-29 17:14:00,
2013-09-29 13:15:00,75.1,65.1,29.01,ENE,59,2.0,8.0,71,0.00,,,0.00,VWS V14.01,2013-09-29 17:15:00,
2013-09-29 13:16:00,75.1,65.9,29.01,ENE,77,4.0,5.0,73,0.00,,CLR,0.00,VWS V14.01,2013-09-29 17:16:00,
2013-09-29 13:17:00,75.1,65.9,29.01,ENE,77,4.0,5.0,73,0.00,,,0.00,VWS V14.01,2013-09-29 17:17:00,
2013-09-29 13:18:00,75.3,66.1,28.62,NNW,338,6.0,6.0,73,0.00,,,0.00,VWS V14.01,2013-09-29 17:18:00,
2013-09-29 13:19:00,75.3,65.7,28.62,ENE,78,4.0,7.0,72,0.00,,,0.00,VWS V14.01,2013-09-29 17:19:00,
2013-09-29 13:20:00,75.3,65.7,28.62,North,355,3.0,6.0,72,0.00,,,0.00,VWS V14.01,2013-09-29 17:20:00,
2013-09-29 13:21:00,75.3,65.7,28.62,NE,51,2.0,6.0,72,0.00,,CLR,0.00,VWS V14.01,2013-09-29 17:21:00,
2013-09-29 13:22:00,75.3,65.7,28.62,NE,51,2.0,6.0,72,0.00,,,0.00,VWS V14.01,2013-09-29 17:22:00,
2013-09-29 13:23:00,75.4,65.8,28.62,East,83,8.0,8.0,72,0.00,,,0.00,VWS V14.01,2013-09-29 17:23:00,
2013-09-29 13:24:00,75.4,65.3,28.62,ENE,69,5.0,11.0,71,0.00,,,0.00,VWS V14.01,2013-09-29 17:24:00,
2013-09-29 13:25:00,75.4,65.3,28.70,ENE,66,6.0,9.0,71,0.00,,,0.00,VWS V14.01,2013-09-29 17:25:00,
2013-09-29 13:26:00,75.6,65.9,28.70,ENE,63,10.0,10.0,72,0.00,,CLR,0.00,VWS V14.01,2013-09-29 17:26:00,
2013-09-29 13:27:00,75.6,65.9,28.70,ENE,64,6.0,7.0,72,0.00,,,0.00,VWS V14.01,2013-09-29 17:27:00,
2013-09-29 13:28:00,75.4,64.9,28.70,NE,45,5.0,11.0,70,0.00,,,0.00,VWS V14.01,2013-09-29 17:28:00,
2013-09-29 13:29:00,75.4,64.9,28.70,ENE,72,12.0,12.0,70,0.00,,,0.00,VWS V14.01,2013-09-29 17:29:00,
2013-09-29 13:30:00,75.3,64.8,28.70,NE,53,5.0,12.0,70,0.00,,,0.00,VWS V14.01,2013-09-29 17:30:00,
2013-09-29 13:31:00,75.3,65.3,28.69,NE,40,6.0,6.0,71,0.00,,CLR,0.00,VWS V14.01,2013-09-29 17:31:00,
2013-09-29 13:32:00,75.3,65.3,28.69,ENE,61,5.0,9.0,71,0.00,,,0.00,VWS V14.01,2013-09-29 17:32:00,
2013-09-29 13:33:00,75.3,65.3,28.69,NE,55,4.0,10.0,71,0.00,,,0.00,VWS V14.01,2013-09-29 17:33:00,
2013-09-29 13:34:00,75.1,64.7,28.69,NE,49,9.0,9.0,70,0.00,,,0.00,VWS V14.01,2013-09-29 17:34:00,
2013-09-29 13:35:00,74.9,64.9,28.69,NNE,33,5.0,9.0,71,0.00,,,0.00,VWS V14.01,2013-09-29 17:35:00,
2013-09-29 13:36:00,74.9,64.9,28.69,NE,55,6.0,9.0,71,0.00,,CLR,0.00,VWS V14.01,2013-09-29 17:36:00,
2013-09-29 13:37:00,74.9,64.9,28.69,NE,52,9.0,10.0,71,0.00,,,0.00,VWS V14.01,2013-09-29 17:37:00,
2013-09-29 13:38:00,74.9,64.5,28.69,NE,40,3.0,9.0,70,0.00,,,0.00,VWS V14.01,2013-09-29 17:38:00,
2013-09-29 13:39:00,74.9,64.9,28.69,ENE,65,0.0,4.0,71,0.00,,,0.00,VWS V14.01,2013-09-29 17:39:00,
2013-09-29 13:40:00,74.9,64.9,28.69,ENE,63,3.0,5.0,71,0.00,,,0.00,VWS V14.01,2013-09-29 17:40:00,
2013-09-29 13:41:00,75.3,65.3,28.69,ENE,71,3.0,5.0,71,0.00,,CLR,0.00,VWS V14.01,2013-09-29 17:41:00,
2013-09-29 13:42:00,75.3,65.3,28.69,ENE,71,3.0,5.0,71,0.00,,,0.00,VWS V14.01,2013-09-29 17:42:00,
2013-09-29 13:43:00,75.4,65.3,28.69,ENE,69,4.0,7.0,71,0.00,,,0.00,VWS V14.01,2013-09-29 17:43:00,
2013-09-29 13:44:00,75.4,65.3,28.68,East,90,4.0,9.0,71,0.00,,,0.00,VWS V14.01,2013-09-29 17:44:00,
2013-09-29 13:45:00,75.6,65.5,28.68,ENE,67,3.0,10.0,71,0.00,,,0.00,VWS V14.01,2013-09-29 17:45:00,
2013-09-29 13:46:00,76.0,65.5,28.68,NE,40,9.0,9.0,70,0.00,,CLR,0.00,VWS V14.01,2013-09-29 17:46:00,
2013-09-29 13:47:00,76.0,65.5,28.68,NE,40,9.0,9.0,70,0.00,,,0.00,VWS V14.01,2013-09-29 17:47:00,
2013-09-29 13:48:00,76.0,65.1,28.68,ENE,63,3.0,9.0,69,0.00,,,0.00,VWS V14.01,2013-09-29 17:48:00,
2013-09-29 13:49:00,75.8,64.9,28.68,North,9,4.0,10.0,69,0.00,,,0.00,VWS V14.01,2013-09-29 17:49:00,
2013-09-29 13:50:00,75.8,64.9,28.68,ENE,76,9.0,10.0,69,0.00,,,0.00,VWS V14.01,2013-09-29 17:50:00,
2013-09-29 13:51:00,76.0,65.5,28.68,East,88,1.0,6.0,70,0.00,,CLR,0.00,VWS V14.01,2013-09-29 17:51:00,
2013-09-29 13:52:00,76.0,65.5,28.68,East,88,1.0,6.0,70,0.00,,,0.00,VWS V14.01,2013-09-29 17:52:00,
2013-09-29 13:53:00,76.1,66.0,28.68,ENE,76,3.0,9.0,71,0.00,,,0.00,VWS V14.01,2013-09-29 17:53:00,
2013-09-29 13:54:00,76.3,64.6,28.68,ENE,58,4.0,4.0,67,0.00,,,0.00,VWS V14.01,2013-09-29 17:54:00,
2013-09-29 13:55:00,76.3,65.0,28.68,East,90,4.0,12.0,68,0.00,,,0.00,VWS V14.01,2013-09-29 17:55:00,
2013-09-29 13:56:00,76.5,64.7,28.84,NE,36,3.0,5.0,67,0.00,,CLR,0.00,VWS V14.01,2013-09-29 17:56:00,
2013-09-29 13:57:00,76.5,64.7,28.84,North,11,5.0,7.0,67,0.00,,,0.00,VWS V14.01,2013-09-29 17:57:00,
2013-09-29 13:58:00,76.5,65.2,28.84,ENE,65,6.0,6.0,68,0.00,,,0.00,VWS V14.01,2013-09-29 17:58:00,
2013-09-29 13:59:00,76.5,64.3,28.91,ENE,67,11.0,11.0,66,0.00,,,0.00,VWS V14.01,2013-09-29 17:59:00,
2013-09-29 14:00:00,76.1,63.5,28.92,NE,38,2.0,11.0,65,0.00,,,0.00,VWS V14.01,2013-09-29 18:00:00,
2013-09-29 14:01:00,76.0,64.3,28.92,East,88,4.0,4.0,67,0.00,,CLR,0.00,VWS V14.01,2013-09-29 18:01:00,
2013-09-29 14:02:00,76.0,63.8,28.92,ESE,108,4.0,9.0,66,0.00,,,0.00,VWS V14.01,2013-09-29 18:02:00,
2013-09-29 14:03:00,76.1,64.4,28.92,ENE,64,9.0,11.0,67,0.00,,,0.00,VWS V14.01,2013-09-29 18:03:00,
2013-09-29 14:04:00,75.8,63.6,28.92,ENE,64,11.0,13.0,66,0.00,,,0.00,VWS V14.01,2013-09-29 18:04:00,
2013-09-29 14:05:00,75.6,63.5,28.92,ENE,63,4.0,11.0,66,0.00,,,0.00,VWS V14.01,2013-09-29 18:05:00,
2013-09-29 14:06:00,75.4,64.5,28.82,ESE,108,5.0,8.0,69,0.00,,CLR,0.00,VWS V14.01,2013-09-29 18:06:00,
2013-09-29 14:07:00,75.4,64.5,28.82,ESE,108,5.0,8.0,69,0.00,,,0.00,VWS V14.01,2013-09-29 18:07:00,
2013-09-29 14:08:00,75.6,64.7,28.82,NNE,24,3.0,6.0,69,0.00,,,0.00,VWS V14.01,2013-09-29 18:08:00,
2013-09-29 14:09:00,75.6,63.9,28.75,ENE,73,4.0,11.0,67,0.00,,,0.00,VWS V14.01,2013-09-29 18:09:00,
2013-09-29 14:10:00,75.6,63.9,28.75,ENE,57,7.0,7.0,67,0.00,,,0.00,VWS V14.01,2013-09-29 18:10:00,
2013-09-29 14:11:00,75.4,64.1,28.74,ENE,59,3.0,11.0,68,0.00,,CLR,0.00,VWS V14.01,2013-09-29 18:11:00,
2013-09-29 14:12:00,75.4,64.1,28.74,ENE,59,3.0,11.0,68,0.00,,,0.00,VWS V14.01,2013-09-29 18:12:00,
2013-09-29 14:13:00,75.4,63.7,28.74,NE,51,7.0,10.0,67,0.00,,,0.00,VWS V14.01,2013-09-29 18:13:00,
2013-09-29 14:14:00,75.4,63.7,28.74,ENE,68,6.0,9.0,67,0.00,,,0.00,VWS V14.01,2013-09-29 18:14:00,
2013-09-29 14:15:00,75.4,63.7,28.74,ENE,59,4.0,9.0,67,0.00,,,0.00,VWS V14.01,2013-09-29 18:15:00,
2013-09-29 14:16:00,75.4,63.7,28.74,ENE,63,5.0,8.0,67,0.00,,CLR,0.00,VWS V14.01,2013-09-29 18:16:00,
2013-09-29 14:17:00,75.4,63.7,28.74,ENE,63,5.0,8.0,67,0.00,,,0.00,VWS V14.01,2013-09-29 18:17:00,
2013-09-29 14:18:00,75.4,63.7,28.74,ENE,69,6.0,10.0,67,0.00,,,0.00,VWS V14.01,2013-09-29 18:18:00,
2013-09-29 14:19:00,75.4,64.1,28.74,ENE,76,1.0,6.0,68,0.00,,,0.00,VWS V14.01,2013-09-29 18:19:00,
2013-09-29 14:20:00,75.6,64.3,28.26,ENE,71,3.0,6.0,68,0.00,,,0.00,VWS V14.01,2013-09-29 18:20:00,
2013-09-29 14:21:00,76.0,63.8,28.26,East,84,10.0,10.0,66,0.00,,CLR,0.00,VWS V14.01,2013-09-29 18:21:00,
2013-09-29 14:22:00,76.0,63.8,28.26,East,84,10.0,10.0,66,0.00,,,0.00,VWS V14.01,2013-09-29 18:22:00,
2013-09-29 14:23:00,76.0,63.8,28.26,ENE,69,2.0,10.0,66,0.00,,,0.00,VWS V14.01,2013-09-29 18:23:00,
2013-09-29 14:24:00,76.1,64.4,28.26,East,91,5.0,5.0,67,0.00,,,0.00,VWS V14.01,2013-09-29 18:24:00,
2013-09-29 14:25:00,76.3,65.4,28.26,ENE,71,6.0,7.0,69,0.00,,,0.00,VWS V14.01,2013-09-29 18:25:00,
2013-09-29 14:26:00,76.3,65.0,28.26,NE,55,7.0,10.0,68,0.00,,CLR,0.00,VWS V14.01,2013-09-29 18:26:00,
2013-09-29 14:27:00,76.3,65.0,28.26,NE,55,7.0,10.0,68,0.00,,,0.00,VWS V14.01,2013-09-29 18:27:00,
2013-09-29 14:28:00,76.1,64.4,28.26,ENE,61,6.0,11.0,67,0.00,,,0.00,VWS V14.01,2013-09-29 18:28:00,
2013-09-29 14:29:00,76.3,65.8,28.26,East,99,4.0,6.0,70,0.00,,,0.00,VWS V14.01,2013-09-29 18:29:00,
2013-09-29 14:30:00,76.3,66.2,28.26,ENE,65,4.0,7.0,71,0.00,,,0.00,VWS V14.01,2013-09-29 18:30:00,
2013-09-29 14:31:00,76.5,66.0,28.61,NE,53,1.0,5.0,70,0.00,,CLR,0.00,VWS V14.01,2013-09-29 18:31:00,
2013-09-29 14:32:00,76.5,66.0,28.61,NE,53,1.0,5.0,70,0.00,,,0.00,VWS V14.01,2013-09-29 18:32:00,
2013-09-29 14:33:00,76.7,66.6,28.61,East,79,0.0,6.0,71,0.00,,,0.00,VWS V14.01,2013-09-29 18:33:00,
2013-09-29 14:34:00,76.8,66.7,28.61,East,88,0.0,3.0,71,0.00,,,0.00,VWS V14.01,2013-09-29 18:34:00,
2013-09-29 14:35:00,76.8,66.7,28.61,ENE,59,12.0,12.0,71,0.00,,,0.00,VWS V14.01,2013-09-29 18:35:00,
2013-09-29 14:36:00,76.7,65.3,28.61,East,94,7.0,7.0,68,0.00,,CLR,0.00,VWS V14.01,2013-09-29 18:36:00,
2013-09-29 14:37:00,76.7,65.3,28.61,East,94,7.0,7.0,68,0.00,,,0.00,VWS V14.01,2013-09-29 18:37:00,
2013-09-29 14:38:00,76.7,66.6,28.61,ENE,67,7.0,7.0,71,0.00,,,0.00,VWS V14.01,2013-09-29 18:38:00,
2013-09-29 14:39:00,76.8,66.3,28.61,ENE,66,5.0,7.0,70,0.00,,,0.00,VWS V14.01,2013-09-29 18:39:00,
2013-09-29 14:40:00,76.8,66.7,28.61,ENE,75,2.0,5.0,71,0.00,,,0.00,VWS V14.01,2013-09-29 18:40:00,
2013-09-29 14:41:00,77.0,67.3,28.61,East,95,3.0,5.0,72,0.00,,CLR,0.00,VWS V14.01,2013-09-29 18:41:00,
2013-09-29 14:42:00,77.0,67.3,28.61,East,95,3.0,5.0,72,0.00,,,0.00,VWS V14.01,2013-09-29 18:42:00,
2013-09-29 14:43:00,77.0,67.3,28.61,ENE,59,4.0,4.0,72,0.00,,,0.00,VWS V14.01,2013-09-29 18:43:00,
2013-09-29 14:44:00,77.0,67.3,28.61,East,84,4.0,10.0,72,0.00,,,0.00,VWS V14.01,2013-09-29 18:44:00,
2013-09-29 14:45:00,77.0,66.9,28.61,East,90,5.0,5.0,71,0.00,,,0.00,VWS V14.01,2013-09-29 18:45:00,
2013-09-29 14:46:00,77.0,67.7,28.61,East,82,4.0,4.0,73,0.00,,CLR,0.00,VWS V14.01,2013-09-29 18:46:00,
2013-09-29 14:47:00,77.0,67.7,28.61,East,82,4.0,4.0,73,0.00,,,0.00,VWS V14.01,2013-09-29 18:47:00,
2013-09-29 14:48:00,77.0,67.7,28.61,ESE,110,4.0,10.0,73,0.00,,,0.00,VWS V14.01,2013-09-29 18:48:00,
2013-09-29 14:49:00,77.2,67.1,28.61,ENE,74,2.0,5.0,71,0.00,,,0.00,VWS V14.01,2013-09-29 18:49:00,
2013-09-29 14:50:00,77.0,67.3,28.61,ENE,61,11.0,13.0,72,0.00,,,0.00,VWS V14.01,2013-09-29 18:50:00,
2013-09-29 14:51:00,76.5,65.6,28.90,NE,46,5.0,10.0,69,0.00,,CLR,0.00,VWS V14.01,2013-09-29 18:51:00,
2013-09-29 14:52:00,76.5,65.6,28.90,NE,46,5.0,10.0,69,0.00,,,0.00,VWS V14.01,2013-09-29 18:52:00,
2013-09-29 14:53:00,76.3,65.4,28.90,NE,49,6.0,6.0,69,0.00,,,0.00,VWS V14.01,2013-09-29 18:53:00,
2013-09-29 14:54:00,76.5,66.8,28.90,East,84,5.0,6.0,72,0.00,,,0.00,VWS V14.01,2013-09-29 18:54:00,
2013-09-29 14:55:00,76.7,66.6,28.90,East,101,5.0,5.0,71,0.00,,,0.00,VWS V14.01,2013-09-29 18:55:00,
2013-09-29 14:56:00,76.8,67.1,28.90,East,98,5.0,5.0,72,0.00,,CLR,0.00,VWS V14.01,2013-09-29 18:56:00,
2013-09-29 14:57:00,76.8,67.1,28.90,East,98,5.0,5.0,72,0.00,,CLR,0.00,VWS V14.01,2013-09-29 18:57:00,
2013-09-29 14:58:00,76.8,66.7,28.90,East,88,3.0,5.0,71,0.00,,CLR,0.00,VWS V14.01,2013-09-29 18:58:00,
2013-09-29 14:59:00,77.0,66.9,28.90,ENE,75,3.0,6.0,71,0.00,,CLR,0.00,VWS V14.01,2013-09-29 18:59:00,
2013-09-29 15:00:00,77.0,66.9,28.90,ENE,77,4.0,6.0,71,0.00,,CLR,0.00,VWS V14.01,2013-09-29 19:00:00,
2013-09-29 15:01:00,77.0,66.5,28.90,East,99,3.0,5.0,70,0.00,,CLR,0.00,VWS V14.01,2013-09-29 19:01:00,
2013-09-29 15:02:00,77.0,66.5,28.90,East,99,3.0,5.0,70,0.00,,CLR,0.00,VWS V14.01,2013-09-29 19:02:00,
2013-09-29 15:03:00,77.0,67.3,28.90,East,99,4.0,5.0,72,0.00,,CLR,0.00,VWS V14.01,2013-09-29 19:03:00,
2013-09-29 15:04:00,77.2,67.1,28.90,ENE,68,4.0,5.0,71,0.00,,CLR,0.00,VWS V14.01,2013-09-29 19:04:00,
2013-09-29 15:05:00,77.2,67.1,29.19,East,90,4.0,6.0,71,0.00,,CLR,0.00,VWS V14.01,2013-09-29 19:05:00,
2013-09-29 15:06:00,77.2,66.7,29.19,East,90,4.0,5.0,70,0.00,,,0.00,VWS V14.01,2013-09-29 19:06:00,
2013-09-29 15:07:00,77.4,67.3,29.19,ENE,66,4.0,4.0,71,0.00,,CLR,0.00,VWS V14.01,2013-09-29 19:07:00,
2013-09-29 15:08:00,77.4,67.3,29.19,ENE,68,5.0,5.0,71,0.00,,CLR,0.00,VWS V14.01,2013-09-29 19:08:00,
2013-09-29 15:09:00,77.4,67.3,29.19,ESE,103,4.0,5.0,71,0.00,,CLR,0.00,VWS V14.01,2013-09-29 19:09:00,
2013-09-29 15:10:00,77.6,67.5,29.19,East,98,5.0,5.0,71,0.00,,CLR,0.00,VWS V14.01,2013-09-29 19:10:00,
2013-09-29 15:11:00,77.6,67.1,29.19,East,94,5.0,5.0,70,0.00,,CLR,0.00,VWS V14.01,2013-09-29 19:11:00,
2013-09-29 15:12:00,77.6,67.1,29.19,East,94,5.0,5.0,70,0.00,,CLR,0.00,VWS V14.01,2013-09-29 19:12:00,
2013-09-29 15:13:00,77.6,67.1,29.19,East,98,3.0,5.0,70,0.00,,CLR,0.00,VWS V14.01,2013-09-29 19:13:00,
2013-09-29 15:14:00,77.6,67.1,29.19,East,90,3.0,4.0,70,0.00,,CLR,0.00,VWS V14.01,2013-09-29 19:14:00,
2013-09-29 15:15:00,77.6,67.1,29.19,East,98,3.0,5.0,70,0.00,,CLR,0.00,VWS V14.01,2013-09-29 19:15:00,
2013-09-29 15:16:00,77.6,67.5,29.19,NE,56,4.0,5.0,71,0.00,,CLR,0.00,VWS V14.01,2013-09-29 19:16:00,
2013-09-29 15:17:00,77.6,67.5,29.19,NE,56,4.0,5.0,71,0.00,,CLR,0.00,VWS V14.01,2013-09-29 19:17:00,
2013-09-29 15:18:00,77.7,66.7,29.19,East,83,2.0,4.0,69,0.00,,CLR,0.00,VWS V14.01,2013-09-29 19:18:00,
2013-09-29 15:19:00,77.7,67.1,29.19,East,90,3.0,5.0,70,0.00,,CLR,0.00,VWS V14.01,2013-09-29 19:19:00,
2013-09-29 15:20:00,77.7,67.1,29.19,ENE,75,2.0,4.0,70,0.00,,CLR,0.00,VWS V14.01,2013-09-29 19:20:00,
2013-09-29 15:21:00,77.7,67.1,29.19,ENE,69,7.0,7.0,70,0.00,,CLR,0.00,VWS V14.01,2013-09-29 19:21:00,
2013-09-29 15:22:00,77.7,67.1,29.19,NE,51,7.0,7.0,70,0.00,,CLR,0.00,VWS V14.01,2013-09-29 19:22:00,
2013-09-29 15:23:00,77.7,66.7,29.10,ENE,67,3.0,7.0,69,0.00,,CLR,0.00,VWS V14.01,2013-09-29 19:23:00,
2013-09-29 15:24:00,77.7,66.7,29.10,ENE,72,3.0,3.0,69,0.00,,CLR,0.00,VWS V14.01,2013-09-29 19:24:00,
2013-09-29 15:25:00,77.7,67.1,29.10,East,92,3.0,3.0,70,0.00,,CLR,0.00,VWS V14.01,2013-09-29 19:25:00,
2013-09-29 15:26:00,77.7,66.7,29.10,East,85,2.0,4.0,69,0.00,,CLR,0.00,VWS V14.01,2013-09-29 19:26:00,
2013-09-29 15:27:00,77.7,66.7,29.10,East,85,2.0,4.0,69,0.00,,CLR,0.00,VWS V14.01,2013-09-29 19:27:00,
2013-09-29 15:28:00,77.9,66.9,29.10,SE,126,4.0,4.0,69,0.00,,CLR,0.00,VWS V14.01,2013-09-29 19:28:00,
2013-09-29 15:29:00,77.9,67.3,29.10,East,86,4.0,6.0,70,0.00,,CLR,0.00,VWS V14.01,2013-09-29 19:29:00,
2013-09-29 15:30:00,77.9,67.3,29.10,East,85,4.0,5.0,70,0.00,,CLR,0.00,VWS V14.01,2013-09-29 19:30:00,
2013-09-29 15:31:00,77.7,67.6,29.11,East,91,4.0,4.0,71,0.00,,CLR,0.00,VWS V14.01,2013-09-29 19:31:00,
2013-09-29 15:32:00,77.7,67.6,29.11,East,91,4.0,4.0,71,0.00,,CLR,0.00,VWS V14.01,2013-09-29 19:32:00,
2013-09-29 15:33:00,77.6,67.5,29.11,East,86,3.0,5.0,71,0.00,,CLR,0.00,VWS V14.01,2013-09-29 19:33:00,
2013-09-29 15:34:00,77.7,67.1,29.11,ENE,75,3.0,3.0,70,0.00,,CLR,0.00,VWS V14.01,2013-09-29 19:34:00,
2013-09-29 15:35:00,77.6,67.5,29.11,ESE,105,6.0,6.0,71,0.00,,CLR,0.00,VWS V14.01,2013-09-29 19:35:00,
2013-09-29 15:36:00,77.7,67.1,29.11,ENE,78,8.0,8.0,70,0.00,,SCT080,0.00,VWS V14.01,2013-09-29 19:36:00,
2013-09-29 15:37:00,77.7,67.1,29.11,ENE,78,8.0,8.0,70,0.00,,CLR,0.00,VWS V14.01,2013-09-29 19:37:00,
2013-09-29 15:38:00,77.7,67.1,29.11,East,81,4.0,9.0,70,0.00,,CLR,0.00,VWS V14.01,2013-09-29 19:38:00,
2013-09-29 15:39:00,77.7,67.6,29.11,ESE,112,5.0,5.0,71,0.00,,CLR,0.00,VWS V14.01,2013-09-29 19:39:00,
2013-09-29 15:40:00,77.7,67.1,29.11,East,82,4.0,6.0,70,0.00,,CLR,0.00,VWS V14.01,2013-09-29 19:40:00,
2013-09-29 15:41:00,77.6,67.5,29.02,ENE,70,3.0,5.0,71,0.00,,SCT080,0.00,VWS V14.01,2013-09-29 19:41:00,
2013-09-29 15:42:00,77.6,67.5,29.02,ENE,70,3.0,5.0,71,0.00,,CLR,0.00,VWS V14.01,2013-09-29 19:42:00,
2013-09-29 15:43:00,77.4,67.3,29.02,East,88,4.0,6.0,71,0.00,,CLR,0.00,VWS V14.01,2013-09-29 19:43:00,
2013-09-29 15:44:00,77.4,67.3,29.02,ENE,67,6.0,6.0,71,0.00,,CLR,0.00,VWS V14.01,2013-09-29 19:44:00,
2013-09-29 15:45:00,77.2,67.9,29.02,East,90,4.0,6.0,73,0.00,,CLR,0.00,VWS V14.01,2013-09-29 19:45:00,
2013-09-29 15:46:00,77.2,67.9,29.02,East,86,4.0,6.0,73,0.00,,SCT080,0.00,VWS V14.01,2013-09-29 19:46:00,
2013-09-29 15:47:00,77.2,67.9,29.02,East,86,4.0,6.0,73,0.00,,CLR,0.00,VWS V14.01,2013-09-29 19:47:00,
2013-09-29 15:48:00,77.0,67.7,29.02,East,88,4.0,5.0,73,0.00,,SCT080,0.00,VWS V14.01,2013-09-29 19:48:00,
2013-09-29 15:49:00,77.0,67.7,29.02,East,88,4.0,5.0,73,0.00,,CLR,0.00,VWS V14.01,2013-09-29 19:49:00,
2013-09-29 15:50:00,77.0,67.7,28.81,ENE,77,4.0,4.0,73,0.00,,CLR,0.00,VWS V14.01,2013-09-29 19:50:00,
2013-09-29 15:51:00,77.0,67.7,28.81,ENE,76,3.0,4.0,73,0.00,,CLR,0.00,VWS V14.01,2013-09-29 19:51:00,
2013-09-29 15:52:00,77.0,67.7,28.81,East,94,4.0,4.0,73,0.00,,CLR,0.00,VWS V14.01,2013-09-29 19:52:00,
2013-09-29 15:53:00,76.8,67.9,28.81,East,86,5.0,6.0,74,0.00,,SCT080,0.00,VWS V14.01,2013-09-29 19:53:00,
2013-09-29 15:54:00,76.8,67.9,28.81,ENE,78,2.0,6.0,74,0.00,,CLR,0.00,VWS V14.01,2013-09-29 19:54:00,
2013-09-29 15:55:00,76.8,68.3,28.81,ENE,73,2.0,3.0,75,0.00,,CLR,0.00,VWS V14.01,2013-09-29 19:55:00,
2013-09-29 15:56:00,76.7,67.8,28.81,East,79,3.0,4.0,74,0.00,,CLR,0.00,VWS V14.01,2013-09-29 19:56:00,
2013-09-29 15:57:00,76.7,67.8,28.99,ENE,69,4.0,5.0,74,0.00,,CLR,0.00,VWS V14.01,2013-09-29 19:57:00,
2013-09-29 15:58:00,76.5,67.2,28.99,ENE,78,3.0,5.0,73,0.00,,SCT080,0.00,VWS V14.01,2013-09-29 19:58:00,
2013-09-29 15:59:00,76.5,67.2,28.99,ENE,78,3.0,5.0,73,0.00,,CLR,0.00,VWS V14.01,2013-09-29 19:59:00,
2013-09-29 16:00:00,76.5,67.6,28.99,ENE,76,6.0,6.0,74,0.00,,CLR,0.00,VWS V14.01,2013-09-29 20:00:00,
2013-09-29 16:01:00,76.5,67.2,28.99,ENE,74,8.0,8.0,73,0.00,,CLR,0.00,VWS V14.01,2013-09-29 20:01:00,
2013-09-29 16:02:00,76.3,67.0,28.99,East,89,2.0,8.0,73,0.00,,CLR,0.00,VWS V14.01,2013-09-29 20:02:00,
2013-09-29 16:03:00,76.3,67.0,28.99,East,83,3.0,6.0,73,0.00,,SCT080,0.00,VWS V14.01,2013-09-29 20:03:00,
2013-09-29 16:04:00,76.3,67.0,28.99,East,83,3.0,6.0,73,0.00,,CLR,0.00,VWS V14.01,2013-09-29 20:04:00,
2013-09-29 16:05:00,76.3,67.0,28.99,East,81,6.0,6.0,73,0.00,,CLR,0.00,VWS V14.01,2013-09-29 20:05:00,
2013-09-29 16:06:00,76.3,67.0,28.99,East,79,6.0,6.0,73,0.00,,CLR,0.00,VWS V14.01,2013-09-29 20:06:00,
2013-09-29 16:07:00,76.3,67.0,28.99,NE,47,2.0,6.0,73,0.00,,CLR,0.00,VWS V14.01,2013-09-29 20:07:00,
2013-09-29 16:08:00,76.3,66.6,28.99,NE,51,3.0,5.0,72,0.00,,SCT080,0.00,VWS V14.01,2013-09-29 20:08:00,
2013-09-29 16:09:00,76.3,66.6,28.99,NE,51,3.0,5.0,72,0.00,,CLR,0.00,VWS V14.01,2013-09-29 20:09:00,
2013-09-29 16:10:00,76.3,67.0,28.99,ENE,68,5.0,7.0,73,0.00,,CLR,0.00,VWS V14.01,2013-09-29 20:10:00,
2013-09-29 16:11:00,76.3,66.6,28.99,East,85,2.0,5.0,72,0.00,,CLR,0.00,VWS V14.01,2013-09-29 20:11:00,
2013-09-29 16:12:00,76.3,66.6,28.99,SE,124,7.0,7.0,72,0.00,,CLR,0.00,VWS V14.01,2013-09-29 20:12:00,
2013-09-29 16:13:00,76.3,66.6,28.99,ENE,74,4.0,4.0,72,0.00,,SCT080,0.00,VWS V14.01,2013-09-29 20:13:00,
2013-09-29 16:14:00,76.3,66.6,28.99,ENE,59,4.0,4.0,72,0.00,,CLR,0.00,VWS V14.01,2013-09-29 20:14:00,
2013-09-29 16:15:00,76.3,67.0,28.99,ENE,69,3.0,4.0,73,0.00,,CLR,0.00,VWS V14.01,2013-09-29 20:15:00,
2013-09-29 16:16:00,76.5,66.8,27.71,East,96,3.0,3.0,72,0.00,,CLR,0.00,VWS V14.01,2013-09-29 20:16:00,
2013-09-29 16:17:00,76.5,67.2,27.71,ENE,78,4.0,5.0,73,0.00,,CLR,0.00,VWS V14.01,2013-09-29 20:17:00,
2013-09-29 16:18:00,76.3,66.6,27.71,ENE,63,3.0,5.0,72,0.00,,SCT080,0.00,VWS V14.01,2013-09-29 20:18:00,
2013-09-29 16:19:00,76.3,66.6,27.71,ENE,63,3.0,5.0,72,0.00,,CLR,0.00,VWS V14.01,2013-09-29 20:19:00,
2013-09-29 16:20:00,76.3,66.6,27.76,East,90,4.0,5.0,72,0.00,,CLR,0.00,VWS V14.01,2013-09-29 20:20:00,
2013-09-29 16:21:00,76.3,66.6,27.76,East,84,3.0,4.0,72,0.00,,CLR,0.00,VWS V14.01,2013-09-29 20:21:00,
2013-09-29 16:22:00,76.3,66.6,27.76,ESE,106,2.0,5.0,72,0.00,,CLR,0.00,VWS V14.01,2013-09-29 20:22:00,
2013-09-29 16:23:00,76.1,66.4,27.76,East,80,3.0,7.0,72,0.00,,SCT080,0.00,VWS V14.01,2013-09-29 20:23:00,
2013-09-29 16:24:00,76.1,66.4,27.76,East,81,3.0,7.0,72,0.00,,CLR,0.00,VWS V14.01,2013-09-29 20:24:00,
2013-09-29 16:25:00,76.3,67.0,28.14,ENE,76,5.0,5.0,73,0.00,,CLR,0.00,VWS V14.01,2013-09-29 20:25:00,
2013-09-29 16:26:00,76.3,66.6,28.14,ENE,73,5.0,6.0,72,0.00,,CLR,0.00,VWS V14.01,2013-09-29 20:26:00,
2013-09-29 16:27:00,76.1,66.0,28.14,ENE,65,9.0,9.0,71,0.00,,CLR,0.00,VWS V14.01,2013-09-29 20:27:00,
2013-09-29 16:28:00,76.1,66.0,28.14,ENE,72,4.0,4.0,71,0.00,,SCT080,0.00,VWS V14.01,2013-09-29 20:28:00,
2013-09-29 16:29:00,76.1,66.4,28.14,ESE,103,4.0,4.0,72,0.00,,CLR,0.00,VWS V14.01,2013-09-29 20:29:00,
2013-09-29 16:30:00,76.1,66.0,28.14,ENE,67,3.0,6.0,71,0.00,,CLR,0.00,VWS V14.01,2013-09-29 20:30:00,
2013-09-29 16:31:00,76.1,66.0,28.14,East,96,3.0,8.0,71,0.00,,CLR,0.00,VWS V14.01,2013-09-29 20:31:00,
2013-09-29 16:32:00,76.1,66.4,28.14,ENE,61,6.0,8.0,72,0.00,,CLR,0.00,VWS V14.01,2013-09-29 20:32:00,
2013-09-29 16:33:00,76.0,65.9,28.14,ENE,74,2.0,6.0,71,0.00,,SCT080,0.00,VWS V14.01,2013-09-29 20:33:00,
2013-09-29 16:34:00,76.0,65.9,28.14,ENE,74,2.0,6.0,71,0.00,,CLR,0.00,VWS V14.01,2013-09-29 20:34:00,
2013-09-29 16:35:00,76.0,66.3,28.14,East,81,3.0,3.0,72,0.00,,CLR,0.00,VWS V14.01,2013-09-29 20:35:00,
2013-09-29 16:36:00,76.0,66.3,28.14,ENE,74,5.0,5.0,72,0.00,,CLR,0.00,VWS V14.01,2013-09-29 20:36:00,
2013-09-29 16:37:00,76.0,66.3,28.14,ENE,70,1.0,5.0,72,0.00,,CLR,0.00,VWS V14.01,2013-09-29 20:37:00,
2013-09-29 16:38:00,76.1,66.4,28.14,ESE,104,1.0,5.0,72,0.00,,CLR,0.00,VWS V14.01,2013-09-29 20:38:00,
2013-09-29 16:39:00,76.1,66.4,28.14,ESE,104,1.0,5.0,72,0.00,,CLR,0.00,VWS V14.01,2013-09-29 20:39:00,
2013-09-29 16:40:00,76.1,66.4,28.14,ENE,59,2.0,5.0,72,0.00,,CLR,0.00,VWS V14.01,2013-09-29 20:40:00,
2013-09-29 16:41:00,76.1,66.4,28.14,East,96,2.0,4.0,72,0.00,,CLR,0.00,VWS V14.01,2013-09-29 20:41:00,
2013-09-29 16:42:00,76.1,66.4,28.14,ENE,62,5.0,7.0,72,0.00,,CLR,0.00,VWS V14.01,2013-09-29 20:42:00,
2013-09-29 16:43:00,75.8,65.7,28.14,East,82,4.0,9.0,71,0.00,,CLR,0.00,VWS V14.01,2013-09-29 20:43:00,
2013-09-29 16:44:00,75.8,65.7,28.14,East,82,4.0,9.0,71,0.00,,CLR,0.00,VWS V14.01,2013-09-29 20:44:00,
2013-09-29 16:45:00,75.8,65.7,28.14,ENE,65,4.0,4.0,71,0.00,,CLR,0.00,VWS V14.01,2013-09-29 20:45:00,
2013-09-29 16:46:00,75.6,65.9,28.14,NE,50,7.0,11.0,72,0.00,,CLR,0.00,VWS V14.01,2013-09-29 20:46:00,
2013-09-29 16:47:00,75.4,65.3,28.14,ENE,65,6.0,9.0,71,0.00,,CLR,0.00,VWS V14.01,2013-09-29 20:47:00,
2013-09-29 16:48:00,75.3,65.7,28.14,ENE,72,7.0,7.0,72,0.00,,CLR,0.00,VWS V14.01,2013-09-29 20:48:00,
2013-09-29 16:49:00,75.1,65.5,28.14,ENE,70,7.0,7.0,72,0.00,,CLR,0.00,VWS V14.01,2013-09-29 20:49:00,
2013-09-29 16:50:00,75.1,65.5,28.14,East,85,3.0,7.0,72,0.00,,CLR,0.00,VWS V14.01,2013-09-29 20:50:00,
2013-09-29 16:51:00,75.1,66.2,28.14,ENE,62,2.0,3.0,74,0.00,,CLR,0.00,VWS V14.01,2013-09-29 20:51:00,
2013-09-29 16:52:00,75.1,66.2,28.14,East,84,3.0,7.0,74,0.00,,CLR,0.00,VWS V14.01,2013-09-29 20:52:00,
2013-09-29 16:53:00,75.1,65.5,28.14,ENE,69,4.0,7.0,72,0.00,,CLR,0.00,VWS V14.01,2013-09-29 20:53:00,
2013-09-29 16:54:00,75.1,65.5,28.14,ENE,68,5.0,7.0,72,0.00,,CLR,0.00,VWS V14.01,2013-09-29 20:54:00,
2013-09-29 16:55:00,75.1,65.5,28.14,ENE,71,2.0,5.0,72,0.00,,CLR,0.00,VWS V14.01,2013-09-29 20:55:00,
2013-09-29 16:56:00,75.1,65.9,28.14,ESE,107,1.0,3.0,73,0.00,,CLR,0.00,VWS V14.01,2013-09-29 20:56:00,
2013-09-29 16:57:00,75.1,65.9,28.14,NE,47,5.0,6.0,73,0.00,,CLR,0.00,VWS V14.01,2013-09-29 20:57:00,
2013-09-29 16:58:00,74.9,65.3,28.14,ENE,65,2.0,5.0,72,0.00,,CLR,0.00,VWS V14.01,2013-09-29 20:58:00,
2013-09-29 16:59:00,74.9,65.3,28.14,ENE,67,5.0,5.0,72,0.00,,CLR,0.00,VWS V14.01,2013-09-29 20:59:00,
2013-09-29 17:00:00,74.9,65.7,28.14,East,82,2.0,5.0,73,0.00,,CLR,0.00,VWS V14.01,2013-09-29 21:00:00,
2013-09-29 17:01:00,74.9,65.7,28.14,NE,55,4.0,5.0,73,0.00,,CLR,0.00,VWS V14.01,2013-09-29 21:01:00,
2013-09-29 17:02:00,74.9,65.3,28.14,East,81,4.0,4.0,72,0.00,,CLR,0.00,VWS V14.01,2013-09-29 21:02:00,
2013-09-29 17:03:00,74.9,65.7,28.85,ENE,64,0.0,3.0,73,0.00,,CLR,0.00,VWS V14.01,2013-09-29 21:03:00,
2013-09-29 17:04:00,74.9,65.7,28.85,ENE,64,0.0,3.0,73,0.00,,CLR,0.00,VWS V14.01,2013-09-29 21:04:00,
2013-09-29 17:05:00,74.9,65.7,28.85,ENE,66,4.0,5.0,73,0.00,,CLR,0.00,VWS V14.01,2013-09-29 21:05:00,
2013-09-29 17:06:00,75.1,65.9,28.85,ENE,77,2.0,6.0,73,0.00,,CLR,0.00,VWS V14.01,2013-09-29 21:06:00,
2013-09-29 17:07:00,75.3,65.7,28.85,ENE,67,5.0,5.0,72,0.00,,CLR,0.00,VWS V14.01,2013-09-29 21:07:00,
2013-09-29 17:08:00,75.3,65.7,28.85,East,93,4.0,4.0,72,0.00,,CLR,0.00,VWS V14.01,2013-09-29 21:08:00,
2013-09-29 17:09:00,75.3,65.7,28.85,East,93,4.0,4.0,72,0.00,,CLR,0.00,VWS V14.01,2013-09-29 21:09:00,
2013-09-29 17:10:00,75.4,66.2,28.85,ENE,76,8.0,8.0,73,0.00,,CLR,0.00,VWS V14.01,2013-09-29 21:10:00,
2013-09-29 17:11:00,75.4,65.3,28.85,NE,41,6.0,8.0,71,0.00,,CLR,0.00,VWS V14.01,2013-09-29 21:11:00,
2013-09-29 17:12:00,75.4,65.3,28.85,ENE,76,4.0,11.0,71,0.00,,CLR,0.00,VWS V14.01,2013-09-29 21:12:00,
2013-09-29 17:13:00,75.6,65.5,28.85,NE,46,6.0,10.0,71,0.00,,CLR,0.00,VWS V14.01,2013-09-29 21:13:00,
2013-09-29 17:14:00,75.6,65.5,28.85,NE,46,6.0,10.0,71,0.00,,CLR,0.00,VWS V14.01,2013-09-29 21:14:00,
2013-09-29 17:15:00,75.6,65.5,28.85,ENE,76,6.0,6.0,71,0.00,,CLR,0.00,VWS V14.01,2013-09-29 21:15:00,
2013-09-29 17:16:00,75.6,65.5,28.85,East,81,3.0,6.0,71,0.00,,CLR,0.00,VWS V14.01,2013-09-29 21:16:00,
2013-09-29 17:17:00,75.8,65.7,29.19,East,94,4.0,5.0,71,0.00,,CLR,0.00,VWS V14.01,2013-09-29 21:17:00,
2013-09-29 17:18:00,75.8,65.7,29.19,ESE,107,4.0,6.0,71,0.00,,CLR,0.00,VWS V14.01,2013-09-29 21:18:00,
2013-09-29 17:19:00,75.8,65.7,29.19,ESE,107,4.0,6.0,71,0.00,,CLR,0.00,VWS V14.01,2013-09-29 21:19:00,
2013-09-29 17:20:00,75.8,65.7,29.19,ESE,104,3.0,4.0,71,0.00,,CLR,0.00,VWS V14.01,2013-09-29 21:20:00,
2013-09-29 17:21:00,76.0,66.3,29.19,East,84,5.0,5.0,72,0.00,,CLR,0.00,VWS V14.01,2013-09-29 21:21:00,
2013-09-29 17:22:00,76.0,66.3,29.19,ENE,69,6.0,6.0,72,0.00,,CLR,0.00,VWS V14.01,2013-09-29 21:22:00,
2013-09-29 17:23:00,75.8,65.3,29.19,ENE,59,4.0,9.0,70,0.00,,CLR,0.00,VWS V14.01,2013-09-29 21:23:00,
2013-09-29 17:24:00,75.8,65.3,29.19,NE,56,9.0,9.0,70,0.00,,CLR,0.00,VWS V14.01,2013-09-29 21:24:00,
2013-09-29 17:25:00,75.6,65.1,29.19,ENE,63,6.0,9.0,70,0.00,,CLR,0.00,VWS V14.01,2013-09-29 21:25:00,
2013-09-29 17:26:00,75.6,65.1,29.19,ENE,66,2.0,6.0,70,0.00,,CLR,0.00,VWS V14.01,2013-09-29 21:26:00,
2013-09-29 17:27:00,75.6,65.5,29.19,East,101,2.0,4.0,71,0.00,,CLR,0.00,VWS V14.01,2013-09-29 21:27:00,
2013-09-29 17:28:00,75.6,65.9,29.19,ENE,61,3.0,7.0,72,0.00,,CLR,0.00,VWS V14.01,2013-09-29 21:28:00,
2013-09-29 17:29:00,75.6,65.9,29.19,ENE,61,2.0,7.0,72,0.00,,CLR,0.00,VWS V14.01,2013-09-29 21:29:00,
2013-09-29 17:30:00,75.6,66.3,29.19,ENE,65,7.0,7.0,73,0.00,,CLR,0.00,VWS V14.01,2013-09-29 21:30:00,
2013-09-29 17:31:00,75.6,65.9,29.19,NE,55,10.0,11.0,72,0.00,,CLR,0.00,VWS V14.01,2013-09-29 21:31:00,
2013-09-29 17:32:00,75.4,65.8,29.19,NE,40,7.0,10.0,72,0.00,,CLR,0.00,VWS V14.01,2013-09-29 21:32:00,
2013-09-29 17:33:00,75.4,65.8,29.19,East,79,6.0,11.0,72,0.00,,CLR,0.00,VWS V14.01,2013-09-29 21:33:00,
2013-09-29 17:34:00,75.4,65.8,29.19,ENE,63,4.0,11.0,72,0.00,,CLR,0.00,VWS V14.01,2013-09-29 21:34:00,
2013-09-29 17:35:00,75.3,65.7,29.19,ENE,63,8.0,9.0,72,0.00,,CLR,0.00,VWS V14.01,2013-09-29 21:35:00,
2013-09-29 17:36:00,75.3,65.7,29.19,ENE,77,2.0,8.0,72,0.00,,CLR,0.00,VWS V14.01,2013-09-29 21:36:00,
2013-09-29 17:37:00,75.3,66.1,29.19,East,79,4.0,6.0,73,0.00,,CLR,0.00,VWS V14.01,2013-09-29 21:37:00,
2013-09-29 17:38:00,75.1,65.5,29.19,ENE,59,11.0,11.0,72,0.00,,CLR,0.00,VWS V14.01,2013-09-29 21:38:00,
2013-09-29 17:39:00,75.1,65.5,29.19,ENE,74,6.0,11.0,72,0.00,,CLR,0.00,VWS V14.01,2013-09-29 21:39:00,
2013-09-29 17:40:00,75.1,65.5,29.19,ENE,61,6.0,6.0,72,0.00,,CLR,0.00,VWS V14.01,2013-09-29 21:40:00,
2013-09-29 17:41:00,75.1,65.5,29.19,ENE,66,7.0,10.0,72,0.00,,CLR,0.00,VWS V14.01,2013-09-29 21:41:00,
2013-09-29 17:42:00,74.9,65.3,29.19,ENE,74,4.0,9.0,72,0.00,,CLR,0.00,VWS V14.01,2013-09-29 21:42:00,
2013-09-29 17:43:00,74.9,65.7,29.19,ENE,63,5.0,9.0,73,0.00,,CLR,0.00,VWS V14.01,2013-09-29 21:43:00,
2013-09-29 17:44:00,74.9,65.7,29.19,ENE,75,6.0,9.0,73,0.00,,CLR,0.00,VWS V14.01,2013-09-29 21:44:00,
2013-09-29 17:45:00,74.9,65.3,29.19,ESE,103,2.0,6.0,72,0.00,,CLR,0.00,VWS V14.01,2013-09-29 21:45:00,
2013-09-29 17:46:00,74.9,65.7,29.19,ENE,74,6.0,6.0,73,0.00,,CLR,0.00,VWS V14.01,2013-09-29 21:46:00,
2013-09-29 17:47:00,74.7,65.5,29.19,ENE,59,9.0,11.0,73,0.00,,CLR,0.00,VWS V14.01,2013-09-29 21:47:00,
2013-09-29 17:48:00,74.7,65.9,29.19,ENE,64,5.0,7.0,74,0.00,,CLR,0.00,VWS V14.01,2013-09-29 21:48:00,
2013-09-29 17:49:00,74.7,65.9,29.19,ENE,64,5.0,7.0,74,0.00,,CLR,0.00,VWS V14.01,2013-09-29 21:49:00,
2013-09-29 17:50:00,74.6,65.8,29.19,ENE,66,5.0,11.0,74,0.00,,CLR,0.00,VWS V14.01,2013-09-29 21:50:00,
2013-09-29 17:51:00,74.6,65.8,29.19,ENE,67,5.0,6.0,74,0.00,,CLR,0.00,VWS V14.01,2013-09-29 21:51:00,
2013-09-29 17:52:00,74.4,65.6,29.19,ENE,67,3.0,5.0,74,0.00,,CLR,0.00,VWS V14.01,2013-09-29 21:52:00,
2013-09-29 17:53:00,74.4,65.6,29.19,ENE,71,4.0,5.0,74,0.00,,CLR,0.00,VWS V14.01,2013-09-29 21:53:00,
2013-09-29 17:54:00,74.4,65.6,29.19,ENE,71,4.0,5.0,74,0.00,,CLR,0.00,VWS V14.01,2013-09-29 21:54:00,
2013-09-29 17:55:00,74.4,65.6,29.19,East,83,4.0,5.0,74,0.00,,CLR,0.00,VWS V14.01,2013-09-29 21:55:00,
2013-09-29 17:56:00,74.4,65.6,29.19,ENE,60,4.0,7.0,74,0.00,,CLR,0.00,VWS V14.01,2013-09-29 21:56:00,
2013-09-29 17:57:00,74.2,65.8,29.19,ENE,65,3.0,9.0,75,0.00,,CLR,0.00,VWS V14.01,2013-09-29 21:57:00,
2013-09-29 17:58:00,74.2,65.8,26.71,ENE,59,6.0,9.0,75,0.00,,CLR,0.00,VWS V14.01,2013-09-29 21:58:00,
2013-09-29 17:59:00,74.2,65.8,26.71,ENE,59,4.0,9.0,75,0.00,,CLR,0.00,VWS V14.01,2013-09-29 21:59:00,
2013-09-29 18:00:00,74.2,65.8,26.71,NE,51,7.0,7.0,75,0.00,,CLR,0.00,VWS V14.01,2013-09-29 22:00:00,
2013-09-29 18:01:00,74.2,65.8,26.71,ENE,67,7.0,10.0,75,0.00,,CLR,0.00,VWS V14.01,2013-09-29 22:01:00,
2013-09-29 18:02:00,74.2,65.8,26.71,NE,51,7.0,10.0,75,0.00,,CLR,0.00,VWS V14.01,2013-09-29 22:02:00,
2013-09-29 18:03:00,74.2,65.8,26.71,NE,48,6.0,6.0,75,0.00,,CLR,0.00,VWS V14.01,2013-09-29 22:03:00,
2013-09-29 18:04:00,74.2,65.8,26.71,ENE,61,6.0,6.0,75,0.00,,CLR,0.00,VWS V14.01,2013-09-29 22:04:00,
2013-09-29 18:05:00,74.2,65.8,26.71,NE,54,7.0,7.0,75,0.00,,CLR,0.00,VWS V14.01,2013-09-29 22:05:00,
2013-09-29 18:06:00,74.2,65.8,26.71,ENE,61,3.0,8.0,75,0.00,,CLR,0.00,VWS V14.01,2013-09-29 22:06:00,
2013-09-29 18:07:00,74.2,65.8,26.71,NE,47,7.0,10.0,75,0.00,,CLR,0.00,VWS V14.01,2013-09-29 22:07:00,
2013-09-29 18:08:00,74.2,65.8,26.71,ENE,76,6.0,9.0,75,0.00,,CLR,0.00,VWS V14.01,2013-09-29 22:08:00,
2013-09-29 18:09:00,74.2,65.8,26.71,ENE,64,5.0,9.0,75,0.00,,CLR,0.00,VWS V14.01,2013-09-29 22:09:00,
2013-09-29 18:10:00,74.2,65.8,26.71,ENE,72,7.0,7.0,75,0.00,,CLR,0.00,VWS V14.01,2013-09-29 22:10:00,
2013-09-29 18:11:00,74.0,66.0,26.71,ENE,64,5.0,7.0,76,0.00,,CLR,0.00,VWS V14.01,2013-09-29 22:11:00,
2013-09-29 18:12:00,74.0,66.0,26.71,ENE,64,6.0,7.0,76,0.00,,CLR,0.00,VWS V14.01,2013-09-29 22:12:00,
2013-09-29 18:13:00,74.0,66.0,26.71,ENE,63,6.0,8.0,76,0.00,,CLR,0.00,VWS V14.01,2013-09-29 22:13:00,
2013-09-29 18:14:00,74.0,66.0,26.71,NE,54,4.0,8.0,76,0.00,,CLR,0.00,VWS V14.01,2013-09-29 22:14:00,
2013-09-29 18:15:00,73.9,65.9,26.71,ENE,57,4.0,7.0,76,0.00,,CLR,0.00,VWS V14.01,2013-09-29 22:15:00,
2013-09-29 18:16:00,73.9,65.9,27.75,ENE,59,6.0,6.0,76,0.00,,CLR,0.00,VWS V14.01,2013-09-29 22:16:00,
2013-09-29 18:17:00,73.9,65.9,27.75,NE,46,5.0,6.0,76,0.00,,CLR,0.00,VWS V14.01,2013-09-29 22:17:00,
2013-09-29 18:18:00,73.9,66.2,27.75,ENE,58,0.0,3.0,77,0.00,,CLR,0.00,VWS V14.01,2013-09-29 22:18:00,
2013-09-29 18:19:00,73.9,66.2,27.75,ENE,58,2.0,3.0,77,0.00,,CLR,0.00,VWS V14.01,2013-09-29 22:19:00,
2013-09-29 18:20:00,73.9,66.2,27.75,ENE,58,1.0,2.0,77,0.00,,CLR,0.00,VWS V14.01,2013-09-29 22:20:00,
2013-09-29 18:21:00,73.9,66.2,27.75,ENE,74,5.0,6.0,77,0.00,,CLR,0.00,VWS V14.01,2013-09-29 22:21:00,
2013-09-29 18:22:00,73.9,66.2,27.75,NE,48,7.0,8.0,77,0.00,,CLR,0.00,VWS V14.01,2013-09-29 22:22:00,
2013-09-29 18:23:00,73.7,66.1,27.75,NE,39,5.0,5.0,77,0.00,,CLR,0.00,VWS V14.01,2013-09-29 22:23:00,
2013-09-29 18:24:00,73.7,66.1,27.75,ENE,67,4.0,5.0,77,0.00,,CLR,0.00,VWS V14.01,2013-09-29 22:24:00,
2013-09-29 18:25:00,73.7,66.1,27.75,ENE,70,6.0,7.0,77,0.00,,CLR,0.00,VWS V14.01,2013-09-29 22:25:00,
2013-09-29 18:26:00,73.7,66.1,27.75,ENE,74,6.0,6.0,77,0.00,,CLR,0.00,VWS V14.01,2013-09-29 22:26:00,
2013-09-29 18:27:00,73.7,66.1,27.75,NE,48,5.0,6.0,77,0.00,,CLR,0.00,VWS V14.01,2013-09-29 22:27:00,
2013-09-29 18:28:00,73.7,66.1,27.75,NE,49,4.0,5.0,77,0.00,,CLR,0.00,VWS V14.01,2013-09-29 22:28:00,
2013-09-29 18:29:00,73.7,66.1,27.75,ENE,59,4.0,5.0,77,0.00,,CLR,0.00,VWS V14.01,2013-09-29 22:29:00,
2013-09-29 18:30:00,73.7,66.1,27.75,NE,53,6.0,6.0,77,0.00,,CLR,0.00,VWS V14.01,2013-09-29 22:30:00,
2013-09-29 18:31:00,73.7,66.1,27.75,ENE,62,2.0,6.0,77,0.00,,CLR,0.00,VWS V14.01,2013-09-29 22:31:00,
2013-09-29 18:32:00,73.7,66.4,27.75,NNE,32,3.0,3.0,78,0.00,,CLR,0.00,VWS V14.01,2013-09-29 22:32:00,
2013-09-29 18:33:00,73.5,66.2,27.75,ENE,72,5.0,5.0,78,0.00,,CLR,0.00,VWS V14.01,2013-09-29 22:33:00,
2013-09-29 18:34:00,73.5,66.2,27.75,ENE,65,3.0,5.0,78,0.00,,CLR,0.00,VWS V14.01,2013-09-29 22:34:00,
2013-09-29 18:35:00,73.5,66.2,27.75,NE,51,5.0,5.0,78,0.00,,CLR,0.00,VWS V14.01,2013-09-29 22:35:00,
2013-09-29 18:36:00,73.5,66.2,27.75,NE,43,3.0,5.0,78,0.00,,CLR,0.00,VWS V14.01,2013-09-29 22:36:00,
2013-09-29 18:37:00,73.3,66.0,27.75,ENE,61,0.0,5.0,78,0.00,,CLR,0.00,VWS V14.01,2013-09-29 22:37:00,
2013-09-29 18:38:00,73.2,65.9,27.75,ENE,67,8.0,8.0,78,0.00,,CLR,0.00,VWS V14.01,2013-09-29 22:38:00,
2013-09-29 18:39:00,73.2,65.9,27.75,ENE,61,4.0,8.0,78,0.00,,CLR,0.00,VWS V14.01,2013-09-29 22:39:00,
2013-09-29 18:40:00,73.2,65.9,27.75,NE,49,4.0,4.0,78,0.00,,CLR,0.00,VWS V14.01,2013-09-29 22:40:00,
2013-09-29 18:41:00,73.2,65.9,27.75,NE,44,4.0,4.0,78,0.00,,CLR,0.00,VWS V14.01,2013-09-29 22:41:00,
2013-09-29 18:42:00,73.0,66.1,27.75,NE,56,3.0,6.0,79,0.00,,CLR,0.00,VWS V14.01,2013-09-29 22:42:00,
2013-09-29 18:43:00,73.0,66.1,29.20,NE,48,1.0,3.0,79,0.00,,CLR,0.00,VWS V14.01,2013-09-29 22:43:00,
2013-09-29 18:44:00,73.0,66.1,29.20,NE,48,3.0,3.0,79,0.00,,CLR,0.00,VWS V14.01,2013-09-29 22:44:00,
2013-09-29 18:45:00,72.8,65.9,29.20,NE,38,4.0,4.0,79,0.00,,CLR,0.00,VWS V14.01,2013-09-29 22:45:00,
2013-09-29 18:46:00,72.8,65.9,29.20,NE,55,5.0,5.0,79,0.00,,CLR,0.00,VWS V14.01,2013-09-29 22:46:00,
2013-09-29 18:47:00,72.7,65.8,29.06,ENE,63,4.0,5.0,79,0.00,,CLR,0.00,VWS V14.01,2013-09-29 22:47:00,
2013-09-29 18:48:00,72.7,65.8,29.20,NE,44,4.0,4.0,79,0.00,,CLR,0.00,VWS V14.01,2013-09-29 22:48:00,
2013-09-29 18:49:00,72.7,65.8,29.06,NE,53,4.0,5.0,79,0.00,,CLR,0.00,VWS V14.01,2013-09-29 22:49:00,
2013-09-29 18:50:00,72.7,65.8,29.06,NE,44,3.0,4.0,79,0.00,,CLR,0.00,VWS V14.01,2013-09-29 22:50:00,
2013-09-29 18:51:00,72.7,65.8,29.06,ENE,61,3.0,4.0,79,0.00,,CLR,0.00,VWS V14.01,2013-09-29 22:51:00,
2013-09-29 18:52:00,72.5,65.6,29.31,NE,49,5.0,7.0,79,0.00,,CLR,0.00,VWS V14.01,2013-09-29 22:52:00,
2013-09-29 18:53:00,72.7,65.8,29.06,NE,40,5.0,5.0,79,0.00,,CLR,0.00,VWS V14.01,2013-09-29 22:53:00,
2013-09-29 18:54:00,72.5,65.3,29.31,NE,49,2.0,7.0,78,0.00,,CLR,0.00,VWS V14.01,2013-09-29 22:54:00,
2013-09-29 18:55:00,72.5,65.3,29.31,NE,51,3.0,4.0,78,0.00,,CLR,0.00,VWS V14.01,2013-09-29 22:55:00,
2013-09-29 18:56:00,72.5,65.6,29.31,NE,51,3.0,3.0,79,0.00,,CLR,0.00,VWS V14.01,2013-09-29 22:56:00,
2013-09-29 18:57:00,72.3,65.4,29.31,NE,46,5.0,5.0,79,0.00,,CLR,0.00,VWS V14.01,2013-09-29 22:57:00,
2013-09-29 18:58:00,72.3,65.4,29.31,NE,50,3.0,4.0,79,0.00,,CLR,0.00,VWS V14.01,2013-09-29 22:58:00,
2013-09-29 18:59:00,72.3,65.4,29.31,NE,36,4.0,5.0,79,0.00,,CLR,0.00,VWS V14.01,2013-09-29 22:59:00,
2013-09-29 19:00:00,72.3,65.4,29.31,NE,38,2.0,4.0,79,0.00,,CLR,0.00,VWS V14.01,2013-09-29 23:00:00,
2013-09-29 19:01:00,72.3,65.4,29.31,NE,47,0.0,4.0,79,0.00,,CLR,0.00,VWS V14.01,2013-09-29 23:01:00,
2013-09-29 19:02:00,72.1,65.2,29.31,NE,35,1.0,5.0,79,0.00,,CLR,0.00,VWS V14.01,2013-09-29 23:02:00,
2013-09-29 19:03:00,72.1,65.2,29.31,NE,48,3.0,4.0,79,0.00,,CLR,0.00,VWS V14.01,2013-09-29 23:03:00,
2013-09-29 19:04:00,72.1,65.2,29.31,NE,42,2.0,5.0,79,0.00,,CLR,0.00,VWS V14.01,2013-09-29 23:04:00,
2013-09-29 19:05:00,72.0,65.1,29.31,NE,42,2.0,2.0,79,0.00,,CLR,0.00,VWS V14.01,2013-09-29 23:05:00,
2013-09-29 19:06:00,72.0,65.1,29.31,NE,38,4.0,4.0,79,0.00,,CLR,0.00,VWS V14.01,2013-09-29 23:06:00,
2013-09-29 19:07:00,71.8,64.9,29.11,NE,55,2.0,3.0,79,0.00,,CLR,0.00,VWS V14.01,2013-09-29 23:07:00,
2013-09-29 19:08:00,71.8,64.9,29.11,NE,55,2.0,3.0,79,0.00,,CLR,0.00,VWS V14.01,2013-09-29 23:08:00,
2013-09-29 19:09:00,71.8,64.9,29.11,NE,53,1.0,3.0,79,0.00,,CLR,0.00,VWS V14.01,2013-09-29 23:09:00,
2013-09-29 19:10:00,71.8,64.9,29.11,NE,36,3.0,3.0,79,0.00,,CLR,0.00,VWS V14.01,2013-09-29 23:10:00,
2013-09-29 19:11:00,71.8,64.6,29.11,NE,52,5.0,5.0,78,0.00,,CLR,0.00,VWS V14.01,2013-09-29 23:11:00,
2013-09-29 19:12:00,71.6,64.4,29.11,NE,55,2.0,5.0,78,0.00,,CLR,0.00,VWS V14.01,2013-09-29 23:12:00,
2013-09-29 19:13:00,71.8,64.6,29.11,NE,55,5.0,5.0,78,0.00,,CLR,0.00,VWS V14.01,2013-09-29 23:13:00,
2013-09-29 19:14:00,71.6,64.4,29.11,NE,55,2.0,5.0,78,0.00,,CLR,0.00,VWS V14.01,2013-09-29 23:14:00,
2013-09-29 19:15:00,71.6,64.4,29.11,NE,36,3.0,4.0,78,0.00,,CLR,0.00,VWS V14.01,2013-09-29 23:15:00,
2013-09-29 19:16:00,71.6,64.4,29.11,NE,36,2.0,3.0,78,0.00,,CLR,0.00,VWS V14.01,2013-09-29 23:16:00,
2013-09-29 19:17:00,71.6,64.4,29.11,NE,36,1.0,3.0,78,0.00,,CLR,0.00,VWS V14.01,2013-09-29 23:17:00,
2013-09-29 19:18:00,71.6,64.4,29.11,NE,36,1.0,4.0,78,0.00,,CLR,0.00,VWS V14.01,2013-09-29 23:18:00,
2013-09-29 19:19:00,71.5,64.3,29.11,ENE,74,2.0,3.0,78,0.00,,CLR,0.00,VWS V14.01,2013-09-29 23:19:00,
2013-09-29 19:20:00,71.5,64.3,29.11,NE,36,2.0,3.0,78,0.00,,CLR,0.00,VWS V14.01,2013-09-29 23:20:00,
2013-09-29 19:22:00,71.5,64.3,29.11,NE,40,4.0,4.0,78,0.00,,CLR,0.00,VWS V14.01,2013-09-29 23:22:00,
2013-09-29 19:23:00,71.5,64.7,29.11,NE,40,1.0,5.0,79,0.00,,CLR,0.00,VWS V14.01,2013-09-29 23:23:00,
2013-09-29 19:24:00,71.3,64.5,29.11,NE,40,2.0,4.0,79,0.00,,CLR,0.00,VWS V14.01,2013-09-29 23:24:00,
2013-09-29 19:26:00,71.3,64.5,29.11,NE,40,2.0,4.0,79,0.00,,CLR,0.00,VWS V14.01,2013-09-29 23:26:00,
2013-09-29 19:27:00,71.3,64.5,29.11,NNE,24,3.0,3.0,79,0.00,,CLR,0.00,VWS V14.01,2013-09-29 23:27:00,
2013-09-29 19:28:00,71.3,64.5,29.11,NNE,24,2.0,3.0,79,0.00,,CLR,0.00,VWS V14.01,2013-09-29 23:28:00,
2013-09-29 19:29:00,71.3,64.5,29.11,NE,41,2.0,3.0,79,0.00,,CLR,0.00,VWS V14.01,2013-09-29 23:29:00,
2013-09-29 19:30:00,71.3,64.5,29.11,NE,41,2.0,2.0,79,0.00,,CLR,0.00,VWS V14.01,2013-09-29 23:30:00,
2013-09-29 19:31:00,71.3,64.5,29.11,NE,41,2.0,3.0,79,0.00,,CLR,0.00,VWS V14.01,2013-09-29 23:31:00,
2013-09-29 19:32:00,71.3,64.5,29.11,NE,41,1.0,4.0,79,0.00,,CLR,0.00,VWS V14.01,2013-09-29 23:32:00,
2013-09-29 19:33:00,71.1,64.3,29.11,NE,49,2.0,3.0,79,0.00,,CLR,0.00,VWS V14.01,2013-09-29 23:33:00,
2013-09-29 19:34:00,71.1,64.6,29.11,ENE,60,2.0,2.0,80,0.00,,CLR,0.00,VWS V14.01,2013-09-29 23:34:00,
2013-09-29 19:35:00,71.1,64.6,29.11,ENE,66,2.0,3.0,80,0.00,,CLR,0.00,VWS V14.01,2013-09-29 23:35:00,
2013-09-29 19:36:00,71.1,64.6,29.11,ENE,60,1.0,2.0,80,0.00,,CLR,0.00,VWS V14.01,2013-09-29 23:36:00,
2013-09-29 19:37:00,71.1,64.6,29.11,NE,47,4.0,4.0,80,0.00,,CLR,0.00,VWS V14.01,2013-09-29 23:37:00,
2013-09-29 19:38:00,71.1,64.6,29.11,NE,44,4.0,4.0,80,0.00,,CLR,0.00,VWS V14.01,2013-09-29 23:38:00,
2013-09-29 19:39:00,70.9,64.4,29.11,NE,42,3.0,3.0,80,0.00,,CLR,0.00,VWS V14.01,2013-09-29 23:39:00,
2013-09-29 19:40:00,70.9,64.4,29.11,NE,42,1.0,4.0,80,0.00,,CLR,0.00,VWS V14.01,2013-09-29 23:40:00,
2013-09-29 19:41:00,70.9,64.4,29.11,NE,40,2.0,3.0,80,0.00,,CLR,0.00,VWS V14.01,2013-09-29 23:41:00,
2013-09-29 19:42:00,70.9,64.8,29.11,NE,40,2.0,4.0,81,0.00,,CLR,0.00,VWS V14.01,2013-09-29 23:42:00,
2013-09-29 19:43:00,70.9,64.8,29.11,NE,40,2.0,4.0,81,0.00,,CLR,0.00,VWS V14.01,2013-09-29 23:43:00,
2013-09-29 19:44:00,70.8,64.7,29.11,NE,34,1.0,1.0,81,0.00,,CLR,0.00,VWS V14.01,2013-09-29 23:44:00,
2013-09-29 19:45:00,70.8,64.7,29.11,NE,34,1.0,4.0,81,0.00,,CLR,0.00,VWS V14.01,2013-09-29 23:45:00,
2013-09-29 19:46:00,70.8,64.7,29.11,NE,34,2.0,2.0,81,0.00,,CLR,0.00,VWS V14.01,2013-09-29 23:46:00,
2013-09-29 19:47:00,70.8,64.7,29.11,NE,34,2.0,3.0,81,0.00,,CLR,0.00,VWS V14.01,2013-09-29 23:47:00,
2013-09-29 19:48:00,70.8,64.7,29.11,NE,34,1.0,2.0,81,0.00,,CLR,0.00,VWS V14.01,2013-09-29 23:48:00,
2013-09-29 19:49:00,70.6,64.5,29.11,NE,34,1.0,2.0,81,0.00,,CLR,0.00,VWS V14.01,2013-09-29 23:49:00,
2013-09-29 19:50:00,70.6,64.5,29.11,NE,34,2.0,2.0,81,0.00,,CLR,0.00,VWS V14.01,2013-09-29 23:50:00,
2013-09-29 19:51:00,70.6,64.5,29.11,NE,34,2.0,2.0,81,0.00,,CLR,0.00,VWS V14.01,2013-09-29 23:51:00,
2013-09-29 19:52:00,70.6,64.5,29.11,NE,34,1.0,2.0,81,0.00,,CLR,0.00,VWS V14.01,2013-09-29 23:52:00,
2013-09-29 19:53:00,70.6,64.5,29.11,NE,34,0.0,2.0,81,0.00,,CLR,0.00,VWS V14.01,2013-09-29 23:53:00,
2013-09-29 19:54:00,70.6,64.5,29.11,NE,34,1.0,2.0,81,0.00,,CLR,0.00,VWS V14.01,2013-09-29 23:54:00,
2013-09-29 19:55:00,70.6,64.5,29.11,NE,34,2.0,2.0,81,0.00,,CLR,0.00,VWS V14.01,2013-09-29 23:55:00,
2013-09-29 19:56:00,70.6,64.5,29.11,NE,34,1.0,2.0,81,0.00,,CLR,0.00,VWS V14.01,2013-09-29 23:56:00,
2013-09-29 19:57:00,70.4,64.3,29.11,NE,34,0.0,1.0,81,0.00,,CLR,0.00,VWS V14.01,2013-09-29 23:57:00,
2013-09-29 19:58:00,70.4,64.7,28.59,NE,34,0.0,2.0,82,0.00,,CLR,0.00,VWS V14.01,2013-09-29 23:58:00,
2013-09-29 19:59:00,70.4,64.7,28.59,NE,34,0.0,3.0,82,0.00,,CLR,0.00,VWS V14.01,2013-09-29 23:59:00,
2013-09-29 20:00:00,70.4,64.7,28.59,NE,34,3.0,3.0,82,0.00,,CLR,0.00,VWS V14.01,2013-09-30 00:00:00,
2013-09-29 20:01:00,70.4,64.7,28.59,NE,34,2.0,3.0,82,0.00,,CLR,0.00,VWS V14.01,2013-09-30 00:01:00,
2013-09-29 20:02:00,70.4,64.7,28.59,NE,34,0.0,2.0,82,0.00,,CLR,0.00,VWS V14.01,2013-09-30 00:02:00,
2013-09-29 20:03:00,70.4,64.7,28.59,NE,34,1.0,1.0,82,0.00,,CLR,0.00,VWS V14.01,2013-09-30 00:03:00,
2013-09-29 20:04:00,70.4,64.7,28.59,NE,34,2.0,2.0,82,0.00,,CLR,0.00,VWS V14.01,2013-09-30 00:04:00,
2013-09-29 20:05:00,70.4,64.7,28.59,NE,34,0.0,3.0,82,0.00,,CLR,0.00,VWS V14.01,2013-09-30 00:05:00,
2013-09-29 20:06:00,70.4,64.7,28.59,North,360,3.0,3.0,82,0.00,,CLR,0.00,VWS V14.01,2013-09-30 00:06:00,
2013-09-29 20:07:00,70.4,64.7,28.59,North,360,0.0,3.0,82,0.00,,CLR,0.00,VWS V14.01,2013-09-30 00:07:00,
2013-09-29 20:08:00,70.3,64.6,28.59,North,360,2.0,2.0,82,0.00,,CLR,0.00,VWS V14.01,2013-09-30 00:08:00,
2013-09-29 20:09:00,70.3,64.6,28.59,NE,36,2.0,2.0,82,0.00,,CLR,0.00,VWS V14.01,2013-09-30 00:09:00,
2013-09-29 20:10:00,70.3,64.6,28.59,NE,36,1.0,3.0,82,0.00,,CLR,0.00,VWS V14.01,2013-09-30 00:10:00,
2013-09-29 20:11:00,70.3,64.6,28.59,NE,36,2.0,2.0,82,0.00,,CLR,0.00,VWS V14.01,2013-09-30 00:11:00,
2013-09-29 20:12:00,70.3,64.6,28.59,NE,36,2.0,4.0,82,0.00,,CLR,0.00,VWS V14.01,2013-09-30 00:12:00,
2013-09-29 20:13:00,70.3,64.6,28.59,NE,36,0.0,2.0,82,0.00,,CLR,0.00,VWS V14.01,2013-09-30 00:13:00,
2013-09-29 20:14:00,70.1,64.7,28.59,NE,36,2.0,3.0,83,0.00,,CLR,0.00,VWS V14.01,2013-09-30 00:14:00,
2013-09-29 20:15:00,70.3,64.6,28.59,NE,36,0.0,1.0,82,0.00,,CLR,0.00,VWS V14.01,2013-09-30 00:15:00,
2013-09-29 20:16:00,70.1,64.7,28.59,NE,36,0.0,3.0,83,0.00,,CLR,0.00,VWS V14.01,2013-09-30 00:16:00,
2013-09-29 20:17:00,70.1,64.7,28.59,North,355,1.0,4.0,83,0.00,,CLR,0.00,VWS V14.01,2013-09-30 00:17:00,
2013-09-29 20:18:00,70.1,64.7,28.69,North,355,0.0,2.0,83,0.00,,CLR,0.00,VWS V14.01,2013-09-30 00:18:00,
2013-09-29 20:19:00,70.1,64.7,28.69,NNE,20,3.0,3.0,83,0.00,,CLR,0.00,VWS V14.01,2013-09-30 00:19:00,
2013-09-29 20:20:00,70.1,64.7,28.69,NNE,21,2.0,2.0,83,0.00,,CLR,0.00,VWS V14.01,2013-09-30 00:20:00,
2013-09-29 20:21:00,70.1,64.7,28.69,NNE,22,2.0,3.0,83,0.00,,CLR,0.00,VWS V14.01,2013-09-30 00:21:00,
2013-09-29 20:22:00,70.1,64.7,28.69,NNE,22,1.0,2.0,83,0.00,,CLR,0.00,VWS V14.01,2013-09-30 00:22:00,
2013-09-29 20:23:00,70.1,64.7,28.69,NNE,22,1.0,1.0,83,0.00,,CLR,0.00,VWS V14.01,2013-09-30 00:23:00,
2013-09-29 20:24:00,69.9,64.5,28.69,NNE,12,0.0,2.0,83,0.00,,CLR,0.00,VWS V14.01,2013-09-30 00:24:00,
2013-09-29 20:25:00,69.9,64.5,28.69,NNE,12,2.0,3.0,83,0.00,,CLR,0.00,VWS V14.01,2013-09-30 00:25:00,
2013-09-29 20:26:00,69.9,64.5,28.69,NNE,12,2.0,2.0,83,0.00,,CLR,0.00,VWS V14.01,2013-09-30 00:26:00,
2013-09-29 20:27:00,69.9,64.5,28.69,NNE,12,0.0,2.0,83,0.00,,CLR,0.00,VWS V14.01,2013-09-30 00:27:00,
2013-09-29 20:28:00,69.9,64.5,28.39,NNE,12,2.0,2.0,83,0.00,,CLR,0.00,VWS V14.01,2013-09-30 00:28:00,
2013-09-29 20:29:00,69.9,64.5,28.39,NNW,346,2.0,3.0,83,0.00,,CLR,0.00,VWS V14.01,2013-09-30 00:29:00,
2013-09-29 20:30:00,69.9,64.5,28.39,NNW,346,3.0,3.0,83,0.00,,CLR,0.00,VWS V14.01,2013-09-30 00:30:00,
2013-09-29 20:31:00,69.9,64.8,28.39,NNW,346,1.0,3.0,84,0.00,,CLR,0.00,VWS V14.01,2013-09-30 00:31:00,
2013-09-29 20:32:00,69.9,64.8,28.39,NNW,346,3.0,3.0,84,0.00,,CLR,0.00,VWS V14.01,2013-09-30 00:32:00,
2013-09-29 20:33:00,69.9,64.8,28.39,NNW,346,1.0,3.0,84,0.00,,CLR,0.00,VWS V14.01,2013-09-30 00:33:00,
2013-09-29 20:34:00,69.8,64.8,28.39,NNW,344,3.0,3.0,84,0.00,,CLR,0.00,VWS V14.01,2013-09-30 00:34:00,
2013-09-29 20:35:00,69.9,64.8,28.39,NNW,346,1.0,2.0,84,0.00,,CLR,0.00,VWS V14.01,2013-09-30 00:35:00,
2013-09-29 20:36:00,69.8,64.8,28.39,NNW,344,2.0,3.0,84,0.00,,CLR,0.00,VWS V14.01,2013-09-30 00:36:00,
2013-09-29 20:37:00,69.8,64.8,28.39,NNW,344,0.0,2.0,84,0.00,,CLR,0.00,VWS V14.01,2013-09-30 00:37:00,
2013-09-29 20:38:00,69.8,64.8,28.93,NNW,344,1.0,1.0,84,0.00,,CLR,0.00,VWS V14.01,2013-09-30 00:38:00,
2013-09-29 20:39:00,69.8,64.8,28.91,NNW,348,0.0,1.0,84,0.00,,CLR,0.00,VWS V14.01,2013-09-30 00:39:00,
2013-09-29 20:40:00,69.8,64.8,28.91,NNW,348,1.0,2.0,84,0.00,,CLR,0.00,VWS V14.01,2013-09-30 00:40:00,
2013-09-29 20:41:00,69.8,64.8,28.91,NNW,348,0.0,1.0,84,0.00,,CLR,0.00,VWS V14.01,2013-09-30 00:41:00,
2013-09-29 20:42:00,69.8,64.8,28.91,NNW,348,1.0,1.0,84,0.00,,CLR,0.00,VWS V14.01,2013-09-30 00:42:00,
2013-09-29 20:43:00,69.6,64.6,28.96,North,350,2.0,2.0,84,0.00,,CLR,0.00,VWS V14.01,2013-09-30 00:43:00,
2013-09-29 20:44:00,69.6,64.6,28.85,North,355,0.0,1.0,84,0.00,,CLR,0.00,VWS V14.01,2013-09-30 00:44:00,
2013-09-29 20:45:00,69.6,64.9,28.96,North,355,1.0,2.0,85,0.00,,CLR,0.00,VWS V14.01,2013-09-30 00:45:00,
2013-09-29 20:46:00,69.6,64.6,28.85,North,355,0.0,1.0,84,0.00,,CLR,0.00,VWS V14.01,2013-09-30 00:46:00,
2013-09-29 20:47:00,69.6,64.9,28.85,North,355,0.0,1.0,85,0.00,,CLR,0.00,VWS V14.01,2013-09-30 00:47:00,
2013-09-29 20:48:00,69.6,64.9,28.81,North,355,1.0,1.0,85,0.00,,CLR,0.00,VWS V14.01,2013-09-30 00:48:00,
2013-09-29 20:49:00,69.4,64.7,28.89,North,355,0.0,0.0,85,0.00,,CLR,0.00,VWS V14.01,2013-09-30 00:49:00,
2013-09-29 20:50:00,69.4,64.7,28.89,North,355,0.0,0.0,85,0.00,,CLR,0.00,VWS V14.01,2013-09-30 00:50:00,
2013-09-29 20:51:00,69.4,64.7,28.89,North,355,0.0,0.0,85,0.00,,CLR,0.00,VWS V14.01,2013-09-30 00:51:00,
2013-09-29 20:52:00,69.4,64.7,28.89,North,355,2.0,2.0,85,0.00,,CLR,0.00,VWS V14.01,2013-09-30 00:52:00,
2013-09-29 20:53:00,69.4,64.7,28.89,North,355,0.0,2.0,85,0.00,,CLR,0.00,VWS V14.01,2013-09-30 00:53:00,
2013-09-29 20:54:00,69.4,64.7,28.90,North,355,0.0,0.0,85,0.00,,CLR,0.00,VWS V14.01,2013-09-30 00:54:00,
2013-09-29 20:55:00,69.4,64.7,28.90,North,355,0.0,2.0,85,0.00,,CLR,0.00,VWS V14.01,2013-09-30 00:55:00,
2013-09-29 20:56:00,69.3,64.6,28.90,North,355,1.0,1.0,85,0.00,,CLR,0.00,VWS V14.01,2013-09-30 00:56:00,
2013-09-29 20:57:00,69.3,64.6,28.88,North,355,1.0,1.0,85,0.00,,CLR,0.00,VWS V14.01,2013-09-30 00:57:00,
2013-09-29 20:58:00,69.3,64.6,28.89,North,355,2.0,2.0,85,0.00,,CLR,0.00,VWS V14.01,2013-09-30 00:58:00,
2013-09-29 20:59:00,69.3,64.6,28.89,North,355,2.0,2.0,85,0.00,,CLR,0.00,VWS V14.01,2013-09-30 00:59:00,
2013-09-29 21:00:00,69.3,64.6,28.89,North,355,0.0,2.0,85,0.00,,CLR,0.00,VWS V14.01,2013-09-30 01:00:00,
2013-09-29 21:01:00,69.3,64.6,28.89,North,355,0.0,2.0,85,0.00,,CLR,0.00,VWS V14.01,2013-09-30 01:01:00,
2013-09-29 21:02:00,69.3,64.6,28.89,North,355,1.0,1.0,85,0.00,,CLR,0.00,VWS V14.01,2013-09-30 01:02:00,
2013-09-29 21:03:00,69.1,64.4,28.89,North,355,0.0,1.0,85,0.00,,CLR,0.00,VWS V14.01,2013-09-30 01:03:00,
2013-09-29 21:04:00,69.1,64.7,28.77,North,355,0.0,1.0,86,0.00,,CLR,0.00,VWS V14.01,2013-09-30 01:04:00,
2013-09-29 21:05:00,69.1,64.7,28.77,North,355,0.0,2.0,86,0.00,,CLR,0.00,VWS V14.01,2013-09-30 01:05:00,
2013-09-29 21:06:00,69.1,64.7,28.77,North,355,0.0,1.0,86,0.00,,CLR,0.00,VWS V14.01,2013-09-30 01:06:00,
2013-09-29 21:07:00,69.1,64.7,28.77,North,355,0.0,1.0,86,0.00,,CLR,0.00,VWS V14.01,2013-09-30 01:07:00,
2013-09-29 21:08:00,69.1,64.7,28.85,North,355,0.0,0.0,86,0.00,,CLR,0.00,VWS V14.01,2013-09-30 01:08:00,
2013-09-29 21:09:00,69.1,64.7,28.85,North,355,1.0,1.0,86,0.00,,CLR,0.00,VWS V14.01,2013-09-30 01:09:00,
2013-09-29 21:10:00,69.1,64.7,28.85,North,355,0.0,1.0,86,0.00,,CLR,0.00,VWS V14.01,2013-09-30 01:10:00,
2013-09-29 21:11:00,68.9,64.5,28.85,North,355,0.0,1.0,86,0.00,,CLR,0.00,VWS V14.01,2013-09-30 01:11:00,
2013-09-29 21:12:00,68.9,64.5,28.81,North,355,0.0,1.0,86,0.00,,CLR,0.00,VWS V14.01,2013-09-30 01:12:00,
2013-09-29 21:13:00,68.9,64.5,28.81,North,355,1.0,1.0,86,0.00,,CLR,0.00,VWS V14.01,2013-09-30 01:13:00,
2013-09-29 21:14:00,68.9,64.6,28.81,North,355,1.0,2.0,86,0.00,,CLR,0.00,VWS V14.01,2013-09-30 01:14:00,
2013-09-29 21:15:00,68.9,64.5,28.81,North,355,2.0,2.0,86,0.00,,CLR,0.00,VWS V14.01,2013-09-30 01:15:00,
2013-09-29 21:16:00,68.9,64.5,28.81,North,355,1.0,2.0,86,0.00,,CLR,0.00,VWS V14.01,2013-09-30 01:16:00,
2013-09-29 21:17:00,68.9,64.5,28.81,North,355,1.0,1.0,86,0.00,,CLR,0.00,VWS V14.01,2013-09-30 01:17:00,
2013-09-29 21:18:00,68.9,64.5,28.81,North,355,3.0,3.0,86,0.00,,CLR,0.00,VWS V14.01,2013-09-30 01:18:00,
2013-09-29 21:19:00,68.8,64.4,28.81,North,5,1.0,1.0,86,0.00,,CLR,0.00,VWS V14.01,2013-09-30 01:19:00,
2013-09-29 21:20:00,68.8,64.4,28.81,North,360,1.0,3.0,86,0.00,,CLR,0.00,VWS V14.01,2013-09-30 01:20:00,
2013-09-29 21:21:00,68.8,64.4,28.81,North,5,1.0,1.0,86,0.00,,CLR,0.00,VWS V14.01,2013-09-30 01:21:00,
2013-09-29 21:22:00,68.8,64.4,28.81,North,5,1.0,1.0,86,0.00,,CLR,0.00,VWS V14.01,2013-09-30 01:22:00,
2013-09-29 21:23:00,68.8,64.4,28.81,North,5,1.0,3.0,86,0.00,,CLR,0.00,VWS V14.01,2013-09-30 01:23:00,
2013-09-29 21:24:00,68.8,64.4,28.81,North,5,1.0,2.0,86,0.00,,CLR,0.00,VWS V14.01,2013-09-30 01:24:00,
2013-09-29 21:25:00,68.8,64.4,28.81,North,5,2.0,2.0,86,0.00,,CLR,0.00,VWS V14.01,2013-09-30 01:25:00,
2013-09-29 21:26:00,68.8,64.4,28.81,North,5,0.0,2.0,86,0.00,,CLR,0.00,VWS V14.01,2013-09-30 01:26:00,
2013-09-29 21:27:00,68.8,64.4,28.75,NNE,24,4.0,4.0,86,0.00,,CLR,0.00,VWS V14.01,2013-09-30 01:27:00,
2013-09-29 21:28:00,68.6,64.2,28.75,NNE,24,0.0,4.0,86,0.00,,CLR,0.00,VWS V14.01,2013-09-30 01:28:00,
2013-09-29 21:29:00,68.6,64.2,28.75,NNE,24,1.0,2.0,86,0.00,,CLR,0.00,VWS V14.01,2013-09-30 01:29:00,
2013-09-29 21:30:00,68.6,64.2,28.75,NNE,24,1.0,1.0,86,0.00,,CLR,0.00,VWS V14.01,2013-09-30 01:30:00,
2013-09-29 21:31:00,68.6,64.2,28.75,NNE,24,2.0,2.0,86,0.00,,CLR,0.00,VWS V14.01,2013-09-30 01:31:00,
2013-09-29 21:32:00,68.6,64.2,28.75,NNE,24,0.0,2.0,86,0.00,,CLR,0.00,VWS V14.01,2013-09-30 01:32:00,
2013-09-29 21:33:00,68.6,64.2,28.75,NNE,24,2.0,3.0,86,0.00,,CLR,0.00,VWS V14.01,2013-09-30 01:33:00,
2013-09-29 21:34:00,68.6,64.2,28.75,NNE,24,0.0,2.0,86,0.00,,CLR,0.00,VWS V14.01,2013-09-30 01:34:00,
2013-09-29 21:35:00,68.6,64.2,28.75,NNE,24,1.0,2.0,86,0.00,,CLR,0.00,VWS V14.01,2013-09-30 01:35:00,
2013-09-29 21:36:00,68.6,64.2,28.75,NNE,24,3.0,3.0,86,0.00,,CLR,0.00,VWS V14.01,2013-09-30 01:36:00,
2013-09-29 21:37:00,68.4,64.1,28.75,NNE,24,2.0,3.0,86,0.00,,CLR,0.00,VWS V14.01,2013-09-30 01:37:00,
2013-09-29 21:38:00,68.4,64.1,28.75,NNE,24,0.0,2.0,86,0.00,,CLR,0.00,VWS V14.01,2013-09-30 01:38:00,
2013-09-29 21:39:00,68.4,64.1,28.87,NNE,31,1.0,3.0,86,0.00,,CLR,0.00,VWS V14.01,2013-09-30 01:39:00,
2013-09-29 21:40:00,68.4,64.1,28.75,NNE,24,0.0,4.0,86,0.00,,CLR,0.00,VWS V14.01,2013-09-30 01:40:00,
2013-09-29 21:41:00,68.4,64.1,28.87,NNE,31,1.0,3.0,86,0.00,,CLR,0.00,VWS V14.01,2013-09-30 01:41:00,
2013-09-29 21:42:00,68.4,64.1,28.87,NNE,31,0.0,1.0,86,0.00,,CLR,0.00,VWS V14.01,2013-09-30 01:42:00,
2013-09-29 21:43:00,68.4,64.1,28.87,NNE,31,1.0,2.0,86,0.00,,CLR,0.00,VWS V14.01,2013-09-30 01:43:00,
2013-09-29 21:44:00,68.4,64.1,28.77,NNE,30,1.0,2.0,86,0.00,,CLR,0.00,VWS V14.01,2013-09-30 01:44:00,
2013-09-29 21:45:00,68.4,64.1,28.77,NNE,30,2.0,3.0,86,0.00,,CLR,0.00,VWS V14.01,2013-09-30 01:45:00,
2013-09-29 21:46:00,68.3,64.0,28.77,NNE,30,0.0,2.0,86,0.00,,CLR,0.00,VWS V14.01,2013-09-30 01:46:00,
2013-09-29 21:47:00,68.3,64.0,28.77,NNE,30,0.0,0.0,86,0.00,,CLR,0.00,VWS V14.01,2013-09-30 01:47:00,
2013-09-29 21:48:00,68.3,64.0,28.77,NNE,30,2.0,2.0,86,0.00,,CLR,0.00,VWS V14.01,2013-09-30 01:48:00,
2013-09-29 21:49:00,68.3,64.0,28.81,NNE,30,1.0,3.0,86,0.00,,CLR,0.00,VWS V14.01,2013-09-30 01:49:00,
2013-09-29 21:50:00,68.3,64.0,28.81,NNE,30,3.0,3.0,86,0.00,,CLR,0.00,VWS V14.01,2013-09-30 01:50:00,
2013-09-29 21:51:00,68.3,64.3,28.81,NNE,30,1.0,3.0,87,0.00,,CLR,0.00,VWS V14.01,2013-09-30 01:51:00,
2013-09-29 21:52:00,68.3,64.0,28.81,NE,37,4.0,4.0,86,0.00,,CLR,0.00,VWS V14.01,2013-09-30 01:52:00,
2013-09-29 21:53:00,68.3,64.3,28.81,NE,37,2.0,4.0,87,0.00,,CLR,0.00,VWS V14.01,2013-09-30 01:53:00,
2013-09-29 21:54:00,68.3,64.0,28.79,NNE,33,2.0,2.0,86,0.00,,CLR,0.00,VWS V14.01,2013-09-30 01:54:00,
2013-09-29 21:55:00,68.3,64.0,28.79,NNE,33,1.0,3.0,86,0.00,,CLR,0.00,VWS V14.01,2013-09-30 01:55:00,
2013-09-29 21:56:00,68.3,64.0,28.79,NE,34,1.0,3.0,86,0.00,,CLR,0.00,VWS V14.01,2013-09-30 01:56:00,
2013-09-29 21:57:00,68.3,64.0,28.79,NE,34,1.0,2.0,86,0.00,,CLR,0.00,VWS V14.01,2013-09-30 01:57:00,
2013-09-29 21:58:00,68.3,64.0,28.79,NE,34,2.0,2.0,86,0.00,,CLR,0.00,VWS V14.01,2013-09-30 01:58:00,
2013-09-29 21:59:00,68.3,64.0,28.79,NE,34,1.0,2.0,86,0.00,,CLR,0.00,VWS V14.01,2013-09-30 01:59:00,
2013-09-29 22:00:00,68.3,64.0,28.79,NE,34,2.0,2.0,86,0.00,,CLR,0.00,VWS V14.01,2013-09-30 02:00:00,
2013-09-29 22:01:00,68.3,64.0,28.79,NE,34,3.0,3.0,86,0.00,,CLR,0.00,VWS V14.01,2013-09-30 02:01:00,
2013-09-29 22:02:00,68.1,63.8,28.79,NE,34,2.0,3.0,86,0.00,,CLR,0.00,VWS V14.01,2013-09-30 02:02:00,
2013-09-29 22:03:00,68.1,63.8,28.68,NE,34,2.0,2.0,86,0.00,,CLR,0.00,VWS V14.01,2013-09-30 02:03:00,
2013-09-29 22:04:00,68.1,63.8,28.69,NE,34,1.0,1.0,86,0.00,,CLR,0.00,VWS V14.01,2013-09-30 02:04:00,
2013-09-29 22:05:00,68.1,63.8,28.69,NE,34,0.0,2.0,86,0.00,,CLR,0.00,VWS V14.01,2013-09-30 02:05:00,
2013-09-29 22:06:00,68.1,63.8,28.69,NE,34,3.0,3.0,86,0.00,,CLR,0.00,VWS V14.01,2013-09-30 02:06:00,
2013-09-29 22:07:00,68.1,63.8,28.69,NE,36,2.0,4.0,86,0.00,,CLR,0.00,VWS V14.01,2013-09-30 02:07:00,
2013-09-29 22:08:00,68.1,63.8,28.69,NE,36,0.0,3.0,86,0.00,,CLR,0.00,VWS V14.01,2013-09-30 02:08:00,
2013-09-29 22:09:00,68.1,63.8,28.80,NE,36,1.0,1.0,86,0.00,,CLR,0.00,VWS V14.01,2013-09-30 02:09:00,
2013-09-29 22:10:00,68.1,63.8,28.80,NE,36,0.0,2.0,86,0.00,,CLR,0.00,VWS V14.01,2013-09-30 02:10:00,
2013-09-29 22:11:00,68.1,63.8,28.80,NE,36,2.0,2.0,86,0.00,,CLR,0.00,VWS V14.01,2013-09-30 02:11:00,
2013-09-29 22:12:00,68.1,63.8,28.80,NE,36,2.0,2.0,86,0.00,,CLR,0.00,VWS V14.01,2013-09-30 02:12:00,
2013-09-29 22:13:00,68.1,63.8,28.80,NE,36,0.0,2.0,86,0.00,,CLR,0.00,VWS V14.01,2013-09-30 02:13:00,
2013-09-29 22:14:00,67.9,63.6,28.80,NE,36,2.0,3.0,86,0.00,,CLR,0.00,VWS V14.01,2013-09-30 02:14:00,
2013-09-29 22:15:00,67.9,63.6,28.80,NE,36,3.0,3.0,86,0.00,,CLR,0.00,VWS V14.01,2013-09-30 02:15:00,
2013-09-29 22:16:00,67.9,63.6,28.80,NE,36,0.0,3.0,86,0.00,,CLR,0.00,VWS V14.01,2013-09-30 02:16:00,
2013-09-29 22:17:00,67.9,63.6,28.70,NE,36,2.0,2.0,86,0.00,,CLR,0.00,VWS V14.01,2013-09-30 02:17:00,
2013-09-29 22:18:00,67.9,63.6,28.68,NE,36,1.0,3.0,86,0.00,,CLR,0.00,VWS V14.01,2013-09-30 02:18:00,
2013-09-29 22:19:00,67.9,63.2,28.68,NE,36,0.0,1.0,85,0.00,,CLR,0.00,VWS V14.01,2013-09-30 02:19:00,
2013-09-29 22:20:00,67.9,63.6,28.68,NE,36,0.0,2.0,86,0.00,,CLR,0.00,VWS V14.01,2013-09-30 02:20:00,
2013-09-29 22:21:00,67.9,63.2,28.68,NE,36,1.0,2.0,85,0.00,,CLR,0.00,VWS V14.01,2013-09-30 02:21:00,
2013-09-29 22:22:00,67.9,63.2,28.68,NE,36,0.0,1.0,85,0.00,,CLR,0.00,VWS V14.01,2013-09-30 02:22:00,
2013-09-29 22:23:00,67.9,63.2,28.68,NE,36,1.0,2.0,85,0.00,,CLR,0.00,VWS V14.01,2013-09-30 02:23:00,
2013-09-29 22:24:00,67.9,63.2,28.68,NE,36,1.0,1.0,85,0.00,,CLR,0.00,VWS V14.01,2013-09-30 02:24:00,
2013-09-29 22:25:00,67.9,63.2,28.68,NE,36,1.0,2.0,85,0.00,,CLR,0.00,VWS V14.01,2013-09-30 02:25:00,
2013-09-29 22:26:00,67.9,63.2,28.68,NE,36,2.0,2.0,85,0.00,,CLR,0.00,VWS V14.01,2013-09-30 02:26:00,
2013-09-29 22:27:00,67.9,63.2,28.68,NE,36,1.0,2.0,85,0.00,,CLR,0.00,VWS V14.01,2013-09-30 02:27:00,
2013-09-29 22:28:00,67.9,63.2,28.68,NE,36,1.0,2.0,85,0.00,,CLR,0.00,VWS V14.01,2013-09-30 02:28:00,
2013-09-29 22:29:00,67.9,63.2,28.68,NE,36,1.0,1.0,85,0.00,,CLR,0.00,VWS V14.01,2013-09-30 02:29:00,
2013-09-29 22:30:00,67.9,63.2,28.68,NE,36,1.0,2.0,85,0.00,,CLR,0.00,VWS V14.01,2013-09-30 02:30:00,
2013-09-29 22:31:00,67.8,63.1,28.68,NE,36,1.0,1.0,85,0.00,,CLR,0.00,VWS V14.01,2013-09-30 02:31:00,
2013-09-29 22:32:00,67.8,63.1,28.68,NE,36,1.0,1.0,85,0.00,,CLR,0.00,VWS V14.01,2013-09-30 02:32:00,
2013-09-29 22:33:00,67.8,63.1,28.68,NE,36,2.0,2.0,85,0.00,,CLR,0.00,VWS V14.01,2013-09-30 02:33:00,
2013-09-29 22:34:00,67.8,63.1,28.68,NE,36,1.0,1.0,85,0.00,,CLR,0.00,VWS V14.01,2013-09-30 02:34:00,
2013-09-29 22:35:00,67.8,63.1,28.68,NE,36,0.0,1.0,85,0.00,,CLR,0.00,VWS V14.01,2013-09-30 02:35:00,
2013-09-29 22:36:00,67.8,63.1,28.68,NE,36,1.0,1.0,85,0.00,,CLR,0.00,VWS V14.01,2013-09-30 02:36:00,
2013-09-29 22:37:00,67.8,63.1,28.68,NE,36,2.0,2.0,85,0.00,,CLR,0.00,VWS V14.01,2013-09-30 02:37:00,
2013-09-29 22:38:00,67.8,63.1,28.68,NE,36,2.0,2.0,85,0.00,,CLR,0.00,VWS V14.01,2013-09-30 02:38:00,
2013-09-29 22:39:00,67.8,63.1,28.68,NE,36,0.0,1.0,85,0.00,,CLR,0.00,VWS V14.01,2013-09-30 02:39:00,
2013-09-29 22:40:00,67.8,63.1,28.68,NE,36,1.0,2.0,85,0.00,,CLR,0.00,VWS V14.01,2013-09-30 02:40:00,
2013-09-29 22:41:00,67.8,63.1,28.68,NE,36,1.0,1.0,85,0.00,,CLR,0.00,VWS V14.01,2013-09-30 02:41:00,
2013-09-29 22:42:00,67.8,63.1,28.68,NE,36,2.0,2.0,85,0.00,,CLR,0.00,VWS V14.01,2013-09-30 02:42:00,
2013-09-29 22:43:00,67.8,63.1,28.68,NE,36,1.0,2.0,85,0.00,,CLR,0.00,VWS V14.01,2013-09-30 02:43:00,
2013-09-29 22:44:00,67.8,63.5,28.68,NE,36,2.0,2.0,86,0.00,,CLR,0.00,VWS V14.01,2013-09-30 02:44:00,
2013-09-29 22:45:00,67.8,63.5,28.68,NE,36,1.0,2.0,86,0.00,,CLR,0.00,VWS V14.01,2013-09-30 02:45:00,
2013-09-29 22:46:00,67.8,63.5,28.68,NE,36,2.0,2.0,86,0.00,,CLR,0.00,VWS V14.01,2013-09-30 02:46:00,
2013-09-29 22:47:00,67.8,63.5,28.88,NE,36,2.0,2.0,86,0.00,,CLR,0.00,VWS V14.01,2013-09-30 02:47:00,
2013-09-29 22:48:00,67.8,63.5,28.86,NE,36,2.0,3.0,86,0.00,,CLR,0.00,VWS V14.01,2013-09-30 02:48:00,
2013-09-29 22:49:00,67.6,63.3,28.88,NE,36,1.0,1.0,86,0.00,,CLR,0.00,VWS V14.01,2013-09-30 02:49:00,
2013-09-29 22:50:00,67.6,63.3,28.88,NE,36,1.0,2.0,86,0.00,,CLR,0.00,VWS V14.01,2013-09-30 02:50:00,
2013-09-29 22:51:00,67.6,63.3,28.88,NE,36,1.0,1.0,86,0.00,,CLR,0.00,VWS V14.01,2013-09-30 02:51:00,
2013-09-29 22:52:00,67.6,63.3,28.88,NE,36,2.0,3.0,86,0.00,,CLR,0.00,VWS V14.01,2013-09-30 02:52:00,
2013-09-29 22:53:00,67.6,63.3,28.88,NE,36,1.0,2.0,86,0.00,,CLR,0.00,VWS V14.01,2013-09-30 02:53:00,
2013-09-29 22:54:00,67.6,63.3,28.83,NE,36,0.0,2.0,86,0.00,,CLR,0.00,VWS V14.01,2013-09-30 02:54:00,
2013-09-29 22:55:00,67.6,63.3,28.83,NE,36,2.0,2.0,86,0.00,,CLR,0.00,VWS V14.01,2013-09-30 02:55:00,
2013-09-29 22:56:00,67.6,63.3,28.83,NE,36,0.0,2.0,86,0.00,,CLR,0.00,VWS V14.01,2013-09-30 02:56:00,
2013-09-29 22:57:00,67.6,63.3,28.83,NE,36,0.0,0.0,86,0.00,,CLR,0.00,VWS V14.01,2013-09-30 02:57:00,
2013-09-29 22:58:00,67.6,63.3,28.83,NE,36,0.0,1.0,86,0.00,,CLR,0.00,VWS V14.01,2013-09-30 02:58:00,
2013-09-29 22:59:00,67.6,63.3,28.83,NE,36,2.0,2.0,86,0.00,,CLR,0.00,VWS V14.01,2013-09-30 02:59:00,
2013-09-29 23:00:00,67.6,63.3,28.83,NE,36,2.0,2.0,86,0.00,,CLR,0.00,VWS V14.01,2013-09-30 03:00:00,
2013-09-29 23:01:00,67.6,63.3,28.83,NE,36,2.0,2.0,86,0.00,,CLR,0.00,VWS V14.01,2013-09-30 03:01:00,
2013-09-29 23:02:00,67.6,63.3,28.83,NE,36,2.0,2.0,86,0.00,,CLR,0.00,VWS V14.01,2013-09-30 03:02:00,
2013-09-29 23:03:00,67.6,63.3,28.83,NE,36,2.0,3.0,86,0.00,,CLR,0.00,VWS V14.01,2013-09-30 03:03:00,
2013-09-29 23:04:00,67.6,63.3,28.83,NE,36,2.0,3.0,86,0.00,,CLR,0.00,VWS V14.01,2013-09-30 03:04:00,
2013-09-29 23:05:00,67.6,63.3,28.83,NE,36,2.0,2.0,86,0.00,,CLR,0.00,VWS V14.01,2013-09-30 03:05:00,
2013-09-29 23:06:00,67.6,63.3,28.83,NE,36,2.0,3.0,86,0.00,,CLR,0.00,VWS V14.01,2013-09-30 03:06:00,
2013-09-29 23:07:00,67.6,63.6,28.83,NE,36,2.0,3.0,87,0.00,,CLR,0.00,VWS V14.01,2013-09-30 03:07:00,
2013-09-29 23:08:00,67.6,63.6,28.83,NE,36,2.0,3.0,87,0.00,,CLR,0.00,VWS V14.01,2013-09-30 03:08:00,
2013-09-29 23:09:00,67.6,63.6,28.83,NE,36,3.0,3.0,87,0.00,,CLR,0.00,VWS V14.01,2013-09-30 03:09:00,
2013-09-29 23:10:00,67.6,63.6,28.83,NE,36,0.0,2.0,87,0.00,,CLR,0.00,VWS V14.01,2013-09-30 03:10:00,
2013-09-29 23:11:00,67.6,63.6,28.83,NE,36,1.0,3.0,87,0.00,,CLR,0.00,VWS V14.01,2013-09-30 03:11:00,
2013-09-29 23:12:00,67.6,63.6,28.83,NE,36,1.0,2.0,87,0.00,,CLR,0.00,VWS V14.01,2013-09-30 03:12:00,
2013-09-29 23:13:00,67.6,63.6,28.83,NE,36,2.0,2.0,87,0.00,,CLR,0.00,VWS V14.01,2013-09-30 03:13:00,
2013-09-29 23:14:00,67.6,63.6,28.83,NE,36,1.0,1.0,87,0.00,,CLR,0.00,VWS V14.01,2013-09-30 03:14:00,
2013-09-29 23:15:00,67.6,63.6,28.83,NE,36,1.0,2.0,87,0.00,,CLR,0.00,VWS V14.01,2013-09-30 03:15:00,
2013-09-29 23:16:00,67.6,63.6,28.83,NE,36,2.0,2.0,87,0.00,,CLR,0.00,VWS V14.01,2013-09-30 03:16:00,
2013-09-29 23:17:00,67.6,63.6,28.83,NE,36,1.0,2.0,87,0.00,,CLR,0.00,VWS V14.01,2013-09-30 03:17:00,
2013-09-29 23:18:00,67.6,63.6,28.83,NE,36,2.0,2.0,87,0.00,,CLR,0.00,VWS V14.01,2013-09-30 03:18:00,
2013-09-29 23:19:00,67.4,63.4,28.77,NE,36,1.0,3.0,87,0.00,,CLR,0.00,VWS V14.01,2013-09-30 03:19:00,
2013-09-29 23:20:00,67.4,63.4,28.77,NE,36,3.0,3.0,87,0.00,,CLR,0.00,VWS V14.01,2013-09-30 03:20:00,
2013-09-29 23:21:00,67.6,63.6,28.77,NE,36,2.0,3.0,87,0.00,,CLR,0.00,VWS V14.01,2013-09-30 03:21:00,
2013-09-29 23:22:00,67.4,63.4,28.77,NE,36,2.0,2.0,87,0.00,,CLR,0.00,VWS V14.01,2013-09-30 03:22:00,
2013-09-29 23:23:00,67.4,63.4,28.77,NE,36,2.0,3.0,87,0.00,,CLR,0.00,VWS V14.01,2013-09-30 03:23:00,
2013-09-29 23:24:00,67.6,63.9,28.77,NE,36,2.0,2.0,88,0.00,,CLR,0.00,VWS V14.01,2013-09-30 03:24:00,
2013-09-29 23:25:00,67.6,63.6,28.77,NE,36,2.0,3.0,87,0.00,,CLR,0.00,VWS V14.01,2013-09-30 03:25:00,
2013-09-29 23:26:00,67.6,63.9,28.77,NE,36,3.0,3.0,88,0.00,,CLR,0.00,VWS V14.01,2013-09-30 03:26:00,
2013-09-29 23:27:00,67.6,63.9,28.77,NE,36,3.0,3.0,88,0.00,,CLR,0.00,VWS V14.01,2013-09-30 03:27:00,
2013-09-29 23:28:00,67.4,63.7,28.77,NE,36,2.0,3.0,88,0.00,,CLR,0.00,VWS V14.01,2013-09-30 03:28:00,
2013-09-29 23:29:00,67.4,63.7,28.77,NE,36,2.0,2.0,88,0.00,,CLR,0.00,VWS V14.01,2013-09-30 03:29:00,
2013-09-29 23:30:00,67.4,63.7,28.77,NE,36,2.0,2.0,88,0.00,,CLR,0.00,VWS V14.01,2013-09-30 03:30:00,
2013-09-29 23:31:00,67.4,63.7,28.77,NE,36,2.0,2.0,88,0.00,,CLR,0.00,VWS V14.01,2013-09-30 03:31:00,
2013-09-29 23:32:00,67.4,63.7,28.77,NE,36,2.0,2.0,88,0.00,,CLR,0.00,VWS V14.01,2013-09-30 03:32:00,
2013-09-29 23:33:00,67.4,63.7,28.77,NE,36,3.0,3.0,88,0.00,,CLR,0.00,VWS V14.01,2013-09-30 03:33:00,
2013-09-29 23:34:00,67.4,63.7,29.61,NE,36,1.0,1.0,88,0.00,,CLR,0.00,VWS V14.01,2013-09-30 03:34:00,
2013-09-29 23:35:00,67.4,63.7,29.57,NE,36,1.0,2.0,88,0.00,,CLR,0.00,VWS V14.01,2013-09-30 03:35:00,
2013-09-29 23:36:00,67.4,63.7,29.61,NE,36,1.0,1.0,88,0.00,,CLR,0.00,VWS V14.01,2013-09-30 03:36:00,
2013-09-29 23:37:00,67.4,63.7,29.65,NE,36,0.0,1.0,88,0.00,,CLR,0.00,VWS V14.01,2013-09-30 03:37:00,
2013-09-29 23:38:00,67.4,63.7,29.65,NE,36,0.0,0.0,88,0.00,,CLR,0.00,VWS V14.01,2013-09-30 03:38:00,
2013-09-29 23:39:00,67.4,63.7,29.65,NE,36,0.0,0.0,88,0.00,,CLR,0.00,VWS V14.01,2013-09-30 03:39:00,
2013-09-29 23:40:00,67.4,63.7,29.65,NE,36,0.0,1.0,88,0.00,,CLR,0.00,VWS V14.01,2013-09-30 03:40:00,
2013-09-29 23:41:00,67.4,63.7,29.65,NE,36,1.0,1.0,88,0.00,,CLR,0.00,VWS V14.01,2013-09-30 03:41:00,
2013-09-29 23:42:00,67.4,64.1,29.65,NE,36,1.0,1.0,89,0.00,,CLR,0.00,VWS V14.01,2013-09-30 03:42:00,
2013-09-29 23:43:00,67.4,64.1,29.65,NE,36,1.0,1.0,89,0.00,,CLR,0.00,VWS V14.01,2013-09-30 03:43:00,
2013-09-29 23:44:00,67.4,64.1,29.65,NE,36,2.0,2.0,89,0.00,,CLR,0.00,VWS V14.01,2013-09-30 03:44:00,
2013-09-29 23:45:00,67.4,64.1,29.65,NE,36,1.0,2.0,89,0.00,,CLR,0.00,VWS V14.01,2013-09-30 03:45:00,
2013-09-29 23:46:00,67.4,64.1,29.65,NE,36,1.0,2.0,89,0.00,,CLR,0.00,VWS V14.01,2013-09-30 03:46:00,
2013-09-29 23:47:00,67.4,64.1,29.65,NE,36,2.0,2.0,89,0.00,,CLR,0.00,VWS V14.01,2013-09-30 03:47:00,
2013-09-29 23:48:00,67.4,64.1,29.65,NE,36,2.0,2.0,89,0.00,,CLR,0.00,VWS V14.01,2013-09-30 03:48:00,
2013-09-29 23:49:00,67.3,64.0,29.65,NE,36,2.0,3.0,89,0.00,,CLR,0.00,VWS V14.01,2013-09-30 03:49:00,
2013-09-29 23:50:00,67.3,64.0,29.65,NE,36,3.0,3.0,89,0.00,,CLR,0.00,VWS V14.01,2013-09-30 03:50:00,
2013-09-29 23:51:00,67.3,64.0,29.65,NE,36,2.0,3.0,89,0.00,,CLR,0.00,VWS V14.01,2013-09-30 03:51:00,
2013-09-29 23:52:00,67.3,64.0,29.65,NE,36,2.0,3.0,89,0.00,,CLR,0.00,VWS V14.01,2013-09-30 03:52:00,
2013-09-29 23:53:00,67.3,64.0,29.65,NE,36,2.0,3.0,89,0.00,,CLR,0.00,VWS V14.01,2013-09-30 03:53:00,
2013-09-29 23:54:00,67.3,64.0,29.56,NE,36,3.0,3.0,89,0.00,,CLR,0.00,VWS V14.01,2013-09-30 03:54:00,
2013-09-29 23:55:00,67.3,64.0,29.56,NE,36,2.0,2.0,89,0.00,,CLR,0.00,VWS V14.01,2013-09-30 03:55:00,
2013-09-29 23:56:00,67.3,64.0,29.56,NE,36,3.0,3.0,89,0.00,,CLR,0.00,VWS V14.01,2013-09-30 03:56:00,
2013-09-29 23:57:00,67.3,64.0,29.56,NE,36,2.0,3.0,89,0.00,,CLR,0.00,VWS V14.01,2013-09-30 03:57:00,
2013-09-29 23:58:00,67.3,64.0,29.56,NE,36,2.0,2.0,89,0.00,,CLR,0.00,VWS V14.01,2013-09-30 03:58:00,
2013-09-29 23:59:00,67.3,64.0,29.56,NE,36,2.0,2.0,89,0.00,,CLR,0.00,VWS V14.01,2013-09-30 03:59:00,